<?xml version="1.0" encoding="UTF-8" standalone="yes"?>
<gpx
 xmlns="http://www.topografix.com/GPX/1/1"
 creator="OziExplorer Version 3956f - http://www.oziexplorer.com"
 version="1.1"
 xmlns:xsi="http://www.w3.org/2001/XMLSchema-instance"
 xsi:schemaLocation="http://www.topografix.com/GPX/1/1 http://www.topografix.com/GPX/1/1/gpx.xsd">
<metadata>
 <time>2024-08-30T11:07:47Z</time>
 <bounds minlat="31.766860" minlon="34.954460" maxlat="31.798920" maxlon="34.998330"/>
</metadata>
<trk>
 <name>Zora_30km.,670m.V1</name>
 <desc>Zora_30km.,670m.V1</desc>
<trkseg>
<trkpt lat="31.7873600" lon="34.9903100">
<ele>326.880005</ele>
<time>2024-08-30T14:07:47.384Z</time>
</trkpt>
<trkpt lat="31.7873500" lon="34.9903100">
<ele>326.809998</ele>
<time>2024-08-30T14:07:47.384Z</time>
</trkpt>
<trkpt lat="31.7873100" lon="34.9904200">
<ele>326.310028</ele>
<time>2024-08-30T14:07:47.384Z</time>
</trkpt>
<trkpt lat="31.7871900" lon="34.9908300">
<ele>324.259979</ele>
<time>2024-08-30T14:07:47.384Z</time>
</trkpt>
<trkpt lat="31.7871800" lon="34.9909600">
<ele>323.850006</ele>
<time>2024-08-30T14:07:47.384Z</time>
</trkpt>
<trkpt lat="31.7872100" lon="34.9911700">
<ele>323.089996</ele>
<time>2024-08-30T14:07:47.385Z</time>
</trkpt>
<trkpt lat="31.7872100" lon="34.9914700">
<ele>323.659973</ele>
<time>2024-08-30T14:07:47.385Z</time>
</trkpt>
<trkpt lat="31.7872000" lon="34.9916900">
<ele>325.250000</ele>
<time>2024-08-30T14:07:47.385Z</time>
</trkpt>
<trkpt lat="31.7872100" lon="34.9918100">
<ele>326.080017</ele>
<time>2024-08-30T14:07:47.385Z</time>
</trkpt>
<trkpt lat="31.7872200" lon="34.9919500">
<ele>326.990021</ele>
<time>2024-08-30T14:07:47.385Z</time>
</trkpt>
<trkpt lat="31.7871900" lon="34.9922600">
<ele>325.929993</ele>
<time>2024-08-30T14:07:47.385Z</time>
</trkpt>
<trkpt lat="31.7871200" lon="34.9923600">
<ele>325.380005</ele>
<time>2024-08-30T14:07:47.385Z</time>
</trkpt>
<trkpt lat="31.7870800" lon="34.9924400">
<ele>324.649994</ele>
<time>2024-08-30T14:07:47.385Z</time>
</trkpt>
<trkpt lat="31.7869500" lon="34.9926000">
<ele>323.630005</ele>
<time>2024-08-30T14:07:47.385Z</time>
</trkpt>
<trkpt lat="31.7867800" lon="34.9927700">
<ele>323.600006</ele>
<time>2024-08-30T14:07:47.385Z</time>
</trkpt>
<trkpt lat="31.7864900" lon="34.9929500">
<ele>326.420013</ele>
<time>2024-08-30T14:07:47.385Z</time>
</trkpt>
<trkpt lat="31.7864400" lon="34.9930000">
<ele>327.559998</ele>
<time>2024-08-30T14:07:47.385Z</time>
</trkpt>
<trkpt lat="31.7863800" lon="34.9931000">
<ele>329.670013</ele>
<time>2024-08-30T14:07:47.385Z</time>
</trkpt>
<trkpt lat="31.7863200" lon="34.9938100">
<ele>337.899994</ele>
<time>2024-08-30T14:07:47.385Z</time>
</trkpt>
<trkpt lat="31.7862800" lon="34.9939900">
<ele>338.890015</ele>
<time>2024-08-30T14:07:47.385Z</time>
</trkpt>
<trkpt lat="31.7861600" lon="34.9943900">
<ele>339.399994</ele>
<time>2024-08-30T14:07:47.385Z</time>
</trkpt>
<trkpt lat="31.7859900" lon="34.9947700">
<ele>337.420013</ele>
<time>2024-08-30T14:07:47.385Z</time>
</trkpt>
<trkpt lat="31.7858800" lon="34.9949600">
<ele>335.500000</ele>
<time>2024-08-30T14:07:47.385Z</time>
</trkpt>
<trkpt lat="31.7856200" lon="34.9953200">
<ele>330.939972</ele>
<time>2024-08-30T14:07:47.385Z</time>
</trkpt>
<trkpt lat="31.7855600" lon="34.9954200">
<ele>330.540009</ele>
<time>2024-08-30T14:07:47.385Z</time>
</trkpt>
<trkpt lat="31.7854900" lon="34.9956200">
<ele>330.169983</ele>
<time>2024-08-30T14:07:47.385Z</time>
</trkpt>
<trkpt lat="31.7854500" lon="34.9958500">
<ele>330.169983</ele>
<time>2024-08-30T14:07:47.385Z</time>
</trkpt>
<trkpt lat="31.7854500" lon="34.9959700">
<ele>329.630005</ele>
<time>2024-08-30T14:07:47.385Z</time>
</trkpt>
<trkpt lat="31.7854900" lon="34.9961200">
<ele>329.019989</ele>
<time>2024-08-30T14:07:47.385Z</time>
</trkpt>
<trkpt lat="31.7855300" lon="34.9961900">
<ele>329.050018</ele>
<time>2024-08-30T14:07:47.385Z</time>
</trkpt>
<trkpt lat="31.7855300" lon="34.9961900">
<ele>329.050018</ele>
<time>2024-08-30T14:07:47.386Z</time>
</trkpt>
<trkpt lat="31.7855300" lon="34.9961900">
<ele>329.050018</ele>
<time>2024-08-30T14:07:47.386Z</time>
</trkpt>
<trkpt lat="31.7855500" lon="34.9962200">
<ele>329.019989</ele>
<time>2024-08-30T14:07:47.386Z</time>
</trkpt>
<trkpt lat="31.7856800" lon="34.9962800">
<ele>327.660004</ele>
<time>2024-08-30T14:07:47.386Z</time>
</trkpt>
<trkpt lat="31.7860800" lon="34.9963100">
<ele>318.260010</ele>
<time>2024-08-30T14:07:47.386Z</time>
</trkpt>
<trkpt lat="31.7864800" lon="34.9963000">
<ele>315.890015</ele>
<time>2024-08-30T14:07:47.386Z</time>
</trkpt>
<trkpt lat="31.7867700" lon="34.9961700">
<ele>315.290009</ele>
<time>2024-08-30T14:07:47.386Z</time>
</trkpt>
<trkpt lat="31.7868400" lon="34.9961700">
<ele>315.489990</ele>
<time>2024-08-30T14:07:47.386Z</time>
</trkpt>
<trkpt lat="31.7869000" lon="34.9962000">
<ele>315.569977</ele>
<time>2024-08-30T14:07:47.386Z</time>
</trkpt>
<trkpt lat="31.7870300" lon="34.9962600">
<ele>315.180023</ele>
<time>2024-08-30T14:07:47.386Z</time>
</trkpt>
<trkpt lat="31.7869800" lon="34.9963800">
<ele>315.019989</ele>
<time>2024-08-30T14:07:47.386Z</time>
</trkpt>
<trkpt lat="31.7870100" lon="34.9966400">
<ele>310.480011</ele>
<time>2024-08-30T14:07:47.386Z</time>
</trkpt>
<trkpt lat="31.7870700" lon="34.9970100">
<ele>308.760010</ele>
<time>2024-08-30T14:07:47.386Z</time>
</trkpt>
<trkpt lat="31.7870800" lon="34.9973900">
<ele>309.179993</ele>
<time>2024-08-30T14:07:47.386Z</time>
</trkpt>
<trkpt lat="31.7868400" lon="34.9980700">
<ele>302.419983</ele>
<time>2024-08-30T14:07:47.386Z</time>
</trkpt>
<trkpt lat="31.7868100" lon="34.9980900">
<ele>301.820007</ele>
<time>2024-08-30T14:07:47.386Z</time>
</trkpt>
<trkpt lat="31.7866600" lon="34.9982000">
<ele>297.899994</ele>
<time>2024-08-30T14:07:47.386Z</time>
</trkpt>
<trkpt lat="31.7865900" lon="34.9982600">
<ele>296.910004</ele>
<time>2024-08-30T14:07:47.386Z</time>
</trkpt>
<trkpt lat="31.7865000" lon="34.9983300">
<ele>296.029999</ele>
<time>2024-08-30T14:07:47.386Z</time>
</trkpt>
<trkpt lat="31.7863800" lon="34.9983300">
<ele>296.119995</ele>
<time>2024-08-30T14:07:47.386Z</time>
</trkpt>
<trkpt lat="31.7861500" lon="34.9983200">
<ele>298.720001</ele>
<time>2024-08-30T14:07:47.386Z</time>
</trkpt>
<trkpt lat="31.7860900" lon="34.9982600">
<ele>299.950012</ele>
<time>2024-08-30T14:07:47.386Z</time>
</trkpt>
<trkpt lat="31.7859600" lon="34.9980600">
<ele>304.639984</ele>
<time>2024-08-30T14:07:47.387Z</time>
</trkpt>
<trkpt lat="31.7856200" lon="34.9973600">
<ele>323.290009</ele>
<time>2024-08-30T14:07:47.387Z</time>
</trkpt>
<trkpt lat="31.7853200" lon="34.9969400">
<ele>328.880005</ele>
<time>2024-08-30T14:07:47.387Z</time>
</trkpt>
<trkpt lat="31.7851400" lon="34.9966000">
<ele>330.379974</ele>
<time>2024-08-30T14:07:47.387Z</time>
</trkpt>
<trkpt lat="31.7851400" lon="34.9966000">
<ele>330.379974</ele>
<time>2024-08-30T14:07:47.387Z</time>
</trkpt>
<trkpt lat="31.7851400" lon="34.9966000">
<ele>330.379974</ele>
<time>2024-08-30T14:07:47.387Z</time>
</trkpt>
<trkpt lat="31.7851100" lon="34.9965400">
<ele>330.120026</ele>
<time>2024-08-30T14:07:47.387Z</time>
</trkpt>
<trkpt lat="31.7848300" lon="34.9959000">
<ele>326.090027</ele>
<time>2024-08-30T14:07:47.387Z</time>
</trkpt>
<trkpt lat="31.7847200" lon="34.9955900">
<ele>327.720001</ele>
<time>2024-08-30T14:07:47.387Z</time>
</trkpt>
<trkpt lat="31.7845900" lon="34.9953400">
<ele>332.670013</ele>
<time>2024-08-30T14:07:47.387Z</time>
</trkpt>
<trkpt lat="31.7844400" lon="34.9951000">
<ele>336.159973</ele>
<time>2024-08-30T14:07:47.387Z</time>
</trkpt>
<trkpt lat="31.7840500" lon="34.9945500">
<ele>336.679993</ele>
<time>2024-08-30T14:07:47.387Z</time>
</trkpt>
<trkpt lat="31.7838600" lon="34.9943400">
<ele>334.429993</ele>
<time>2024-08-30T14:07:47.387Z</time>
</trkpt>
<trkpt lat="31.7837600" lon="34.9942300">
<ele>334.640015</ele>
<time>2024-08-30T14:07:47.387Z</time>
</trkpt>
<trkpt lat="31.7834600" lon="34.9939300">
<ele>343.990021</ele>
<time>2024-08-30T14:07:47.387Z</time>
</trkpt>
<trkpt lat="31.7832500" lon="34.9937700">
<ele>345.239990</ele>
<time>2024-08-30T14:07:47.387Z</time>
</trkpt>
<trkpt lat="31.7827000" lon="34.9934500">
<ele>345.290009</ele>
<time>2024-08-30T14:07:47.387Z</time>
</trkpt>
<trkpt lat="31.7825300" lon="34.9933100">
<ele>344.939972</ele>
<time>2024-08-30T14:07:47.387Z</time>
</trkpt>
<trkpt lat="31.7825300" lon="34.9933100">
<ele>344.939972</ele>
<time>2024-08-30T14:07:47.387Z</time>
</trkpt>
<trkpt lat="31.7825300" lon="34.9933100">
<ele>344.939972</ele>
<time>2024-08-30T14:07:47.387Z</time>
</trkpt>
<trkpt lat="31.7824700" lon="34.9932500">
<ele>344.710022</ele>
<time>2024-08-30T14:07:47.388Z</time>
</trkpt>
<trkpt lat="31.7821600" lon="34.9929500">
<ele>339.459991</ele>
<time>2024-08-30T14:07:47.388Z</time>
</trkpt>
<trkpt lat="31.7819700" lon="34.9927800">
<ele>334.470001</ele>
<time>2024-08-30T14:07:47.388Z</time>
</trkpt>
<trkpt lat="31.7818100" lon="34.9927500">
<ele>330.360016</ele>
<time>2024-08-30T14:07:47.388Z</time>
</trkpt>
<trkpt lat="31.7816300" lon="34.9927500">
<ele>326.449982</ele>
<time>2024-08-30T14:07:47.388Z</time>
</trkpt>
<trkpt lat="31.7814900" lon="34.9927800">
<ele>324.460022</ele>
<time>2024-08-30T14:07:47.388Z</time>
</trkpt>
<trkpt lat="31.7812900" lon="34.9928400">
<ele>321.760010</ele>
<time>2024-08-30T14:07:47.388Z</time>
</trkpt>
<trkpt lat="31.7809000" lon="34.9930100">
<ele>317.429993</ele>
<time>2024-08-30T14:07:47.388Z</time>
</trkpt>
<trkpt lat="31.7807800" lon="34.9930500">
<ele>318.919983</ele>
<time>2024-08-30T14:07:47.388Z</time>
</trkpt>
<trkpt lat="31.7806600" lon="34.9931100">
<ele>320.679993</ele>
<time>2024-08-30T14:07:47.388Z</time>
</trkpt>
<trkpt lat="31.7803500" lon="34.9932900">
<ele>318.359985</ele>
<time>2024-08-30T14:07:47.388Z</time>
</trkpt>
<trkpt lat="31.7801400" lon="34.9933700">
<ele>315.709991</ele>
<time>2024-08-30T14:07:47.388Z</time>
</trkpt>
<trkpt lat="31.7799300" lon="34.9934400">
<ele>316.190002</ele>
<time>2024-08-30T14:07:47.388Z</time>
</trkpt>
<trkpt lat="31.7794400" lon="34.9935300">
<ele>316.570007</ele>
<time>2024-08-30T14:07:47.388Z</time>
</trkpt>
<trkpt lat="31.7793400" lon="34.9935800">
<ele>315.890015</ele>
<time>2024-08-30T14:07:47.388Z</time>
</trkpt>
<trkpt lat="31.7792100" lon="34.9936700">
<ele>314.490021</ele>
<time>2024-08-30T14:07:47.388Z</time>
</trkpt>
<trkpt lat="31.7789600" lon="34.9939000">
<ele>315.520020</ele>
<time>2024-08-30T14:07:47.388Z</time>
</trkpt>
<trkpt lat="31.7788300" lon="34.9939800">
<ele>316.070007</ele>
<time>2024-08-30T14:07:47.388Z</time>
</trkpt>
<trkpt lat="31.7787000" lon="34.9940400">
<ele>316.690002</ele>
<time>2024-08-30T14:07:47.388Z</time>
</trkpt>
<trkpt lat="31.7785900" lon="34.9940400">
<ele>317.820007</ele>
<time>2024-08-30T14:07:47.388Z</time>
</trkpt>
<trkpt lat="31.7785400" lon="34.9940200">
<ele>318.109985</ele>
<time>2024-08-30T14:07:47.389Z</time>
</trkpt>
<trkpt lat="31.7784500" lon="34.9939900">
<ele>318.540009</ele>
<time>2024-08-30T14:07:47.389Z</time>
</trkpt>
<trkpt lat="31.7779700" lon="34.9937500">
<ele>317.230011</ele>
<time>2024-08-30T14:07:47.389Z</time>
</trkpt>
<trkpt lat="31.7779700" lon="34.9937500">
<ele>317.230011</ele>
<time>2024-08-30T14:07:47.389Z</time>
</trkpt>
<trkpt lat="31.7779700" lon="34.9937500">
<ele>317.230011</ele>
<time>2024-08-30T14:07:47.389Z</time>
</trkpt>
<trkpt lat="31.7777600" lon="34.9936400">
<ele>315.579987</ele>
<time>2024-08-30T14:07:47.389Z</time>
</trkpt>
<trkpt lat="31.7776700" lon="34.9935700">
<ele>313.819977</ele>
<time>2024-08-30T14:07:47.389Z</time>
</trkpt>
<trkpt lat="31.7775500" lon="34.9934200">
<ele>311.089996</ele>
<time>2024-08-30T14:07:47.389Z</time>
</trkpt>
<trkpt lat="31.7774500" lon="34.9932900">
<ele>309.940002</ele>
<time>2024-08-30T14:07:47.389Z</time>
</trkpt>
<trkpt lat="31.7774000" lon="34.9931800">
<ele>309.600006</ele>
<time>2024-08-30T14:07:47.389Z</time>
</trkpt>
<trkpt lat="31.7774100" lon="34.9928800">
<ele>309.369995</ele>
<time>2024-08-30T14:07:47.389Z</time>
</trkpt>
<trkpt lat="31.7773900" lon="34.9925000">
<ele>306.809998</ele>
<time>2024-08-30T14:07:47.389Z</time>
</trkpt>
<trkpt lat="31.7773700" lon="34.9924400">
<ele>307.449982</ele>
<time>2024-08-30T14:07:47.389Z</time>
</trkpt>
<trkpt lat="31.7773600" lon="34.9923800">
<ele>308.220001</ele>
<time>2024-08-30T14:07:47.389Z</time>
</trkpt>
<trkpt lat="31.7773200" lon="34.9923100">
<ele>308.989990</ele>
<time>2024-08-30T14:07:47.389Z</time>
</trkpt>
<trkpt lat="31.7772300" lon="34.9922400">
<ele>309.710022</ele>
<time>2024-08-30T14:07:47.389Z</time>
</trkpt>
<trkpt lat="31.7771200" lon="34.9921300">
<ele>314.089996</ele>
<time>2024-08-30T14:07:47.389Z</time>
</trkpt>
<trkpt lat="31.7769800" lon="34.9920000">
<ele>318.600006</ele>
<time>2024-08-30T14:07:47.389Z</time>
</trkpt>
<trkpt lat="31.7768000" lon="34.9917900">
<ele>322.440002</ele>
<time>2024-08-30T14:07:47.389Z</time>
</trkpt>
<trkpt lat="31.7767400" lon="34.9917500">
<ele>323.390015</ele>
<time>2024-08-30T14:07:47.389Z</time>
</trkpt>
<trkpt lat="31.7761800" lon="34.9914500">
<ele>322.440002</ele>
<time>2024-08-30T14:07:47.389Z</time>
</trkpt>
<trkpt lat="31.7759700" lon="34.9914000">
<ele>319.440002</ele>
<time>2024-08-30T14:07:47.390Z</time>
</trkpt>
<trkpt lat="31.7757700" lon="34.9913000">
<ele>319.149994</ele>
<time>2024-08-30T14:07:47.390Z</time>
</trkpt>
<trkpt lat="31.7756200" lon="34.9911900">
<ele>319.110016</ele>
<time>2024-08-30T14:07:47.390Z</time>
</trkpt>
<trkpt lat="31.7755100" lon="34.9910200">
<ele>319.269989</ele>
<time>2024-08-30T14:07:47.390Z</time>
</trkpt>
<trkpt lat="31.7754600" lon="34.9907300">
<ele>321.279999</ele>
<time>2024-08-30T14:07:47.390Z</time>
</trkpt>
<trkpt lat="31.7754000" lon="34.9902700">
<ele>322.039978</ele>
<time>2024-08-30T14:07:47.390Z</time>
</trkpt>
<trkpt lat="31.7753500" lon="34.9896500">
<ele>329.569977</ele>
<time>2024-08-30T14:07:47.390Z</time>
</trkpt>
<trkpt lat="31.7753500" lon="34.9896500">
<ele>329.569977</ele>
<time>2024-08-30T14:07:47.390Z</time>
</trkpt>
<trkpt lat="31.7753500" lon="34.9896500">
<ele>329.569977</ele>
<time>2024-08-30T14:07:47.390Z</time>
</trkpt>
<trkpt lat="31.7752200" lon="34.9892000">
<ele>331.740021</ele>
<time>2024-08-30T14:07:47.390Z</time>
</trkpt>
<trkpt lat="31.7751200" lon="34.9889800">
<ele>329.850006</ele>
<time>2024-08-30T14:07:47.390Z</time>
</trkpt>
<trkpt lat="31.7749600" lon="34.9886900">
<ele>326.610016</ele>
<time>2024-08-30T14:07:47.390Z</time>
</trkpt>
<trkpt lat="31.7749200" lon="34.9885700">
<ele>326.720001</ele>
<time>2024-08-30T14:07:47.390Z</time>
</trkpt>
<trkpt lat="31.7748100" lon="34.9880800">
<ele>330.540009</ele>
<time>2024-08-30T14:07:47.390Z</time>
</trkpt>
<trkpt lat="31.7747900" lon="34.9878700">
<ele>333.140015</ele>
<time>2024-08-30T14:07:47.390Z</time>
</trkpt>
<trkpt lat="31.7748200" lon="34.9877300">
<ele>336.309998</ele>
<time>2024-08-30T14:07:47.390Z</time>
</trkpt>
<trkpt lat="31.7748700" lon="34.9876200">
<ele>339.830017</ele>
<time>2024-08-30T14:07:47.390Z</time>
</trkpt>
<trkpt lat="31.7749400" lon="34.9875600">
<ele>342.130005</ele>
<time>2024-08-30T14:07:47.390Z</time>
</trkpt>
<trkpt lat="31.7750300" lon="34.9875300">
<ele>343.070007</ele>
<time>2024-08-30T14:07:47.390Z</time>
</trkpt>
<trkpt lat="31.7752600" lon="34.9873400">
<ele>342.600006</ele>
<time>2024-08-30T14:07:47.390Z</time>
</trkpt>
<trkpt lat="31.7752800" lon="34.9873600">
<ele>341.970001</ele>
<time>2024-08-30T14:07:47.390Z</time>
</trkpt>
<trkpt lat="31.7753000" lon="34.9873700">
<ele>341.440002</ele>
<time>2024-08-30T14:07:47.390Z</time>
</trkpt>
<trkpt lat="31.7753100" lon="34.9873700">
<ele>341.250031</ele>
<time>2024-08-30T14:07:47.390Z</time>
</trkpt>
<trkpt lat="31.7753200" lon="34.9873700">
<ele>341.059998</ele>
<time>2024-08-30T14:07:47.390Z</time>
</trkpt>
<trkpt lat="31.7753500" lon="34.9873600">
<ele>340.579987</ele>
<time>2024-08-30T14:07:47.390Z</time>
</trkpt>
<trkpt lat="31.7753700" lon="34.9873500">
<ele>340.269989</ele>
<time>2024-08-30T14:07:47.391Z</time>
</trkpt>
<trkpt lat="31.7753800" lon="34.9873200">
<ele>340.300018</ele>
<time>2024-08-30T14:07:47.391Z</time>
</trkpt>
<trkpt lat="31.7753800" lon="34.9873000">
<ele>340.449982</ele>
<time>2024-08-30T14:07:47.391Z</time>
</trkpt>
<trkpt lat="31.7753800" lon="34.9872700">
<ele>340.679993</ele>
<time>2024-08-30T14:07:47.391Z</time>
</trkpt>
<trkpt lat="31.7753700" lon="34.9872400">
<ele>341.190002</ele>
<time>2024-08-30T14:07:47.391Z</time>
</trkpt>
<trkpt lat="31.7753500" lon="34.9872300">
<ele>341.839996</ele>
<time>2024-08-30T14:07:47.391Z</time>
</trkpt>
<trkpt lat="31.7753300" lon="34.9872200">
<ele>342.520020</ele>
<time>2024-08-30T14:07:47.391Z</time>
</trkpt>
<trkpt lat="31.7753100" lon="34.9872200">
<ele>343.099976</ele>
<time>2024-08-30T14:07:47.391Z</time>
</trkpt>
<trkpt lat="31.7752900" lon="34.9872200">
<ele>343.680023</ele>
<time>2024-08-30T14:07:47.391Z</time>
</trkpt>
<trkpt lat="31.7752700" lon="34.9872400">
<ele>343.880005</ele>
<time>2024-08-30T14:07:47.391Z</time>
</trkpt>
<trkpt lat="31.7752600" lon="34.9872600">
<ele>343.770020</ele>
<time>2024-08-30T14:07:47.391Z</time>
</trkpt>
<trkpt lat="31.7752500" lon="34.9872800">
<ele>343.649994</ele>
<time>2024-08-30T14:07:47.391Z</time>
</trkpt>
<trkpt lat="31.7746700" lon="34.9866900">
<ele>358.410004</ele>
<time>2024-08-30T14:07:47.391Z</time>
</trkpt>
<trkpt lat="31.7743100" lon="34.9863700">
<ele>373.619995</ele>
<time>2024-08-30T14:07:47.391Z</time>
</trkpt>
<trkpt lat="31.7739600" lon="34.9860200">
<ele>372.279999</ele>
<time>2024-08-30T14:07:47.391Z</time>
</trkpt>
<trkpt lat="31.7738700" lon="34.9859200">
<ele>370.879974</ele>
<time>2024-08-30T14:07:47.391Z</time>
</trkpt>
<trkpt lat="31.7738700" lon="34.9859200">
<ele>370.879974</ele>
<time>2024-08-30T14:07:47.391Z</time>
</trkpt>
<trkpt lat="31.7738700" lon="34.9859200">
<ele>370.879974</ele>
<time>2024-08-30T14:07:47.391Z</time>
</trkpt>
<trkpt lat="31.7737600" lon="34.9857900">
<ele>368.990021</ele>
<time>2024-08-30T14:07:47.391Z</time>
</trkpt>
<trkpt lat="31.7736300" lon="34.9855900">
<ele>366.410004</ele>
<time>2024-08-30T14:07:47.391Z</time>
</trkpt>
<trkpt lat="31.7734100" lon="34.9851600">
<ele>362.390015</ele>
<time>2024-08-30T14:07:47.392Z</time>
</trkpt>
<trkpt lat="31.7733400" lon="34.9850100">
<ele>362.050018</ele>
<time>2024-08-30T14:07:47.392Z</time>
</trkpt>
<trkpt lat="31.7733100" lon="34.9848500">
<ele>362.089996</ele>
<time>2024-08-30T14:07:47.392Z</time>
</trkpt>
<trkpt lat="31.7732900" lon="34.9846200">
<ele>361.329987</ele>
<time>2024-08-30T14:07:47.392Z</time>
</trkpt>
<trkpt lat="31.7733000" lon="34.9842700">
<ele>358.379974</ele>
<time>2024-08-30T14:07:47.392Z</time>
</trkpt>
<trkpt lat="31.7732600" lon="34.9839800">
<ele>356.539978</ele>
<time>2024-08-30T14:07:47.392Z</time>
</trkpt>
<trkpt lat="31.7732900" lon="34.9838900">
<ele>356.539978</ele>
<time>2024-08-30T14:07:47.392Z</time>
</trkpt>
<trkpt lat="31.7730500" lon="34.9834700">
<ele>360.460022</ele>
<time>2024-08-30T14:07:47.392Z</time>
</trkpt>
<trkpt lat="31.7727600" lon="34.9828900">
<ele>362.529968</ele>
<time>2024-08-30T14:07:47.392Z</time>
</trkpt>
<trkpt lat="31.7727600" lon="34.9828900">
<ele>362.529968</ele>
<time>2024-08-30T14:07:47.392Z</time>
</trkpt>
<trkpt lat="31.7727600" lon="34.9828900">
<ele>362.529968</ele>
<time>2024-08-30T14:07:47.392Z</time>
</trkpt>
<trkpt lat="31.7724700" lon="34.9823300">
<ele>356.309998</ele>
<time>2024-08-30T14:07:47.392Z</time>
</trkpt>
<trkpt lat="31.7721500" lon="34.9819400">
<ele>346.019989</ele>
<time>2024-08-30T14:07:47.392Z</time>
</trkpt>
<trkpt lat="31.7720900" lon="34.9818300">
<ele>345.980011</ele>
<time>2024-08-30T14:07:47.392Z</time>
</trkpt>
<trkpt lat="31.7720400" lon="34.9813700">
<ele>352.989990</ele>
<time>2024-08-30T14:07:47.392Z</time>
</trkpt>
<trkpt lat="31.7720000" lon="34.9811500">
<ele>353.779999</ele>
<time>2024-08-30T14:07:47.392Z</time>
</trkpt>
<trkpt lat="31.7719200" lon="34.9810100">
<ele>349.959991</ele>
<time>2024-08-30T14:07:47.392Z</time>
</trkpt>
<trkpt lat="31.7718300" lon="34.9809400">
<ele>344.939972</ele>
<time>2024-08-30T14:07:47.392Z</time>
</trkpt>
<trkpt lat="31.7715900" lon="34.9808500">
<ele>333.920013</ele>
<time>2024-08-30T14:07:47.392Z</time>
</trkpt>
<trkpt lat="31.7715400" lon="34.9808000">
<ele>331.769989</ele>
<time>2024-08-30T14:07:47.392Z</time>
</trkpt>
<trkpt lat="31.7715000" lon="34.9807300">
<ele>329.510010</ele>
<time>2024-08-30T14:07:47.392Z</time>
</trkpt>
<trkpt lat="31.7714800" lon="34.9805200">
<ele>326.709991</ele>
<time>2024-08-30T14:07:47.392Z</time>
</trkpt>
<trkpt lat="31.7715100" lon="34.9804000">
<ele>327.489990</ele>
<time>2024-08-30T14:07:47.393Z</time>
</trkpt>
<trkpt lat="31.7715400" lon="34.9803300">
<ele>328.459991</ele>
<time>2024-08-30T14:07:47.393Z</time>
</trkpt>
<trkpt lat="31.7716200" lon="34.9802400">
<ele>331.839996</ele>
<time>2024-08-30T14:07:47.393Z</time>
</trkpt>
<trkpt lat="31.7718400" lon="34.9800900">
<ele>338.129974</ele>
<time>2024-08-30T14:07:47.393Z</time>
</trkpt>
<trkpt lat="31.7718600" lon="34.9800600">
<ele>338.230011</ele>
<time>2024-08-30T14:07:47.393Z</time>
</trkpt>
<trkpt lat="31.7718900" lon="34.9799800">
<ele>337.929993</ele>
<time>2024-08-30T14:07:47.393Z</time>
</trkpt>
<trkpt lat="31.7718800" lon="34.9799000">
<ele>337.399994</ele>
<time>2024-08-30T14:07:47.393Z</time>
</trkpt>
<trkpt lat="31.7718000" lon="34.9798100">
<ele>335.359985</ele>
<time>2024-08-30T14:07:47.393Z</time>
</trkpt>
<trkpt lat="31.7714200" lon="34.9796700">
<ele>328.620026</ele>
<time>2024-08-30T14:07:47.393Z</time>
</trkpt>
<trkpt lat="31.7713600" lon="34.9796500">
<ele>328.220001</ele>
<time>2024-08-30T14:07:47.393Z</time>
</trkpt>
<trkpt lat="31.7712900" lon="34.9796400">
<ele>327.599976</ele>
<time>2024-08-30T14:07:47.393Z</time>
</trkpt>
<trkpt lat="31.7711500" lon="34.9795700">
<ele>327.240021</ele>
<time>2024-08-30T14:07:47.393Z</time>
</trkpt>
<trkpt lat="31.7710700" lon="34.9794900">
<ele>327.460022</ele>
<time>2024-08-30T14:07:47.393Z</time>
</trkpt>
<trkpt lat="31.7708800" lon="34.9790300">
<ele>328.549988</ele>
<time>2024-08-30T14:07:47.393Z</time>
</trkpt>
<trkpt lat="31.7706600" lon="34.9787000">
<ele>327.529999</ele>
<time>2024-08-30T14:07:47.393Z</time>
</trkpt>
<trkpt lat="31.7705900" lon="34.9785800">
<ele>327.829987</ele>
<time>2024-08-30T14:07:47.393Z</time>
</trkpt>
<trkpt lat="31.7705900" lon="34.9785800">
<ele>327.829987</ele>
<time>2024-08-30T14:07:47.393Z</time>
</trkpt>
<trkpt lat="31.7705900" lon="34.9785800">
<ele>327.829987</ele>
<time>2024-08-30T14:07:47.393Z</time>
</trkpt>
<trkpt lat="31.7705300" lon="34.9784900">
<ele>329.720001</ele>
<time>2024-08-30T14:07:47.393Z</time>
</trkpt>
<trkpt lat="31.7703800" lon="34.9783000">
<ele>335.680023</ele>
<time>2024-08-30T14:07:47.393Z</time>
</trkpt>
<trkpt lat="31.7702200" lon="34.9781200">
<ele>337.820007</ele>
<time>2024-08-30T14:07:47.393Z</time>
</trkpt>
<trkpt lat="31.7700700" lon="34.9779500">
<ele>340.329987</ele>
<time>2024-08-30T14:07:47.393Z</time>
</trkpt>
<trkpt lat="31.7698100" lon="34.9777800">
<ele>335.000031</ele>
<time>2024-08-30T14:07:47.393Z</time>
</trkpt>
<trkpt lat="31.7696700" lon="34.9776000">
<ele>329.200012</ele>
<time>2024-08-30T14:07:47.393Z</time>
</trkpt>
<trkpt lat="31.7695500" lon="34.9774200">
<ele>325.759979</ele>
<time>2024-08-30T14:07:47.393Z</time>
</trkpt>
<trkpt lat="31.7694300" lon="34.9771800">
<ele>322.440002</ele>
<time>2024-08-30T14:07:47.393Z</time>
</trkpt>
<trkpt lat="31.7693800" lon="34.9770500">
<ele>319.959991</ele>
<time>2024-08-30T14:07:47.394Z</time>
</trkpt>
<trkpt lat="31.7693400" lon="34.9768100">
<ele>313.670013</ele>
<time>2024-08-30T14:07:47.394Z</time>
</trkpt>
<trkpt lat="31.7693500" lon="34.9767400">
<ele>312.059998</ele>
<time>2024-08-30T14:07:47.394Z</time>
</trkpt>
<trkpt lat="31.7693600" lon="34.9766800">
<ele>310.569977</ele>
<time>2024-08-30T14:07:47.394Z</time>
</trkpt>
<trkpt lat="31.7694200" lon="34.9765700">
<ele>311.820007</ele>
<time>2024-08-30T14:07:47.394Z</time>
</trkpt>
<trkpt lat="31.7695900" lon="34.9763700">
<ele>317.539978</ele>
<time>2024-08-30T14:07:47.394Z</time>
</trkpt>
<trkpt lat="31.7696900" lon="34.9762100">
<ele>324.279999</ele>
<time>2024-08-30T14:07:47.394Z</time>
</trkpt>
<trkpt lat="31.7697200" lon="34.9761400">
<ele>327.179993</ele>
<time>2024-08-30T14:07:47.394Z</time>
</trkpt>
<trkpt lat="31.7697300" lon="34.9760500">
<ele>329.119995</ele>
<time>2024-08-30T14:07:47.394Z</time>
</trkpt>
<trkpt lat="31.7696900" lon="34.9759700">
<ele>329.350006</ele>
<time>2024-08-30T14:07:47.394Z</time>
</trkpt>
<trkpt lat="31.7696700" lon="34.9759500">
<ele>329.369995</ele>
<time>2024-08-30T14:07:47.394Z</time>
</trkpt>
<trkpt lat="31.7696700" lon="34.9759500">
<ele>329.369995</ele>
<time>2024-08-30T14:07:47.394Z</time>
</trkpt>
<trkpt lat="31.7696700" lon="34.9759500">
<ele>329.369995</ele>
<time>2024-08-30T14:07:47.394Z</time>
</trkpt>
<trkpt lat="31.7696400" lon="34.9759300">
<ele>329.369995</ele>
<time>2024-08-30T14:07:47.394Z</time>
</trkpt>
<trkpt lat="31.7695100" lon="34.9759000">
<ele>328.839996</ele>
<time>2024-08-30T14:07:47.394Z</time>
</trkpt>
<trkpt lat="31.7693000" lon="34.9759700">
<ele>323.850006</ele>
<time>2024-08-30T14:07:47.394Z</time>
</trkpt>
<trkpt lat="31.7691600" lon="34.9759600">
<ele>323.950012</ele>
<time>2024-08-30T14:07:47.394Z</time>
</trkpt>
<trkpt lat="31.7690500" lon="34.9759200">
<ele>324.859985</ele>
<time>2024-08-30T14:07:47.394Z</time>
</trkpt>
<trkpt lat="31.7688200" lon="34.9758000">
<ele>326.919983</ele>
<time>2024-08-30T14:07:47.394Z</time>
</trkpt>
<trkpt lat="31.7687000" lon="34.9757200">
<ele>327.550018</ele>
<time>2024-08-30T14:07:47.394Z</time>
</trkpt>
<trkpt lat="31.7684300" lon="34.9754900">
<ele>331.660004</ele>
<time>2024-08-30T14:07:47.394Z</time>
</trkpt>
<trkpt lat="31.7675000" lon="34.9746600">
<ele>317.000000</ele>
<time>2024-08-30T14:07:47.394Z</time>
</trkpt>
<trkpt lat="31.7674400" lon="34.9745800">
<ele>315.279999</ele>
<time>2024-08-30T14:07:47.394Z</time>
</trkpt>
<trkpt lat="31.7672900" lon="34.9743300">
<ele>313.179993</ele>
<time>2024-08-30T14:07:47.394Z</time>
</trkpt>
<trkpt lat="31.7670700" lon="34.9738300">
<ele>310.860016</ele>
<time>2024-08-30T14:07:47.394Z</time>
</trkpt>
<trkpt lat="31.7670500" lon="34.9737500">
<ele>311.160004</ele>
<time>2024-08-30T14:07:47.395Z</time>
</trkpt>
<trkpt lat="31.7670500" lon="34.9737500">
<ele>311.160004</ele>
<time>2024-08-30T14:07:47.395Z</time>
</trkpt>
<trkpt lat="31.7670500" lon="34.9737500">
<ele>311.160004</ele>
<time>2024-08-30T14:07:47.395Z</time>
</trkpt>
<trkpt lat="31.7669500" lon="34.9733500">
<ele>309.309998</ele>
<time>2024-08-30T14:07:47.395Z</time>
</trkpt>
<trkpt lat="31.7668800" lon="34.9730200">
<ele>308.779999</ele>
<time>2024-08-30T14:07:47.395Z</time>
</trkpt>
<trkpt lat="31.7668600" lon="34.9728200">
<ele>307.420013</ele>
<time>2024-08-30T14:07:47.395Z</time>
</trkpt>
<trkpt lat="31.7668600" lon="34.9726900">
<ele>306.320007</ele>
<time>2024-08-30T14:07:47.395Z</time>
</trkpt>
<trkpt lat="31.7669100" lon="34.9723000">
<ele>304.440002</ele>
<time>2024-08-30T14:07:47.395Z</time>
</trkpt>
<trkpt lat="31.7670000" lon="34.9720500">
<ele>305.239990</ele>
<time>2024-08-30T14:07:47.395Z</time>
</trkpt>
<trkpt lat="31.7670500" lon="34.9719600">
<ele>305.669983</ele>
<time>2024-08-30T14:07:47.395Z</time>
</trkpt>
<trkpt lat="31.7671100" lon="34.9719000">
<ele>306.309998</ele>
<time>2024-08-30T14:07:47.395Z</time>
</trkpt>
<trkpt lat="31.7672000" lon="34.9717900">
<ele>305.539978</ele>
<time>2024-08-30T14:07:47.395Z</time>
</trkpt>
<trkpt lat="31.7675600" lon="34.9714400">
<ele>306.459991</ele>
<time>2024-08-30T14:07:47.395Z</time>
</trkpt>
<trkpt lat="31.7676600" lon="34.9713500">
<ele>304.369995</ele>
<time>2024-08-30T14:07:47.395Z</time>
</trkpt>
<trkpt lat="31.7679300" lon="34.9711900">
<ele>300.299988</ele>
<time>2024-08-30T14:07:47.395Z</time>
</trkpt>
<trkpt lat="31.7681100" lon="34.9710400">
<ele>300.570007</ele>
<time>2024-08-30T14:07:47.395Z</time>
</trkpt>
<trkpt lat="31.7682800" lon="34.9708700">
<ele>302.829987</ele>
<time>2024-08-30T14:07:47.395Z</time>
</trkpt>
<trkpt lat="31.7683600" lon="34.9707900">
<ele>303.630005</ele>
<time>2024-08-30T14:07:47.395Z</time>
</trkpt>
<trkpt lat="31.7686400" lon="34.9703700">
<ele>305.519989</ele>
<time>2024-08-30T14:07:47.395Z</time>
</trkpt>
<trkpt lat="31.7689800" lon="34.9699300">
<ele>311.859985</ele>
<time>2024-08-30T14:07:47.396Z</time>
</trkpt>
<trkpt lat="31.7690300" lon="34.9698400">
<ele>313.859985</ele>
<time>2024-08-30T14:07:47.396Z</time>
</trkpt>
<trkpt lat="31.7690900" lon="34.9697000">
<ele>315.720001</ele>
<time>2024-08-30T14:07:47.396Z</time>
</trkpt>
<trkpt lat="31.7691300" lon="34.9695200">
<ele>315.869995</ele>
<time>2024-08-30T14:07:47.396Z</time>
</trkpt>
<trkpt lat="31.7691300" lon="34.9694100">
<ele>315.550018</ele>
<time>2024-08-30T14:07:47.396Z</time>
</trkpt>
<trkpt lat="31.7691100" lon="34.9688400">
<ele>316.720032</ele>
<time>2024-08-30T14:07:47.396Z</time>
</trkpt>
<trkpt lat="31.7691300" lon="34.9679200">
<ele>317.250000</ele>
<time>2024-08-30T14:07:47.396Z</time>
</trkpt>
<trkpt lat="31.7691300" lon="34.9679200">
<ele>317.250000</ele>
<time>2024-08-30T14:07:47.396Z</time>
</trkpt>
<trkpt lat="31.7691300" lon="34.9679200">
<ele>317.250000</ele>
<time>2024-08-30T14:07:47.396Z</time>
</trkpt>
<trkpt lat="31.7690800" lon="34.9674300">
<ele>311.559998</ele>
<time>2024-08-30T14:07:47.396Z</time>
</trkpt>
<trkpt lat="31.7690200" lon="34.9671700">
<ele>308.160004</ele>
<time>2024-08-30T14:07:47.396Z</time>
</trkpt>
<trkpt lat="31.7689800" lon="34.9670600">
<ele>305.920013</ele>
<time>2024-08-30T14:07:47.396Z</time>
</trkpt>
<trkpt lat="31.7688300" lon="34.9666000">
<ele>297.510010</ele>
<time>2024-08-30T14:07:47.396Z</time>
</trkpt>
<trkpt lat="31.7688100" lon="34.9665500">
<ele>296.220001</ele>
<time>2024-08-30T14:07:47.396Z</time>
</trkpt>
<trkpt lat="31.7688000" lon="34.9664300">
<ele>295.329987</ele>
<time>2024-08-30T14:07:47.396Z</time>
</trkpt>
<trkpt lat="31.7688100" lon="34.9660400">
<ele>297.619995</ele>
<time>2024-08-30T14:07:47.396Z</time>
</trkpt>
<trkpt lat="31.7688000" lon="34.9659500">
<ele>297.960022</ele>
<time>2024-08-30T14:07:47.396Z</time>
</trkpt>
<trkpt lat="31.7687300" lon="34.9657800">
<ele>296.850006</ele>
<time>2024-08-30T14:07:47.396Z</time>
</trkpt>
<trkpt lat="31.7684400" lon="34.9654300">
<ele>297.869995</ele>
<time>2024-08-30T14:07:47.396Z</time>
</trkpt>
<trkpt lat="31.7683500" lon="34.9653100">
<ele>298.600006</ele>
<time>2024-08-30T14:07:47.397Z</time>
</trkpt>
<trkpt lat="31.7681500" lon="34.9649300">
<ele>296.489990</ele>
<time>2024-08-30T14:07:47.397Z</time>
</trkpt>
<trkpt lat="31.7681100" lon="34.9648000">
<ele>294.440002</ele>
<time>2024-08-30T14:07:47.397Z</time>
</trkpt>
<trkpt lat="31.7680900" lon="34.9645800">
<ele>290.679993</ele>
<time>2024-08-30T14:07:47.397Z</time>
</trkpt>
<trkpt lat="31.7681000" lon="34.9645000">
<ele>289.500000</ele>
<time>2024-08-30T14:07:47.397Z</time>
</trkpt>
<trkpt lat="31.7682000" lon="34.9642500">
<ele>286.750000</ele>
<time>2024-08-30T14:07:47.397Z</time>
</trkpt>
<trkpt lat="31.7685800" lon="34.9636100">
<ele>294.859985</ele>
<time>2024-08-30T14:07:47.397Z</time>
</trkpt>
<trkpt lat="31.7686800" lon="34.9635000">
<ele>295.790009</ele>
<time>2024-08-30T14:07:47.397Z</time>
</trkpt>
<trkpt lat="31.7687900" lon="34.9634400">
<ele>297.000000</ele>
<time>2024-08-30T14:07:47.397Z</time>
</trkpt>
<trkpt lat="31.7690600" lon="34.9634800">
<ele>299.930023</ele>
<time>2024-08-30T14:07:47.397Z</time>
</trkpt>
<trkpt lat="31.7691700" lon="34.9635000">
<ele>300.369995</ele>
<time>2024-08-30T14:07:47.397Z</time>
</trkpt>
<trkpt lat="31.7693200" lon="34.9635400">
<ele>299.459991</ele>
<time>2024-08-30T14:07:47.397Z</time>
</trkpt>
<trkpt lat="31.7694400" lon="34.9635300">
<ele>298.170013</ele>
<time>2024-08-30T14:07:47.397Z</time>
</trkpt>
<trkpt lat="31.7694900" lon="34.9635300">
<ele>298.570007</ele>
<time>2024-08-30T14:07:47.397Z</time>
</trkpt>
<trkpt lat="31.7696000" lon="34.9635000">
<ele>299.260010</ele>
<time>2024-08-30T14:07:47.397Z</time>
</trkpt>
<trkpt lat="31.7697200" lon="34.9634300">
<ele>299.369995</ele>
<time>2024-08-30T14:07:47.397Z</time>
</trkpt>
<trkpt lat="31.7700500" lon="34.9630400">
<ele>301.859985</ele>
<time>2024-08-30T14:07:47.397Z</time>
</trkpt>
<trkpt lat="31.7700500" lon="34.9630400">
<ele>301.859985</ele>
<time>2024-08-30T14:07:47.397Z</time>
</trkpt>
<trkpt lat="31.7700500" lon="34.9630400">
<ele>301.859985</ele>
<time>2024-08-30T14:07:47.397Z</time>
</trkpt>
<trkpt lat="31.7701700" lon="34.9628800">
<ele>302.139984</ele>
<time>2024-08-30T14:07:47.397Z</time>
</trkpt>
<trkpt lat="31.7706600" lon="34.9620700">
<ele>311.630005</ele>
<time>2024-08-30T14:07:47.398Z</time>
</trkpt>
<trkpt lat="31.7708200" lon="34.9617300">
<ele>311.010010</ele>
<time>2024-08-30T14:07:47.398Z</time>
</trkpt>
<trkpt lat="31.7709100" lon="34.9615900">
<ele>309.920013</ele>
<time>2024-08-30T14:07:47.398Z</time>
</trkpt>
<trkpt lat="31.7709900" lon="34.9615000">
<ele>309.450012</ele>
<time>2024-08-30T14:07:47.398Z</time>
</trkpt>
<trkpt lat="31.7710800" lon="34.9614500">
<ele>309.959991</ele>
<time>2024-08-30T14:07:47.398Z</time>
</trkpt>
<trkpt lat="31.7713000" lon="34.9613900">
<ele>313.110016</ele>
<time>2024-08-30T14:07:47.398Z</time>
</trkpt>
<trkpt lat="31.7714200" lon="34.9613900">
<ele>315.359985</ele>
<time>2024-08-30T14:07:47.398Z</time>
</trkpt>
<trkpt lat="31.7714500" lon="34.9614000">
<ele>315.909973</ele>
<time>2024-08-30T14:07:47.398Z</time>
</trkpt>
<trkpt lat="31.7714500" lon="34.9614000">
<ele>315.909973</ele>
<time>2024-08-30T14:07:47.398Z</time>
</trkpt>
<trkpt lat="31.7714500" lon="34.9614000">
<ele>315.909973</ele>
<time>2024-08-30T14:07:47.398Z</time>
</trkpt>
<trkpt lat="31.7717100" lon="34.9614900">
<ele>320.429993</ele>
<time>2024-08-30T14:07:47.398Z</time>
</trkpt>
<trkpt lat="31.7717600" lon="34.9615300">
<ele>321.210022</ele>
<time>2024-08-30T14:07:47.398Z</time>
</trkpt>
<trkpt lat="31.7718100" lon="34.9616000">
<ele>322.540009</ele>
<time>2024-08-30T14:07:47.398Z</time>
</trkpt>
<trkpt lat="31.7718400" lon="34.9616700">
<ele>323.799988</ele>
<time>2024-08-30T14:07:47.398Z</time>
</trkpt>
<trkpt lat="31.7718800" lon="34.9617900">
<ele>325.000000</ele>
<time>2024-08-30T14:07:47.398Z</time>
</trkpt>
<trkpt lat="31.7720700" lon="34.9625200">
<ele>329.860016</ele>
<time>2024-08-30T14:07:47.398Z</time>
</trkpt>
<trkpt lat="31.7721400" lon="34.9624400">
<ele>330.020020</ele>
<time>2024-08-30T14:07:47.398Z</time>
</trkpt>
<trkpt lat="31.7722000" lon="34.9623100">
<ele>329.009979</ele>
<time>2024-08-30T14:07:47.398Z</time>
</trkpt>
<trkpt lat="31.7722200" lon="34.9621000">
<ele>325.380005</ele>
<time>2024-08-30T14:07:47.398Z</time>
</trkpt>
<trkpt lat="31.7722900" lon="34.9618600">
<ele>318.980011</ele>
<time>2024-08-30T14:07:47.398Z</time>
</trkpt>
<trkpt lat="31.7723400" lon="34.9617600">
<ele>315.480011</ele>
<time>2024-08-30T14:07:47.398Z</time>
</trkpt>
<trkpt lat="31.7723800" lon="34.9616900">
<ele>312.669983</ele>
<time>2024-08-30T14:07:47.398Z</time>
</trkpt>
<trkpt lat="31.7725600" lon="34.9614800">
<ele>303.750000</ele>
<time>2024-08-30T14:07:47.399Z</time>
</trkpt>
<trkpt lat="31.7725600" lon="34.9614800">
<ele>303.750000</ele>
<time>2024-08-30T14:07:47.399Z</time>
</trkpt>
<trkpt lat="31.7725600" lon="34.9614800">
<ele>303.750000</ele>
<time>2024-08-30T14:07:47.399Z</time>
</trkpt>
<trkpt lat="31.7727500" lon="34.9612500">
<ele>297.049988</ele>
<time>2024-08-30T14:07:47.399Z</time>
</trkpt>
<trkpt lat="31.7728500" lon="34.9611600">
<ele>295.269989</ele>
<time>2024-08-30T14:07:47.399Z</time>
</trkpt>
<trkpt lat="31.7732300" lon="34.9610300">
<ele>293.940002</ele>
<time>2024-08-30T14:07:47.399Z</time>
</trkpt>
<trkpt lat="31.7733600" lon="34.9609500">
<ele>292.809998</ele>
<time>2024-08-30T14:07:47.399Z</time>
</trkpt>
<trkpt lat="31.7734800" lon="34.9607900">
<ele>290.640015</ele>
<time>2024-08-30T14:07:47.399Z</time>
</trkpt>
<trkpt lat="31.7735100" lon="34.9607200">
<ele>289.350006</ele>
<time>2024-08-30T14:07:47.399Z</time>
</trkpt>
<trkpt lat="31.7735300" lon="34.9606100">
<ele>286.970001</ele>
<time>2024-08-30T14:07:47.399Z</time>
</trkpt>
<trkpt lat="31.7735000" lon="34.9605300">
<ele>285.250000</ele>
<time>2024-08-30T14:07:47.399Z</time>
</trkpt>
<trkpt lat="31.7733600" lon="34.9603000">
<ele>282.989990</ele>
<time>2024-08-30T14:07:47.399Z</time>
</trkpt>
<trkpt lat="31.7733500" lon="34.9602300">
<ele>282.869995</ele>
<time>2024-08-30T14:07:47.399Z</time>
</trkpt>
<trkpt lat="31.7733500" lon="34.9600900">
<ele>282.839996</ele>
<time>2024-08-30T14:07:47.399Z</time>
</trkpt>
<trkpt lat="31.7734100" lon="34.9598100">
<ele>282.290009</ele>
<time>2024-08-30T14:07:47.399Z</time>
</trkpt>
<trkpt lat="31.7734700" lon="34.9596600">
<ele>280.489990</ele>
<time>2024-08-30T14:07:47.399Z</time>
</trkpt>
<trkpt lat="31.7735100" lon="34.9595900">
<ele>278.929993</ele>
<time>2024-08-30T14:07:47.399Z</time>
</trkpt>
<trkpt lat="31.7735400" lon="34.9595600">
<ele>277.929993</ele>
<time>2024-08-30T14:07:47.399Z</time>
</trkpt>
<trkpt lat="31.7736900" lon="34.9593900">
<ele>273.220001</ele>
<time>2024-08-30T14:07:47.399Z</time>
</trkpt>
<trkpt lat="31.7737300" lon="34.9592900">
<ele>271.380005</ele>
<time>2024-08-30T14:07:47.399Z</time>
</trkpt>
<trkpt lat="31.7737300" lon="34.9592900">
<ele>271.380005</ele>
<time>2024-08-30T14:07:47.399Z</time>
</trkpt>
<trkpt lat="31.7737300" lon="34.9592900">
<ele>271.380005</ele>
<time>2024-08-30T14:07:47.399Z</time>
</trkpt>
<trkpt lat="31.7737600" lon="34.9592300">
<ele>270.130005</ele>
<time>2024-08-30T14:07:47.400Z</time>
</trkpt>
<trkpt lat="31.7738000" lon="34.9593500">
<ele>271.029999</ele>
<time>2024-08-30T14:07:47.400Z</time>
</trkpt>
<trkpt lat="31.7739700" lon="34.9597600">
<ele>274.520020</ele>
<time>2024-08-30T14:07:47.400Z</time>
</trkpt>
<trkpt lat="31.7740200" lon="34.9598700">
<ele>273.859985</ele>
<time>2024-08-30T14:07:47.400Z</time>
</trkpt>
<trkpt lat="31.7740400" lon="34.9600000">
<ele>273.910004</ele>
<time>2024-08-30T14:07:47.400Z</time>
</trkpt>
<trkpt lat="31.7740800" lon="34.9600700">
<ele>274.820007</ele>
<time>2024-08-30T14:07:47.400Z</time>
</trkpt>
<trkpt lat="31.7741000" lon="34.9601000">
<ele>275.290009</ele>
<time>2024-08-30T14:07:47.400Z</time>
</trkpt>
<trkpt lat="31.7742500" lon="34.9602200">
<ele>277.640015</ele>
<time>2024-08-30T14:07:47.400Z</time>
</trkpt>
<trkpt lat="31.7743400" lon="34.9603600">
<ele>280.600006</ele>
<time>2024-08-30T14:07:47.400Z</time>
</trkpt>
<trkpt lat="31.7744400" lon="34.9604700">
<ele>282.209991</ele>
<time>2024-08-30T14:07:47.400Z</time>
</trkpt>
<trkpt lat="31.7747400" lon="34.9607100">
<ele>282.630005</ele>
<time>2024-08-30T14:07:47.400Z</time>
</trkpt>
<trkpt lat="31.7748400" lon="34.9608400">
<ele>284.010010</ele>
<time>2024-08-30T14:07:47.400Z</time>
</trkpt>
<trkpt lat="31.7749000" lon="34.9609900">
<ele>285.299988</ele>
<time>2024-08-30T14:07:47.400Z</time>
</trkpt>
<trkpt lat="31.7750000" lon="34.9611100">
<ele>283.989990</ele>
<time>2024-08-30T14:07:47.400Z</time>
</trkpt>
<trkpt lat="31.7750900" lon="34.9611700">
<ele>282.019989</ele>
<time>2024-08-30T14:07:47.400Z</time>
</trkpt>
<trkpt lat="31.7752000" lon="34.9611800">
<ele>278.809998</ele>
<time>2024-08-30T14:07:47.400Z</time>
</trkpt>
<trkpt lat="31.7753600" lon="34.9612800">
<ele>274.190002</ele>
<time>2024-08-30T14:07:47.400Z</time>
</trkpt>
<trkpt lat="31.7755900" lon="34.9614700">
<ele>268.880005</ele>
<time>2024-08-30T14:07:47.400Z</time>
</trkpt>
<trkpt lat="31.7756200" lon="34.9615200">
<ele>268.010010</ele>
<time>2024-08-30T14:07:47.400Z</time>
</trkpt>
<trkpt lat="31.7756500" lon="34.9616300">
<ele>267.050018</ele>
<time>2024-08-30T14:07:47.401Z</time>
</trkpt>
<trkpt lat="31.7756400" lon="34.9619800">
<ele>264.299988</ele>
<time>2024-08-30T14:07:47.401Z</time>
</trkpt>
<trkpt lat="31.7756400" lon="34.9619800">
<ele>264.299988</ele>
<time>2024-08-30T14:07:47.401Z</time>
</trkpt>
<trkpt lat="31.7756400" lon="34.9619800">
<ele>264.299988</ele>
<time>2024-08-30T14:07:47.401Z</time>
</trkpt>
<trkpt lat="31.7756200" lon="34.9621900">
<ele>263.479980</ele>
<time>2024-08-30T14:07:47.401Z</time>
</trkpt>
<trkpt lat="31.7756500" lon="34.9626200">
<ele>262.980011</ele>
<time>2024-08-30T14:07:47.401Z</time>
</trkpt>
<trkpt lat="31.7756200" lon="34.9628300">
<ele>263.540009</ele>
<time>2024-08-30T14:07:47.401Z</time>
</trkpt>
<trkpt lat="31.7755300" lon="34.9630700">
<ele>265.510010</ele>
<time>2024-08-30T14:07:47.401Z</time>
</trkpt>
<trkpt lat="31.7754800" lon="34.9633200">
<ele>267.050018</ele>
<time>2024-08-30T14:07:47.401Z</time>
</trkpt>
<trkpt lat="31.7755200" lon="34.9636200">
<ele>267.419983</ele>
<time>2024-08-30T14:07:47.401Z</time>
</trkpt>
<trkpt lat="31.7755700" lon="34.9637800">
<ele>267.750000</ele>
<time>2024-08-30T14:07:47.401Z</time>
</trkpt>
<trkpt lat="31.7753500" lon="34.9639900">
<ele>269.950012</ele>
<time>2024-08-30T14:07:47.401Z</time>
</trkpt>
<trkpt lat="31.7750900" lon="34.9641200">
<ele>270.510010</ele>
<time>2024-08-30T14:07:47.401Z</time>
</trkpt>
<trkpt lat="31.7749300" lon="34.9642400">
<ele>270.580017</ele>
<time>2024-08-30T14:07:47.401Z</time>
</trkpt>
<trkpt lat="31.7744400" lon="34.9645200">
<ele>282.149994</ele>
<time>2024-08-30T14:07:47.401Z</time>
</trkpt>
<trkpt lat="31.7742700" lon="34.9645800">
<ele>285.160004</ele>
<time>2024-08-30T14:07:47.401Z</time>
</trkpt>
<trkpt lat="31.7742400" lon="34.9646100">
<ele>285.889984</ele>
<time>2024-08-30T14:07:47.401Z</time>
</trkpt>
<trkpt lat="31.7741800" lon="34.9647100">
<ele>287.720001</ele>
<time>2024-08-30T14:07:47.401Z</time>
</trkpt>
<trkpt lat="31.7738600" lon="34.9649900">
<ele>281.510010</ele>
<time>2024-08-30T14:07:47.401Z</time>
</trkpt>
<trkpt lat="31.7737300" lon="34.9651400">
<ele>285.589996</ele>
<time>2024-08-30T14:07:47.401Z</time>
</trkpt>
<trkpt lat="31.7736700" lon="34.9651900">
<ele>286.389984</ele>
<time>2024-08-30T14:07:47.402Z</time>
</trkpt>
<trkpt lat="31.7736100" lon="34.9652000">
<ele>286.429993</ele>
<time>2024-08-30T14:07:47.402Z</time>
</trkpt>
<trkpt lat="31.7735700" lon="34.9651900">
<ele>286.169983</ele>
<time>2024-08-30T14:07:47.402Z</time>
</trkpt>
<trkpt lat="31.7735100" lon="34.9651600">
<ele>285.730011</ele>
<time>2024-08-30T14:07:47.402Z</time>
</trkpt>
<trkpt lat="31.7734000" lon="34.9651100">
<ele>285.190002</ele>
<time>2024-08-30T14:07:47.402Z</time>
</trkpt>
<trkpt lat="31.7732200" lon="34.9649600">
<ele>290.929993</ele>
<time>2024-08-30T14:07:47.402Z</time>
</trkpt>
<trkpt lat="31.7730100" lon="34.9649700">
<ele>298.600006</ele>
<time>2024-08-30T14:07:47.402Z</time>
</trkpt>
<trkpt lat="31.7728900" lon="34.9649300">
<ele>301.790009</ele>
<time>2024-08-30T14:07:47.402Z</time>
</trkpt>
<trkpt lat="31.7727400" lon="34.9649000">
<ele>304.540009</ele>
<time>2024-08-30T14:07:47.402Z</time>
</trkpt>
<trkpt lat="31.7727400" lon="34.9649000">
<ele>304.540009</ele>
<time>2024-08-30T14:07:47.402Z</time>
</trkpt>
<trkpt lat="31.7727400" lon="34.9649000">
<ele>304.540009</ele>
<time>2024-08-30T14:07:47.402Z</time>
</trkpt>
<trkpt lat="31.7727600" lon="34.9649000">
<ele>304.489990</ele>
<time>2024-08-30T14:07:47.402Z</time>
</trkpt>
<trkpt lat="31.7728900" lon="34.9649300">
<ele>301.790009</ele>
<time>2024-08-30T14:07:47.402Z</time>
</trkpt>
<trkpt lat="31.7724200" lon="34.9647700">
<ele>306.679993</ele>
<time>2024-08-30T14:07:47.402Z</time>
</trkpt>
<trkpt lat="31.7716200" lon="34.9643300">
<ele>311.919983</ele>
<time>2024-08-30T14:07:47.402Z</time>
</trkpt>
<trkpt lat="31.7712100" lon="34.9641100">
<ele>315.099976</ele>
<time>2024-08-30T14:07:47.402Z</time>
</trkpt>
<trkpt lat="31.7705600" lon="34.9640700">
<ele>312.770020</ele>
<time>2024-08-30T14:07:47.402Z</time>
</trkpt>
<trkpt lat="31.7702000" lon="34.9641600">
<ele>308.649994</ele>
<time>2024-08-30T14:07:47.402Z</time>
</trkpt>
<trkpt lat="31.7698200" lon="34.9644300">
<ele>308.420013</ele>
<time>2024-08-30T14:07:47.402Z</time>
</trkpt>
<trkpt lat="31.7698400" lon="34.9645400">
<ele>308.750000</ele>
<time>2024-08-30T14:07:47.402Z</time>
</trkpt>
<trkpt lat="31.7698800" lon="34.9646000">
<ele>309.199982</ele>
<time>2024-08-30T14:07:47.403Z</time>
</trkpt>
<trkpt lat="31.7699200" lon="34.9646500">
<ele>309.529999</ele>
<time>2024-08-30T14:07:47.403Z</time>
</trkpt>
<trkpt lat="31.7699600" lon="34.9646800">
<ele>309.819977</ele>
<time>2024-08-30T14:07:47.403Z</time>
</trkpt>
<trkpt lat="31.7700200" lon="34.9647200">
<ele>310.079987</ele>
<time>2024-08-30T14:07:47.403Z</time>
</trkpt>
<trkpt lat="31.7703400" lon="34.9648900">
<ele>316.100006</ele>
<time>2024-08-30T14:07:47.403Z</time>
</trkpt>
<trkpt lat="31.7705000" lon="34.9649500">
<ele>317.989990</ele>
<time>2024-08-30T14:07:47.403Z</time>
</trkpt>
<trkpt lat="31.7708300" lon="34.9650800">
<ele>325.859985</ele>
<time>2024-08-30T14:07:47.403Z</time>
</trkpt>
<trkpt lat="31.7710600" lon="34.9652200">
<ele>329.319977</ele>
<time>2024-08-30T14:07:47.403Z</time>
</trkpt>
<trkpt lat="31.7712000" lon="34.9653800">
<ele>329.190002</ele>
<time>2024-08-30T14:07:47.403Z</time>
</trkpt>
<trkpt lat="31.7712300" lon="34.9654300">
<ele>328.639984</ele>
<time>2024-08-30T14:07:47.403Z</time>
</trkpt>
<trkpt lat="31.7712300" lon="34.9654300">
<ele>328.639984</ele>
<time>2024-08-30T14:07:47.403Z</time>
</trkpt>
<trkpt lat="31.7712300" lon="34.9654300">
<ele>328.639984</ele>
<time>2024-08-30T14:07:47.403Z</time>
</trkpt>
<trkpt lat="31.7712500" lon="34.9654700">
<ele>328.150024</ele>
<time>2024-08-30T14:07:47.403Z</time>
</trkpt>
<trkpt lat="31.7713100" lon="34.9656100">
<ele>326.190002</ele>
<time>2024-08-30T14:07:47.403Z</time>
</trkpt>
<trkpt lat="31.7713200" lon="34.9657500">
<ele>325.629974</ele>
<time>2024-08-30T14:07:47.403Z</time>
</trkpt>
<trkpt lat="31.7713200" lon="34.9661300">
<ele>327.089996</ele>
<time>2024-08-30T14:07:47.403Z</time>
</trkpt>
<trkpt lat="31.7713000" lon="34.9662700">
<ele>328.179993</ele>
<time>2024-08-30T14:07:47.403Z</time>
</trkpt>
<trkpt lat="31.7709300" lon="34.9674800">
<ele>327.259979</ele>
<time>2024-08-30T14:07:47.403Z</time>
</trkpt>
<trkpt lat="31.7706100" lon="34.9683800">
<ele>336.600006</ele>
<time>2024-08-30T14:07:47.403Z</time>
</trkpt>
<trkpt lat="31.7703200" lon="34.9693900">
<ele>346.029999</ele>
<time>2024-08-30T14:07:47.403Z</time>
</trkpt>
<trkpt lat="31.7703000" lon="34.9695300">
<ele>346.519989</ele>
<time>2024-08-30T14:07:47.403Z</time>
</trkpt>
<trkpt lat="31.7703100" lon="34.9701200">
<ele>345.990021</ele>
<time>2024-08-30T14:07:47.403Z</time>
</trkpt>
<trkpt lat="31.7703300" lon="34.9703500">
<ele>343.670013</ele>
<time>2024-08-30T14:07:47.403Z</time>
</trkpt>
<trkpt lat="31.7703300" lon="34.9703500">
<ele>343.670013</ele>
<time>2024-08-30T14:07:47.404Z</time>
</trkpt>
<trkpt lat="31.7703300" lon="34.9703500">
<ele>343.670013</ele>
<time>2024-08-30T14:07:47.404Z</time>
</trkpt>
<trkpt lat="31.7703600" lon="34.9705600">
<ele>341.790009</ele>
<time>2024-08-30T14:07:47.404Z</time>
</trkpt>
<trkpt lat="31.7704300" lon="34.9708400">
<ele>342.209991</ele>
<time>2024-08-30T14:07:47.404Z</time>
</trkpt>
<trkpt lat="31.7704700" lon="34.9710000">
<ele>344.599976</ele>
<time>2024-08-30T14:07:47.404Z</time>
</trkpt>
<trkpt lat="31.7705400" lon="34.9710600">
<ele>344.120026</ele>
<time>2024-08-30T14:07:47.404Z</time>
</trkpt>
<trkpt lat="31.7706000" lon="34.9710900">
<ele>344.460022</ele>
<time>2024-08-30T14:07:47.404Z</time>
</trkpt>
<trkpt lat="31.7706800" lon="34.9710800">
<ele>344.169983</ele>
<time>2024-08-30T14:07:47.404Z</time>
</trkpt>
<trkpt lat="31.7707300" lon="34.9710400">
<ele>343.049988</ele>
<time>2024-08-30T14:07:47.404Z</time>
</trkpt>
<trkpt lat="31.7711000" lon="34.9707200">
<ele>339.350006</ele>
<time>2024-08-30T14:07:47.404Z</time>
</trkpt>
<trkpt lat="31.7712200" lon="34.9706200">
<ele>341.250031</ele>
<time>2024-08-30T14:07:47.404Z</time>
</trkpt>
<trkpt lat="31.7714100" lon="34.9704600">
<ele>345.539978</ele>
<time>2024-08-30T14:07:47.404Z</time>
</trkpt>
<trkpt lat="31.7715200" lon="34.9704500">
<ele>348.500000</ele>
<time>2024-08-30T14:07:47.404Z</time>
</trkpt>
<trkpt lat="31.7715900" lon="34.9704600">
<ele>350.730011</ele>
<time>2024-08-30T14:07:47.404Z</time>
</trkpt>
<trkpt lat="31.7716600" lon="34.9704900">
<ele>353.390015</ele>
<time>2024-08-30T14:07:47.404Z</time>
</trkpt>
<trkpt lat="31.7717100" lon="34.9705600">
<ele>355.690002</ele>
<time>2024-08-30T14:07:47.404Z</time>
</trkpt>
<trkpt lat="31.7718000" lon="34.9706700">
<ele>358.370026</ele>
<time>2024-08-30T14:07:47.404Z</time>
</trkpt>
<trkpt lat="31.7719800" lon="34.9712700">
<ele>364.649994</ele>
<time>2024-08-30T14:07:47.404Z</time>
</trkpt>
<trkpt lat="31.7720600" lon="34.9714700">
<ele>361.580017</ele>
<time>2024-08-30T14:07:47.404Z</time>
</trkpt>
<trkpt lat="31.7721400" lon="34.9716200">
<ele>360.059998</ele>
<time>2024-08-30T14:07:47.405Z</time>
</trkpt>
<trkpt lat="31.7724300" lon="34.9719800">
<ele>354.059998</ele>
<time>2024-08-30T14:07:47.405Z</time>
</trkpt>
<trkpt lat="31.7724300" lon="34.9719800">
<ele>354.059998</ele>
<time>2024-08-30T14:07:47.405Z</time>
</trkpt>
<trkpt lat="31.7724300" lon="34.9719800">
<ele>354.059998</ele>
<time>2024-08-30T14:07:47.405Z</time>
</trkpt>
<trkpt lat="31.7725100" lon="34.9720900">
<ele>351.600006</ele>
<time>2024-08-30T14:07:47.405Z</time>
</trkpt>
<trkpt lat="31.7725800" lon="34.9722300">
<ele>348.000000</ele>
<time>2024-08-30T14:07:47.405Z</time>
</trkpt>
<trkpt lat="31.7726300" lon="34.9724400">
<ele>347.459991</ele>
<time>2024-08-30T14:07:47.405Z</time>
</trkpt>
<trkpt lat="31.7726100" lon="34.9726000">
<ele>349.239990</ele>
<time>2024-08-30T14:07:47.405Z</time>
</trkpt>
<trkpt lat="31.7725500" lon="34.9727600">
<ele>352.080017</ele>
<time>2024-08-30T14:07:47.405Z</time>
</trkpt>
<trkpt lat="31.7724300" lon="34.9729900">
<ele>353.329987</ele>
<time>2024-08-30T14:07:47.405Z</time>
</trkpt>
<trkpt lat="31.7723500" lon="34.9731000">
<ele>354.170013</ele>
<time>2024-08-30T14:07:47.405Z</time>
</trkpt>
<trkpt lat="31.7722000" lon="34.9732500">
<ele>356.040009</ele>
<time>2024-08-30T14:07:47.405Z</time>
</trkpt>
<trkpt lat="31.7718100" lon="34.9736200">
<ele>363.519989</ele>
<time>2024-08-30T14:07:47.405Z</time>
</trkpt>
<trkpt lat="31.7716900" lon="34.9737600">
<ele>365.820007</ele>
<time>2024-08-30T14:07:47.405Z</time>
</trkpt>
<trkpt lat="31.7716100" lon="34.9739200">
<ele>368.739990</ele>
<time>2024-08-30T14:07:47.405Z</time>
</trkpt>
<trkpt lat="31.7715600" lon="34.9740600">
<ele>373.089996</ele>
<time>2024-08-30T14:07:47.405Z</time>
</trkpt>
<trkpt lat="31.7715400" lon="34.9742000">
<ele>377.309998</ele>
<time>2024-08-30T14:07:47.405Z</time>
</trkpt>
<trkpt lat="31.7715400" lon="34.9744900">
<ele>385.470001</ele>
<time>2024-08-30T14:07:47.405Z</time>
</trkpt>
<trkpt lat="31.7715700" lon="34.9746100">
<ele>385.440002</ele>
<time>2024-08-30T14:07:47.405Z</time>
</trkpt>
<trkpt lat="31.7716100" lon="34.9747300">
<ele>385.559967</ele>
<time>2024-08-30T14:07:47.405Z</time>
</trkpt>
<trkpt lat="31.7717500" lon="34.9749700">
<ele>385.340027</ele>
<time>2024-08-30T14:07:47.406Z</time>
</trkpt>
<trkpt lat="31.7722900" lon="34.9756200">
<ele>372.289978</ele>
<time>2024-08-30T14:07:47.406Z</time>
</trkpt>
<trkpt lat="31.7727000" lon="34.9762100">
<ele>376.170013</ele>
<time>2024-08-30T14:07:47.406Z</time>
</trkpt>
<trkpt lat="31.7727000" lon="34.9762100">
<ele>376.170013</ele>
<time>2024-08-30T14:07:47.406Z</time>
</trkpt>
<trkpt lat="31.7727000" lon="34.9762100">
<ele>376.170013</ele>
<time>2024-08-30T14:07:47.406Z</time>
</trkpt>
<trkpt lat="31.7727500" lon="34.9762700">
<ele>376.290009</ele>
<time>2024-08-30T14:07:47.406Z</time>
</trkpt>
<trkpt lat="31.7729400" lon="34.9765800">
<ele>376.740021</ele>
<time>2024-08-30T14:07:47.406Z</time>
</trkpt>
<trkpt lat="31.7729900" lon="34.9767100">
<ele>376.839996</ele>
<time>2024-08-30T14:07:47.406Z</time>
</trkpt>
<trkpt lat="31.7730400" lon="34.9770100">
<ele>371.829987</ele>
<time>2024-08-30T14:07:47.406Z</time>
</trkpt>
<trkpt lat="31.7730000" lon="34.9772400">
<ele>364.690002</ele>
<time>2024-08-30T14:07:47.406Z</time>
</trkpt>
<trkpt lat="31.7730000" lon="34.9774700">
<ele>360.720001</ele>
<time>2024-08-30T14:07:47.406Z</time>
</trkpt>
<trkpt lat="31.7729700" lon="34.9777300">
<ele>361.169983</ele>
<time>2024-08-30T14:07:47.406Z</time>
</trkpt>
<trkpt lat="31.7729700" lon="34.9779100">
<ele>361.529999</ele>
<time>2024-08-30T14:07:47.406Z</time>
</trkpt>
<trkpt lat="31.7730600" lon="34.9784100">
<ele>363.250000</ele>
<time>2024-08-30T14:07:47.406Z</time>
</trkpt>
<trkpt lat="31.7731200" lon="34.9786100">
<ele>363.989990</ele>
<time>2024-08-30T14:07:47.406Z</time>
</trkpt>
<trkpt lat="31.7732100" lon="34.9787700">
<ele>362.089996</ele>
<time>2024-08-30T14:07:47.406Z</time>
</trkpt>
<trkpt lat="31.7733800" lon="34.9790800">
<ele>363.389984</ele>
<time>2024-08-30T14:07:47.406Z</time>
</trkpt>
<trkpt lat="31.7734100" lon="34.9790900">
<ele>363.500000</ele>
<time>2024-08-30T14:07:47.406Z</time>
</trkpt>
<trkpt lat="31.7735000" lon="34.9791300">
<ele>364.100006</ele>
<time>2024-08-30T14:07:47.406Z</time>
</trkpt>
<trkpt lat="31.7736000" lon="34.9791300">
<ele>364.320007</ele>
<time>2024-08-30T14:07:47.407Z</time>
</trkpt>
<trkpt lat="31.7737400" lon="34.9791200">
<ele>364.859985</ele>
<time>2024-08-30T14:07:47.407Z</time>
</trkpt>
<trkpt lat="31.7738800" lon="34.9790500">
<ele>365.090027</ele>
<time>2024-08-30T14:07:47.407Z</time>
</trkpt>
<trkpt lat="31.7739400" lon="34.9789900">
<ele>365.359985</ele>
<time>2024-08-30T14:07:47.407Z</time>
</trkpt>
<trkpt lat="31.7740200" lon="34.9789000">
<ele>365.099976</ele>
<time>2024-08-30T14:07:47.407Z</time>
</trkpt>
<trkpt lat="31.7740800" lon="34.9787400">
<ele>364.509979</ele>
<time>2024-08-30T14:07:47.407Z</time>
</trkpt>
<trkpt lat="31.7742100" lon="34.9784400">
<ele>363.250000</ele>
<time>2024-08-30T14:07:47.407Z</time>
</trkpt>
<trkpt lat="31.7744500" lon="34.9782200">
<ele>366.440002</ele>
<time>2024-08-30T14:07:47.407Z</time>
</trkpt>
<trkpt lat="31.7748100" lon="34.9781900">
<ele>377.089996</ele>
<time>2024-08-30T14:07:47.407Z</time>
</trkpt>
<trkpt lat="31.7749700" lon="34.9782300">
<ele>380.489990</ele>
<time>2024-08-30T14:07:47.407Z</time>
</trkpt>
<trkpt lat="31.7749700" lon="34.9782300">
<ele>380.489990</ele>
<time>2024-08-30T14:07:47.407Z</time>
</trkpt>
<trkpt lat="31.7749700" lon="34.9782300">
<ele>380.489990</ele>
<time>2024-08-30T14:07:47.407Z</time>
</trkpt>
<trkpt lat="31.7755000" lon="34.9783700">
<ele>383.750000</ele>
<time>2024-08-30T14:07:47.407Z</time>
</trkpt>
<trkpt lat="31.7758100" lon="34.9784200">
<ele>388.210022</ele>
<time>2024-08-30T14:07:47.407Z</time>
</trkpt>
<trkpt lat="31.7759400" lon="34.9782500">
<ele>388.529999</ele>
<time>2024-08-30T14:07:47.407Z</time>
</trkpt>
<trkpt lat="31.7763500" lon="34.9773300">
<ele>377.389984</ele>
<time>2024-08-30T14:07:47.407Z</time>
</trkpt>
<trkpt lat="31.7764300" lon="34.9772000">
<ele>378.040009</ele>
<time>2024-08-30T14:07:47.407Z</time>
</trkpt>
<trkpt lat="31.7764300" lon="34.9772000">
<ele>378.040009</ele>
<time>2024-08-30T14:07:47.407Z</time>
</trkpt>
<trkpt lat="31.7761200" lon="34.9768600">
<ele>379.190002</ele>
<time>2024-08-30T14:07:47.407Z</time>
</trkpt>
<trkpt lat="31.7759300" lon="34.9766600">
<ele>384.549988</ele>
<time>2024-08-30T14:07:47.408Z</time>
</trkpt>
<trkpt lat="31.7757900" lon="34.9764900">
<ele>384.260010</ele>
<time>2024-08-30T14:07:47.408Z</time>
</trkpt>
<trkpt lat="31.7756500" lon="34.9762700">
<ele>380.019989</ele>
<time>2024-08-30T14:07:47.408Z</time>
</trkpt>
<trkpt lat="31.7755800" lon="34.9761000">
<ele>377.080017</ele>
<time>2024-08-30T14:07:47.408Z</time>
</trkpt>
<trkpt lat="31.7755400" lon="34.9759700">
<ele>376.750000</ele>
<time>2024-08-30T14:07:47.408Z</time>
</trkpt>
<trkpt lat="31.7755300" lon="34.9758400">
<ele>376.630005</ele>
<time>2024-08-30T14:07:47.408Z</time>
</trkpt>
<trkpt lat="31.7755500" lon="34.9756600">
<ele>375.660004</ele>
<time>2024-08-30T14:07:47.408Z</time>
</trkpt>
<trkpt lat="31.7756000" lon="34.9754900">
<ele>373.029999</ele>
<time>2024-08-30T14:07:47.408Z</time>
</trkpt>
<trkpt lat="31.7758400" lon="34.9748700">
<ele>365.449982</ele>
<time>2024-08-30T14:07:47.408Z</time>
</trkpt>
<trkpt lat="31.7759400" lon="34.9746800">
<ele>367.690002</ele>
<time>2024-08-30T14:07:47.408Z</time>
</trkpt>
<trkpt lat="31.7759000" lon="34.9744800">
<ele>368.980011</ele>
<time>2024-08-30T14:07:47.408Z</time>
</trkpt>
<trkpt lat="31.7758400" lon="34.9743200">
<ele>371.229980</ele>
<time>2024-08-30T14:07:47.408Z</time>
</trkpt>
<trkpt lat="31.7756600" lon="34.9741100">
<ele>372.779999</ele>
<time>2024-08-30T14:07:47.408Z</time>
</trkpt>
<trkpt lat="31.7753600" lon="34.9738000">
<ele>373.959991</ele>
<time>2024-08-30T14:07:47.408Z</time>
</trkpt>
<trkpt lat="31.7752900" lon="34.9736900">
<ele>372.490021</ele>
<time>2024-08-30T14:07:47.408Z</time>
</trkpt>
<trkpt lat="31.7752400" lon="34.9735700">
<ele>371.149994</ele>
<time>2024-08-30T14:07:47.408Z</time>
</trkpt>
<trkpt lat="31.7752000" lon="34.9734000">
<ele>368.880005</ele>
<time>2024-08-30T14:07:47.408Z</time>
</trkpt>
<trkpt lat="31.7751900" lon="34.9732600">
<ele>366.829987</ele>
<time>2024-08-30T14:07:47.408Z</time>
</trkpt>
<trkpt lat="31.7752100" lon="34.9731100">
<ele>364.660004</ele>
<time>2024-08-30T14:07:47.408Z</time>
</trkpt>
<trkpt lat="31.7754300" lon="34.9724700">
<ele>360.170013</ele>
<time>2024-08-30T14:07:47.408Z</time>
</trkpt>
<trkpt lat="31.7754600" lon="34.9722900">
<ele>361.039978</ele>
<time>2024-08-30T14:07:47.409Z</time>
</trkpt>
<trkpt lat="31.7754800" lon="34.9721200">
<ele>362.310028</ele>
<time>2024-08-30T14:07:47.409Z</time>
</trkpt>
<trkpt lat="31.7754700" lon="34.9717400">
<ele>364.859985</ele>
<time>2024-08-30T14:07:47.409Z</time>
</trkpt>
<trkpt lat="31.7754700" lon="34.9717400">
<ele>364.859985</ele>
<time>2024-08-30T14:07:47.409Z</time>
</trkpt>
<trkpt lat="31.7754700" lon="34.9717400">
<ele>364.859985</ele>
<time>2024-08-30T14:07:47.409Z</time>
</trkpt>
<trkpt lat="31.7754700" lon="34.9717400">
<ele>364.859985</ele>
<time>2024-08-30T14:07:47.409Z</time>
</trkpt>
<trkpt lat="31.7754700" lon="34.9712900">
<ele>362.539978</ele>
<time>2024-08-30T14:07:47.409Z</time>
</trkpt>
<trkpt lat="31.7754900" lon="34.9711700">
<ele>361.049988</ele>
<time>2024-08-30T14:07:47.409Z</time>
</trkpt>
<trkpt lat="31.7755200" lon="34.9710300">
<ele>358.670013</ele>
<time>2024-08-30T14:07:47.409Z</time>
</trkpt>
<trkpt lat="31.7755800" lon="34.9709200">
<ele>356.180023</ele>
<time>2024-08-30T14:07:47.409Z</time>
</trkpt>
<trkpt lat="31.7756400" lon="34.9708600">
<ele>354.229980</ele>
<time>2024-08-30T14:07:47.409Z</time>
</trkpt>
<trkpt lat="31.7757900" lon="34.9708000">
<ele>351.449982</ele>
<time>2024-08-30T14:07:47.409Z</time>
</trkpt>
<trkpt lat="31.7761800" lon="34.9707400">
<ele>346.410004</ele>
<time>2024-08-30T14:07:47.409Z</time>
</trkpt>
<trkpt lat="31.7764000" lon="34.9706900">
<ele>347.119995</ele>
<time>2024-08-30T14:07:47.409Z</time>
</trkpt>
<trkpt lat="31.7767100" lon="34.9705900">
<ele>350.339996</ele>
<time>2024-08-30T14:07:47.409Z</time>
</trkpt>
<trkpt lat="31.7768000" lon="34.9705400">
<ele>351.260010</ele>
<time>2024-08-30T14:07:47.409Z</time>
</trkpt>
<trkpt lat="31.7769100" lon="34.9704100">
<ele>352.660004</ele>
<time>2024-08-30T14:07:47.409Z</time>
</trkpt>
<trkpt lat="31.7769500" lon="34.9703400">
<ele>353.380005</ele>
<time>2024-08-30T14:07:47.409Z</time>
</trkpt>
<trkpt lat="31.7769700" lon="34.9702500">
<ele>353.920013</ele>
<time>2024-08-30T14:07:47.409Z</time>
</trkpt>
<trkpt lat="31.7769900" lon="34.9700500">
<ele>355.679993</ele>
<time>2024-08-30T14:07:47.410Z</time>
</trkpt>
<trkpt lat="31.7768900" lon="34.9692500">
<ele>358.049988</ele>
<time>2024-08-30T14:07:47.410Z</time>
</trkpt>
<trkpt lat="31.7768600" lon="34.9688100">
<ele>358.760010</ele>
<time>2024-08-30T14:07:47.410Z</time>
</trkpt>
<trkpt lat="31.7768100" lon="34.9685900">
<ele>358.700012</ele>
<time>2024-08-30T14:07:47.410Z</time>
</trkpt>
<trkpt lat="31.7766800" lon="34.9683200">
<ele>362.950012</ele>
<time>2024-08-30T14:07:47.410Z</time>
</trkpt>
<trkpt lat="31.7765800" lon="34.9681700">
<ele>364.929993</ele>
<time>2024-08-30T14:07:47.410Z</time>
</trkpt>
<trkpt lat="31.7762600" lon="34.9677900">
<ele>371.829987</ele>
<time>2024-08-30T14:07:47.410Z</time>
</trkpt>
<trkpt lat="31.7759500" lon="34.9674800">
<ele>365.959991</ele>
<time>2024-08-30T14:07:47.410Z</time>
</trkpt>
<trkpt lat="31.7758800" lon="34.9673900">
<ele>362.099976</ele>
<time>2024-08-30T14:07:47.410Z</time>
</trkpt>
<trkpt lat="31.7758200" lon="34.9672500">
<ele>357.519989</ele>
<time>2024-08-30T14:07:47.410Z</time>
</trkpt>
<trkpt lat="31.7758000" lon="34.9671500">
<ele>356.089996</ele>
<time>2024-08-30T14:07:47.410Z</time>
</trkpt>
<trkpt lat="31.7758100" lon="34.9670700">
<ele>355.609985</ele>
<time>2024-08-30T14:07:47.410Z</time>
</trkpt>
<trkpt lat="31.7758600" lon="34.9669600">
<ele>354.679993</ele>
<time>2024-08-30T14:07:47.410Z</time>
</trkpt>
<trkpt lat="31.7759100" lon="34.9668900">
<ele>352.320007</ele>
<time>2024-08-30T14:07:47.410Z</time>
</trkpt>
<trkpt lat="31.7760000" lon="34.9668000">
<ele>349.399994</ele>
<time>2024-08-30T14:07:47.410Z</time>
</trkpt>
<trkpt lat="31.7760800" lon="34.9667700">
<ele>348.319977</ele>
<time>2024-08-30T14:07:47.410Z</time>
</trkpt>
<trkpt lat="31.7762100" lon="34.9667600">
<ele>347.299988</ele>
<time>2024-08-30T14:07:47.410Z</time>
</trkpt>
<trkpt lat="31.7767200" lon="34.9668600">
<ele>342.089996</ele>
<time>2024-08-30T14:07:47.410Z</time>
</trkpt>
<trkpt lat="31.7770200" lon="34.9668900">
<ele>339.280029</ele>
<time>2024-08-30T14:07:47.410Z</time>
</trkpt>
<trkpt lat="31.7771200" lon="34.9668800">
<ele>338.340027</ele>
<time>2024-08-30T14:07:47.410Z</time>
</trkpt>
<trkpt lat="31.7774000" lon="34.9667900">
<ele>336.589996</ele>
<time>2024-08-30T14:07:47.410Z</time>
</trkpt>
<trkpt lat="31.7774000" lon="34.9667900">
<ele>336.589996</ele>
<time>2024-08-30T14:07:47.410Z</time>
</trkpt>
<trkpt lat="31.7774000" lon="34.9667900">
<ele>336.589996</ele>
<time>2024-08-30T14:07:47.410Z</time>
</trkpt>
<trkpt lat="31.7774700" lon="34.9667700">
<ele>336.459991</ele>
<time>2024-08-30T14:07:47.410Z</time>
</trkpt>
<trkpt lat="31.7779700" lon="34.9665300">
<ele>339.140015</ele>
<time>2024-08-30T14:07:47.411Z</time>
</trkpt>
<trkpt lat="31.7781500" lon="34.9665000">
<ele>339.250000</ele>
<time>2024-08-30T14:07:47.411Z</time>
</trkpt>
<trkpt lat="31.7782200" lon="34.9662400">
<ele>337.380005</ele>
<time>2024-08-30T14:07:47.411Z</time>
</trkpt>
<trkpt lat="31.7782400" lon="34.9660300">
<ele>337.579987</ele>
<time>2024-08-30T14:07:47.411Z</time>
</trkpt>
<trkpt lat="31.7782700" lon="34.9657100">
<ele>342.020020</ele>
<time>2024-08-30T14:07:47.411Z</time>
</trkpt>
<trkpt lat="31.7784700" lon="34.9648500">
<ele>352.019989</ele>
<time>2024-08-30T14:07:47.411Z</time>
</trkpt>
<trkpt lat="31.7784900" lon="34.9644100">
<ele>351.549988</ele>
<time>2024-08-30T14:07:47.411Z</time>
</trkpt>
<trkpt lat="31.7784500" lon="34.9642400">
<ele>350.639984</ele>
<time>2024-08-30T14:07:47.411Z</time>
</trkpt>
<trkpt lat="31.7784600" lon="34.9641600">
<ele>350.419983</ele>
<time>2024-08-30T14:07:47.411Z</time>
</trkpt>
<trkpt lat="31.7785500" lon="34.9638700">
<ele>348.899994</ele>
<time>2024-08-30T14:07:47.411Z</time>
</trkpt>
<trkpt lat="31.7785800" lon="34.9637200">
<ele>348.260010</ele>
<time>2024-08-30T14:07:47.411Z</time>
</trkpt>
<trkpt lat="31.7785500" lon="34.9633300">
<ele>343.839996</ele>
<time>2024-08-30T14:07:47.411Z</time>
</trkpt>
<trkpt lat="31.7785700" lon="34.9632600">
<ele>342.899994</ele>
<time>2024-08-30T14:07:47.411Z</time>
</trkpt>
<trkpt lat="31.7786300" lon="34.9631700">
<ele>341.949982</ele>
<time>2024-08-30T14:07:47.411Z</time>
</trkpt>
<trkpt lat="31.7789000" lon="34.9630200">
<ele>339.490021</ele>
<time>2024-08-30T14:07:47.411Z</time>
</trkpt>
<trkpt lat="31.7789500" lon="34.9629900">
<ele>338.720001</ele>
<time>2024-08-30T14:07:47.411Z</time>
</trkpt>
<trkpt lat="31.7790200" lon="34.9629400">
<ele>338.040009</ele>
<time>2024-08-30T14:07:47.411Z</time>
</trkpt>
<trkpt lat="31.7791000" lon="34.9628300">
<ele>338.230011</ele>
<time>2024-08-30T14:07:47.411Z</time>
</trkpt>
<trkpt lat="31.7792300" lon="34.9626000">
<ele>339.450012</ele>
<time>2024-08-30T14:07:47.411Z</time>
</trkpt>
<trkpt lat="31.7792700" lon="34.9624700">
<ele>339.960022</ele>
<time>2024-08-30T14:07:47.411Z</time>
</trkpt>
<trkpt lat="31.7794000" lon="34.9618900">
<ele>335.600006</ele>
<time>2024-08-30T14:07:47.411Z</time>
</trkpt>
<trkpt lat="31.7794700" lon="34.9617500">
<ele>333.440002</ele>
<time>2024-08-30T14:07:47.411Z</time>
</trkpt>
<trkpt lat="31.7795800" lon="34.9616800">
<ele>332.190002</ele>
<time>2024-08-30T14:07:47.411Z</time>
</trkpt>
<trkpt lat="31.7798300" lon="34.9615900">
<ele>332.119995</ele>
<time>2024-08-30T14:07:47.411Z</time>
</trkpt>
<trkpt lat="31.7799600" lon="34.9615000">
<ele>332.000000</ele>
<time>2024-08-30T14:07:47.411Z</time>
</trkpt>
<trkpt lat="31.7802200" lon="34.9612100">
<ele>330.330017</ele>
<time>2024-08-30T14:07:47.411Z</time>
</trkpt>
<trkpt lat="31.7803100" lon="34.9610800">
<ele>330.949982</ele>
<time>2024-08-30T14:07:47.412Z</time>
</trkpt>
<trkpt lat="31.7803100" lon="34.9610800">
<ele>330.949982</ele>
<time>2024-08-30T14:07:47.412Z</time>
</trkpt>
<trkpt lat="31.7803100" lon="34.9610800">
<ele>330.949982</ele>
<time>2024-08-30T14:07:47.412Z</time>
</trkpt>
<trkpt lat="31.7805500" lon="34.9605300">
<ele>332.680023</ele>
<time>2024-08-30T14:07:47.412Z</time>
</trkpt>
<trkpt lat="31.7805900" lon="34.9603700">
<ele>331.619995</ele>
<time>2024-08-30T14:07:47.412Z</time>
</trkpt>
<trkpt lat="31.7806000" lon="34.9601500">
<ele>329.850006</ele>
<time>2024-08-30T14:07:47.412Z</time>
</trkpt>
<trkpt lat="31.7806900" lon="34.9598900">
<ele>327.580017</ele>
<time>2024-08-30T14:07:47.412Z</time>
</trkpt>
<trkpt lat="31.7807400" lon="34.9596600">
<ele>325.320007</ele>
<time>2024-08-30T14:07:47.412Z</time>
</trkpt>
<trkpt lat="31.7808500" lon="34.9594400">
<ele>323.799988</ele>
<time>2024-08-30T14:07:47.412Z</time>
</trkpt>
<trkpt lat="31.7809300" lon="34.9592200">
<ele>320.669983</ele>
<time>2024-08-30T14:07:47.412Z</time>
</trkpt>
<trkpt lat="31.7810200" lon="34.9590600">
<ele>319.480011</ele>
<time>2024-08-30T14:07:47.412Z</time>
</trkpt>
<trkpt lat="31.7813000" lon="34.9586500">
<ele>315.640015</ele>
<time>2024-08-30T14:07:47.412Z</time>
</trkpt>
<trkpt lat="31.7814300" lon="34.9585000">
<ele>312.189972</ele>
<time>2024-08-30T14:07:47.412Z</time>
</trkpt>
<trkpt lat="31.7815600" lon="34.9584100">
<ele>309.419983</ele>
<time>2024-08-30T14:07:47.412Z</time>
</trkpt>
<trkpt lat="31.7818300" lon="34.9583500">
<ele>309.819977</ele>
<time>2024-08-30T14:07:47.412Z</time>
</trkpt>
<trkpt lat="31.7820200" lon="34.9582800">
<ele>311.239990</ele>
<time>2024-08-30T14:07:47.412Z</time>
</trkpt>
<trkpt lat="31.7821100" lon="34.9582300">
<ele>311.589996</ele>
<time>2024-08-30T14:07:47.412Z</time>
</trkpt>
<trkpt lat="31.7822400" lon="34.9581100">
<ele>312.390015</ele>
<time>2024-08-30T14:07:47.412Z</time>
</trkpt>
<trkpt lat="31.7823600" lon="34.9580400">
<ele>311.459991</ele>
<time>2024-08-30T14:07:47.412Z</time>
</trkpt>
<trkpt lat="31.7825600" lon="34.9579700">
<ele>309.089996</ele>
<time>2024-08-30T14:07:47.412Z</time>
</trkpt>
<trkpt lat="31.7826700" lon="34.9579500">
<ele>306.850006</ele>
<time>2024-08-30T14:07:47.412Z</time>
</trkpt>
<trkpt lat="31.7829200" lon="34.9579700">
<ele>301.420013</ele>
<time>2024-08-30T14:07:47.412Z</time>
</trkpt>
<trkpt lat="31.7830600" lon="34.9579400">
<ele>298.309998</ele>
<time>2024-08-30T14:07:47.413Z</time>
</trkpt>
<trkpt lat="31.7832200" lon="34.9578500">
<ele>294.029999</ele>
<time>2024-08-30T14:07:47.413Z</time>
</trkpt>
<trkpt lat="31.7832700" lon="34.9577900">
<ele>292.139984</ele>
<time>2024-08-30T14:07:47.413Z</time>
</trkpt>
<trkpt lat="31.7833100" lon="34.9577300">
<ele>290.000000</ele>
<time>2024-08-30T14:07:47.413Z</time>
</trkpt>
<trkpt lat="31.7833400" lon="34.9576500">
<ele>288.209991</ele>
<time>2024-08-30T14:07:47.413Z</time>
</trkpt>
<trkpt lat="31.7833700" lon="34.9575000">
<ele>286.260010</ele>
<time>2024-08-30T14:07:47.413Z</time>
</trkpt>
<trkpt lat="31.7834300" lon="34.9574100">
<ele>286.919983</ele>
<time>2024-08-30T14:07:47.413Z</time>
</trkpt>
<trkpt lat="31.7834700" lon="34.9573800">
<ele>287.410004</ele>
<time>2024-08-30T14:07:47.413Z</time>
</trkpt>
<trkpt lat="31.7838800" lon="34.9572700">
<ele>289.320007</ele>
<time>2024-08-30T14:07:47.413Z</time>
</trkpt>
<trkpt lat="31.7843700" lon="34.9571000">
<ele>285.220001</ele>
<time>2024-08-30T14:07:47.413Z</time>
</trkpt>
<trkpt lat="31.7845100" lon="34.9570400">
<ele>285.050018</ele>
<time>2024-08-30T14:07:47.413Z</time>
</trkpt>
<trkpt lat="31.7846300" lon="34.9569700">
<ele>285.790009</ele>
<time>2024-08-30T14:07:47.413Z</time>
</trkpt>
<trkpt lat="31.7850300" lon="34.9566500">
<ele>284.839996</ele>
<time>2024-08-30T14:07:47.413Z</time>
</trkpt>
<trkpt lat="31.7854900" lon="34.9562300">
<ele>290.649994</ele>
<time>2024-08-30T14:07:47.413Z</time>
</trkpt>
<trkpt lat="31.7854900" lon="34.9562300">
<ele>290.649994</ele>
<time>2024-08-30T14:07:47.413Z</time>
</trkpt>
<trkpt lat="31.7854900" lon="34.9562300">
<ele>290.649994</ele>
<time>2024-08-30T14:07:47.413Z</time>
</trkpt>
<trkpt lat="31.7856000" lon="34.9561300">
<ele>291.170013</ele>
<time>2024-08-30T14:07:47.413Z</time>
</trkpt>
<trkpt lat="31.7857200" lon="34.9560500">
<ele>290.529999</ele>
<time>2024-08-30T14:07:47.413Z</time>
</trkpt>
<trkpt lat="31.7860000" lon="34.9559200">
<ele>291.500000</ele>
<time>2024-08-30T14:07:47.413Z</time>
</trkpt>
<trkpt lat="31.7862200" lon="34.9557000">
<ele>290.380005</ele>
<time>2024-08-30T14:07:47.413Z</time>
</trkpt>
<trkpt lat="31.7864400" lon="34.9555700">
<ele>288.500000</ele>
<time>2024-08-30T14:07:47.413Z</time>
</trkpt>
<trkpt lat="31.7867200" lon="34.9554900">
<ele>283.299988</ele>
<time>2024-08-30T14:07:47.413Z</time>
</trkpt>
<trkpt lat="31.7873600" lon="34.9553700">
<ele>272.179993</ele>
<time>2024-08-30T14:07:47.413Z</time>
</trkpt>
<trkpt lat="31.7877800" lon="34.9552300">
<ele>272.059998</ele>
<time>2024-08-30T14:07:47.414Z</time>
</trkpt>
<trkpt lat="31.7878800" lon="34.9552000">
<ele>274.630005</ele>
<time>2024-08-30T14:07:47.414Z</time>
</trkpt>
<trkpt lat="31.7879700" lon="34.9551800">
<ele>276.809998</ele>
<time>2024-08-30T14:07:47.414Z</time>
</trkpt>
<trkpt lat="31.7880100" lon="34.9551800">
<ele>277.809998</ele>
<time>2024-08-30T14:07:47.414Z</time>
</trkpt>
<trkpt lat="31.7881000" lon="34.9551900">
<ele>278.239990</ele>
<time>2024-08-30T14:07:47.414Z</time>
</trkpt>
<trkpt lat="31.7882100" lon="34.9553100">
<ele>276.570007</ele>
<time>2024-08-30T14:07:47.414Z</time>
</trkpt>
<trkpt lat="31.7881600" lon="34.9554100">
<ele>277.029999</ele>
<time>2024-08-30T14:07:47.414Z</time>
</trkpt>
<trkpt lat="31.7880900" lon="34.9555000">
<ele>277.250000</ele>
<time>2024-08-30T14:07:47.414Z</time>
</trkpt>
<trkpt lat="31.7879000" lon="34.9556400">
<ele>274.050018</ele>
<time>2024-08-30T14:07:47.414Z</time>
</trkpt>
<trkpt lat="31.7877000" lon="34.9558400">
<ele>273.000000</ele>
<time>2024-08-30T14:07:47.414Z</time>
</trkpt>
<trkpt lat="31.7876200" lon="34.9558900">
<ele>272.989990</ele>
<time>2024-08-30T14:07:47.414Z</time>
</trkpt>
<trkpt lat="31.7874300" lon="34.9560200">
<ele>270.290009</ele>
<time>2024-08-30T14:07:47.414Z</time>
</trkpt>
<trkpt lat="31.7872200" lon="34.9561400">
<ele>267.619995</ele>
<time>2024-08-30T14:07:47.414Z</time>
</trkpt>
<trkpt lat="31.7867800" lon="34.9563500">
<ele>274.110016</ele>
<time>2024-08-30T14:07:47.414Z</time>
</trkpt>
<trkpt lat="31.7866600" lon="34.9564200">
<ele>276.589996</ele>
<time>2024-08-30T14:07:47.414Z</time>
</trkpt>
<trkpt lat="31.7865200" lon="34.9565200">
<ele>275.169983</ele>
<time>2024-08-30T14:07:47.414Z</time>
</trkpt>
<trkpt lat="31.7863100" lon="34.9567700">
<ele>271.000000</ele>
<time>2024-08-30T14:07:47.414Z</time>
</trkpt>
<trkpt lat="31.7861900" lon="34.9568900">
<ele>270.929993</ele>
<time>2024-08-30T14:07:47.414Z</time>
</trkpt>
<trkpt lat="31.7860600" lon="34.9570000">
<ele>270.589996</ele>
<time>2024-08-30T14:07:47.414Z</time>
</trkpt>
<trkpt lat="31.7858200" lon="34.9571700">
<ele>270.790009</ele>
<time>2024-08-30T14:07:47.414Z</time>
</trkpt>
<trkpt lat="31.7853400" lon="34.9576300">
<ele>267.510010</ele>
<time>2024-08-30T14:07:47.415Z</time>
</trkpt>
<trkpt lat="31.7850000" lon="34.9579200">
<ele>265.980011</ele>
<time>2024-08-30T14:07:47.415Z</time>
</trkpt>
<trkpt lat="31.7846300" lon="34.9582700">
<ele>268.429993</ele>
<time>2024-08-30T14:07:47.415Z</time>
</trkpt>
<trkpt lat="31.7842800" lon="34.9586400">
<ele>267.920013</ele>
<time>2024-08-30T14:07:47.415Z</time>
</trkpt>
<trkpt lat="31.7840100" lon="34.9589000">
<ele>266.770020</ele>
<time>2024-08-30T14:07:47.415Z</time>
</trkpt>
<trkpt lat="31.7834500" lon="34.9592200">
<ele>263.419983</ele>
<time>2024-08-30T14:07:47.415Z</time>
</trkpt>
<trkpt lat="31.7830000" lon="34.9594300">
<ele>270.230011</ele>
<time>2024-08-30T14:07:47.415Z</time>
</trkpt>
<trkpt lat="31.7830000" lon="34.9594300">
<ele>270.230011</ele>
<time>2024-08-30T14:07:47.415Z</time>
</trkpt>
<trkpt lat="31.7830000" lon="34.9594300">
<ele>270.230011</ele>
<time>2024-08-30T14:07:47.415Z</time>
</trkpt>
<trkpt lat="31.7829600" lon="34.9594500">
<ele>271.239990</ele>
<time>2024-08-30T14:07:47.415Z</time>
</trkpt>
<trkpt lat="31.7828100" lon="34.9596000">
<ele>279.339996</ele>
<time>2024-08-30T14:07:47.415Z</time>
</trkpt>
<trkpt lat="31.7826900" lon="34.9597200">
<ele>286.160004</ele>
<time>2024-08-30T14:07:47.415Z</time>
</trkpt>
<trkpt lat="31.7826200" lon="34.9598500">
<ele>288.170013</ele>
<time>2024-08-30T14:07:47.415Z</time>
</trkpt>
<trkpt lat="31.7826600" lon="34.9599600">
<ele>287.459991</ele>
<time>2024-08-30T14:07:47.415Z</time>
</trkpt>
<trkpt lat="31.7827300" lon="34.9600800">
<ele>285.929993</ele>
<time>2024-08-30T14:07:47.415Z</time>
</trkpt>
<trkpt lat="31.7827600" lon="34.9601600">
<ele>285.309998</ele>
<time>2024-08-30T14:07:47.415Z</time>
</trkpt>
<trkpt lat="31.7827700" lon="34.9602700">
<ele>285.110016</ele>
<time>2024-08-30T14:07:47.415Z</time>
</trkpt>
<trkpt lat="31.7827400" lon="34.9603900">
<ele>284.679993</ele>
<time>2024-08-30T14:07:47.415Z</time>
</trkpt>
<trkpt lat="31.7826900" lon="34.9605200">
<ele>284.240021</ele>
<time>2024-08-30T14:07:47.416Z</time>
</trkpt>
<trkpt lat="31.7825800" lon="34.9610500">
<ele>280.440002</ele>
<time>2024-08-30T14:07:47.416Z</time>
</trkpt>
<trkpt lat="31.7825500" lon="34.9612500">
<ele>281.089996</ele>
<time>2024-08-30T14:07:47.416Z</time>
</trkpt>
<trkpt lat="31.7822800" lon="34.9619800">
<ele>283.609985</ele>
<time>2024-08-30T14:07:47.416Z</time>
</trkpt>
<trkpt lat="31.7819500" lon="34.9627600">
<ele>281.190002</ele>
<time>2024-08-30T14:07:47.416Z</time>
</trkpt>
<trkpt lat="31.7817500" lon="34.9631700">
<ele>280.559998</ele>
<time>2024-08-30T14:07:47.416Z</time>
</trkpt>
<trkpt lat="31.7816200" lon="34.9635400">
<ele>281.709991</ele>
<time>2024-08-30T14:07:47.416Z</time>
</trkpt>
<trkpt lat="31.7814000" lon="34.9639500">
<ele>282.449982</ele>
<time>2024-08-30T14:07:47.416Z</time>
</trkpt>
<trkpt lat="31.7811000" lon="34.9642900">
<ele>282.250000</ele>
<time>2024-08-30T14:07:47.416Z</time>
</trkpt>
<trkpt lat="31.7810100" lon="34.9644200">
<ele>282.299988</ele>
<time>2024-08-30T14:07:47.416Z</time>
</trkpt>
<trkpt lat="31.7809700" lon="34.9645300">
<ele>283.899994</ele>
<time>2024-08-30T14:07:47.416Z</time>
</trkpt>
<trkpt lat="31.7809400" lon="34.9646300">
<ele>285.619995</ele>
<time>2024-08-30T14:07:47.416Z</time>
</trkpt>
<trkpt lat="31.7808900" lon="34.9647100">
<ele>286.839996</ele>
<time>2024-08-30T14:07:47.416Z</time>
</trkpt>
<trkpt lat="31.7808000" lon="34.9647600">
<ele>287.089996</ele>
<time>2024-08-30T14:07:47.416Z</time>
</trkpt>
<trkpt lat="31.7805900" lon="34.9649100">
<ele>284.320007</ele>
<time>2024-08-30T14:07:47.416Z</time>
</trkpt>
<trkpt lat="31.7804700" lon="34.9650100">
<ele>282.429993</ele>
<time>2024-08-30T14:07:47.416Z</time>
</trkpt>
<trkpt lat="31.7803200" lon="34.9651800">
<ele>282.500000</ele>
<time>2024-08-30T14:07:47.416Z</time>
</trkpt>
<trkpt lat="31.7801400" lon="34.9654000">
<ele>288.220001</ele>
<time>2024-08-30T14:07:47.416Z</time>
</trkpt>
<trkpt lat="31.7800600" lon="34.9655400">
<ele>294.720001</ele>
<time>2024-08-30T14:07:47.416Z</time>
</trkpt>
<trkpt lat="31.7799800" lon="34.9657300">
<ele>297.369995</ele>
<time>2024-08-30T14:07:47.417Z</time>
</trkpt>
<trkpt lat="31.7796400" lon="34.9662800">
<ele>307.229980</ele>
<time>2024-08-30T14:07:47.417Z</time>
</trkpt>
<trkpt lat="31.7794900" lon="34.9665700">
<ele>305.679993</ele>
<time>2024-08-30T14:07:47.417Z</time>
</trkpt>
<trkpt lat="31.7794200" lon="34.9667800">
<ele>304.720001</ele>
<time>2024-08-30T14:07:47.417Z</time>
</trkpt>
<trkpt lat="31.7793500" lon="34.9671000">
<ele>306.880005</ele>
<time>2024-08-30T14:07:47.417Z</time>
</trkpt>
<trkpt lat="31.7792900" lon="34.9674500">
<ele>315.699982</ele>
<time>2024-08-30T14:07:47.417Z</time>
</trkpt>
<trkpt lat="31.7792400" lon="34.9676800">
<ele>323.420013</ele>
<time>2024-08-30T14:07:47.417Z</time>
</trkpt>
<trkpt lat="31.7792300" lon="34.9679400">
<ele>335.559998</ele>
<time>2024-08-30T14:07:47.417Z</time>
</trkpt>
<trkpt lat="31.7792400" lon="34.9682000">
<ele>345.660004</ele>
<time>2024-08-30T14:07:47.417Z</time>
</trkpt>
<trkpt lat="31.7792400" lon="34.9683400">
<ele>349.489990</ele>
<time>2024-08-30T14:07:47.417Z</time>
</trkpt>
<trkpt lat="31.7792200" lon="34.9685200">
<ele>349.850006</ele>
<time>2024-08-30T14:07:47.417Z</time>
</trkpt>
<trkpt lat="31.7791500" lon="34.9689900">
<ele>359.879974</ele>
<time>2024-08-30T14:07:47.417Z</time>
</trkpt>
<trkpt lat="31.7791300" lon="34.9690700">
<ele>358.830017</ele>
<time>2024-08-30T14:07:47.417Z</time>
</trkpt>
<trkpt lat="31.7791000" lon="34.9692000">
<ele>357.489990</ele>
<time>2024-08-30T14:07:47.417Z</time>
</trkpt>
<trkpt lat="31.7790100" lon="34.9692800">
<ele>356.889984</ele>
<time>2024-08-30T14:07:47.417Z</time>
</trkpt>
<trkpt lat="31.7789300" lon="34.9692200">
<ele>355.660004</ele>
<time>2024-08-30T14:07:47.417Z</time>
</trkpt>
<trkpt lat="31.7789100" lon="34.9691500">
<ele>355.630005</ele>
<time>2024-08-30T14:07:47.417Z</time>
</trkpt>
<trkpt lat="31.7789100" lon="34.9691500">
<ele>355.630005</ele>
<time>2024-08-30T14:07:47.417Z</time>
</trkpt>
<trkpt lat="31.7789100" lon="34.9691500">
<ele>355.630005</ele>
<time>2024-08-30T14:07:47.417Z</time>
</trkpt>
<trkpt lat="31.7789000" lon="34.9691000">
<ele>356.759979</ele>
<time>2024-08-30T14:07:47.418Z</time>
</trkpt>
<trkpt lat="31.7788900" lon="34.9690100">
<ele>358.950012</ele>
<time>2024-08-30T14:07:47.418Z</time>
</trkpt>
<trkpt lat="31.7788500" lon="34.9687200">
<ele>364.539978</ele>
<time>2024-08-30T14:07:47.418Z</time>
</trkpt>
<trkpt lat="31.7785500" lon="34.9674300">
<ele>337.510010</ele>
<time>2024-08-30T14:07:47.418Z</time>
</trkpt>
<trkpt lat="31.7784700" lon="34.9669100">
<ele>336.119995</ele>
<time>2024-08-30T14:07:47.418Z</time>
</trkpt>
<trkpt lat="31.7784400" lon="34.9668000">
<ele>335.670013</ele>
<time>2024-08-30T14:07:47.418Z</time>
</trkpt>
<trkpt lat="31.7783300" lon="34.9666400">
<ele>337.950012</ele>
<time>2024-08-30T14:07:47.418Z</time>
</trkpt>
<trkpt lat="31.7782800" lon="34.9665800">
<ele>338.340027</ele>
<time>2024-08-30T14:07:47.418Z</time>
</trkpt>
<trkpt lat="31.7781500" lon="34.9665000">
<ele>339.250000</ele>
<time>2024-08-30T14:07:47.418Z</time>
</trkpt>
<trkpt lat="31.7779700" lon="34.9669900">
<ele>344.859985</ele>
<time>2024-08-30T14:07:47.418Z</time>
</trkpt>
<trkpt lat="31.7779400" lon="34.9671000">
<ele>345.990021</ele>
<time>2024-08-30T14:07:47.418Z</time>
</trkpt>
<trkpt lat="31.7778800" lon="34.9672300">
<ele>347.790009</ele>
<time>2024-08-30T14:07:47.418Z</time>
</trkpt>
<trkpt lat="31.7777900" lon="34.9674400">
<ele>352.630005</ele>
<time>2024-08-30T14:07:47.418Z</time>
</trkpt>
<trkpt lat="31.7776000" lon="34.9680100">
<ele>365.160004</ele>
<time>2024-08-30T14:07:47.418Z</time>
</trkpt>
<trkpt lat="31.7775500" lon="34.9688200">
<ele>367.230011</ele>
<time>2024-08-30T14:07:47.418Z</time>
</trkpt>
<trkpt lat="31.7775700" lon="34.9697200">
<ele>364.010010</ele>
<time>2024-08-30T14:07:47.418Z</time>
</trkpt>
<trkpt lat="31.7774100" lon="34.9707800">
<ele>366.450012</ele>
<time>2024-08-30T14:07:47.418Z</time>
</trkpt>
<trkpt lat="31.7769100" lon="34.9715700">
<ele>371.479980</ele>
<time>2024-08-30T14:07:47.418Z</time>
</trkpt>
<trkpt lat="31.7768200" lon="34.9718000">
<ele>371.070007</ele>
<time>2024-08-30T14:07:47.418Z</time>
</trkpt>
<trkpt lat="31.7767600" lon="34.9720400">
<ele>370.910004</ele>
<time>2024-08-30T14:07:47.418Z</time>
</trkpt>
<trkpt lat="31.7767500" lon="34.9722800">
<ele>372.500031</ele>
<time>2024-08-30T14:07:47.419Z</time>
</trkpt>
<trkpt lat="31.7767100" lon="34.9725300">
<ele>374.470032</ele>
<time>2024-08-30T14:07:47.419Z</time>
</trkpt>
<trkpt lat="31.7767300" lon="34.9726800">
<ele>373.250000</ele>
<time>2024-08-30T14:07:47.419Z</time>
</trkpt>
<trkpt lat="31.7768300" lon="34.9729300">
<ele>371.369995</ele>
<time>2024-08-30T14:07:47.419Z</time>
</trkpt>
<trkpt lat="31.7768400" lon="34.9730100">
<ele>371.119995</ele>
<time>2024-08-30T14:07:47.419Z</time>
</trkpt>
<trkpt lat="31.7768900" lon="34.9732500">
<ele>367.639984</ele>
<time>2024-08-30T14:07:47.419Z</time>
</trkpt>
<trkpt lat="31.7769300" lon="34.9734000">
<ele>366.279999</ele>
<time>2024-08-30T14:07:47.419Z</time>
</trkpt>
<trkpt lat="31.7769800" lon="34.9735500">
<ele>366.880005</ele>
<time>2024-08-30T14:07:47.419Z</time>
</trkpt>
<trkpt lat="31.7770300" lon="34.9736200">
<ele>367.279968</ele>
<time>2024-08-30T14:07:47.419Z</time>
</trkpt>
<trkpt lat="31.7770300" lon="34.9736200">
<ele>367.279968</ele>
<time>2024-08-30T14:07:47.419Z</time>
</trkpt>
<trkpt lat="31.7770300" lon="34.9736200">
<ele>367.279968</ele>
<time>2024-08-30T14:07:47.419Z</time>
</trkpt>
<trkpt lat="31.7770800" lon="34.9737100">
<ele>367.130005</ele>
<time>2024-08-30T14:07:47.419Z</time>
</trkpt>
<trkpt lat="31.7771200" lon="34.9737000">
<ele>367.309998</ele>
<time>2024-08-30T14:07:47.419Z</time>
</trkpt>
<trkpt lat="31.7771500" lon="34.9736200">
<ele>367.709991</ele>
<time>2024-08-30T14:07:47.419Z</time>
</trkpt>
<trkpt lat="31.7771900" lon="34.9735400">
<ele>367.400024</ele>
<time>2024-08-30T14:07:47.419Z</time>
</trkpt>
<trkpt lat="31.7773100" lon="34.9734800">
<ele>365.310028</ele>
<time>2024-08-30T14:07:47.419Z</time>
</trkpt>
<trkpt lat="31.7774600" lon="34.9732800">
<ele>361.940002</ele>
<time>2024-08-30T14:07:47.419Z</time>
</trkpt>
<trkpt lat="31.7775800" lon="34.9732300">
<ele>359.180023</ele>
<time>2024-08-30T14:07:47.419Z</time>
</trkpt>
<trkpt lat="31.7778100" lon="34.9731800">
<ele>353.720001</ele>
<time>2024-08-30T14:07:47.419Z</time>
</trkpt>
<trkpt lat="31.7780700" lon="34.9731500">
<ele>350.410004</ele>
<time>2024-08-30T14:07:47.420Z</time>
</trkpt>
<trkpt lat="31.7784400" lon="34.9731500">
<ele>350.960022</ele>
<time>2024-08-30T14:07:47.420Z</time>
</trkpt>
<trkpt lat="31.7794100" lon="34.9733100">
<ele>336.130005</ele>
<time>2024-08-30T14:07:47.420Z</time>
</trkpt>
<trkpt lat="31.7797300" lon="34.9733200">
<ele>336.299988</ele>
<time>2024-08-30T14:07:47.420Z</time>
</trkpt>
<trkpt lat="31.7804800" lon="34.9731500">
<ele>336.260010</ele>
<time>2024-08-30T14:07:47.420Z</time>
</trkpt>
<trkpt lat="31.7805900" lon="34.9731600">
<ele>335.750000</ele>
<time>2024-08-30T14:07:47.420Z</time>
</trkpt>
<trkpt lat="31.7805900" lon="34.9731600">
<ele>335.750000</ele>
<time>2024-08-30T14:07:47.420Z</time>
</trkpt>
<trkpt lat="31.7805900" lon="34.9731500">
<ele>336.000000</ele>
<time>2024-08-30T14:07:47.420Z</time>
</trkpt>
<trkpt lat="31.7806200" lon="34.9731600">
<ele>335.210022</ele>
<time>2024-08-30T14:07:47.420Z</time>
</trkpt>
<trkpt lat="31.7809300" lon="34.9732500">
<ele>328.860016</ele>
<time>2024-08-30T14:07:47.420Z</time>
</trkpt>
<trkpt lat="31.7811100" lon="34.9732800">
<ele>327.540009</ele>
<time>2024-08-30T14:07:47.420Z</time>
</trkpt>
<trkpt lat="31.7813000" lon="34.9732700">
<ele>327.450012</ele>
<time>2024-08-30T14:07:47.420Z</time>
</trkpt>
<trkpt lat="31.7814100" lon="34.9732400">
<ele>328.409973</ele>
<time>2024-08-30T14:07:47.420Z</time>
</trkpt>
<trkpt lat="31.7815600" lon="34.9731600">
<ele>331.470001</ele>
<time>2024-08-30T14:07:47.420Z</time>
</trkpt>
<trkpt lat="31.7819500" lon="34.9728600">
<ele>334.369995</ele>
<time>2024-08-30T14:07:47.420Z</time>
</trkpt>
<trkpt lat="31.7821500" lon="34.9727900">
<ele>333.460022</ele>
<time>2024-08-30T14:07:47.420Z</time>
</trkpt>
<trkpt lat="31.7822400" lon="34.9727900">
<ele>333.279999</ele>
<time>2024-08-30T14:07:47.420Z</time>
</trkpt>
<trkpt lat="31.7823800" lon="34.9728200">
<ele>335.770020</ele>
<time>2024-08-30T14:07:47.420Z</time>
</trkpt>
<trkpt lat="31.7824900" lon="34.9729000">
<ele>337.799988</ele>
<time>2024-08-30T14:07:47.420Z</time>
</trkpt>
<trkpt lat="31.7829000" lon="34.9733500">
<ele>341.570007</ele>
<time>2024-08-30T14:07:47.420Z</time>
</trkpt>
<trkpt lat="31.7832300" lon="34.9736200">
<ele>337.740021</ele>
<time>2024-08-30T14:07:47.420Z</time>
</trkpt>
<trkpt lat="31.7834100" lon="34.9737100">
<ele>332.589996</ele>
<time>2024-08-30T14:07:47.421Z</time>
</trkpt>
<trkpt lat="31.7836800" lon="34.9737700">
<ele>324.250000</ele>
<time>2024-08-30T14:07:47.421Z</time>
</trkpt>
<trkpt lat="31.7838000" lon="34.9737700">
<ele>323.199982</ele>
<time>2024-08-30T14:07:47.421Z</time>
</trkpt>
<trkpt lat="31.7840000" lon="34.9737300">
<ele>321.430023</ele>
<time>2024-08-30T14:07:47.421Z</time>
</trkpt>
<trkpt lat="31.7841500" lon="34.9736300">
<ele>320.919983</ele>
<time>2024-08-30T14:07:47.421Z</time>
</trkpt>
<trkpt lat="31.7842200" lon="34.9735500">
<ele>320.069977</ele>
<time>2024-08-30T14:07:47.421Z</time>
</trkpt>
<trkpt lat="31.7842500" lon="34.9734800">
<ele>320.109985</ele>
<time>2024-08-30T14:07:47.421Z</time>
</trkpt>
<trkpt lat="31.7842800" lon="34.9733400">
<ele>321.279999</ele>
<time>2024-08-30T14:07:47.421Z</time>
</trkpt>
<trkpt lat="31.7842700" lon="34.9728700">
<ele>329.510010</ele>
<time>2024-08-30T14:07:47.421Z</time>
</trkpt>
<trkpt lat="31.7843000" lon="34.9727900">
<ele>330.779999</ele>
<time>2024-08-30T14:07:47.421Z</time>
</trkpt>
<trkpt lat="31.7843300" lon="34.9727700">
<ele>331.279999</ele>
<time>2024-08-30T14:07:47.421Z</time>
</trkpt>
<trkpt lat="31.7843300" lon="34.9727700">
<ele>331.279999</ele>
<time>2024-08-30T14:07:47.421Z</time>
</trkpt>
<trkpt lat="31.7843300" lon="34.9727700">
<ele>331.279999</ele>
<time>2024-08-30T14:07:47.421Z</time>
</trkpt>
<trkpt lat="31.7844200" lon="34.9727400">
<ele>332.149994</ele>
<time>2024-08-30T14:07:47.421Z</time>
</trkpt>
<trkpt lat="31.7847000" lon="34.9728300">
<ele>318.819977</ele>
<time>2024-08-30T14:07:47.421Z</time>
</trkpt>
<trkpt lat="31.7848600" lon="34.9728400">
<ele>314.179993</ele>
<time>2024-08-30T14:07:47.421Z</time>
</trkpt>
<trkpt lat="31.7851100" lon="34.9727400">
<ele>312.229980</ele>
<time>2024-08-30T14:07:47.421Z</time>
</trkpt>
<trkpt lat="31.7851900" lon="34.9727200">
<ele>312.170013</ele>
<time>2024-08-30T14:07:47.421Z</time>
</trkpt>
<trkpt lat="31.7856000" lon="34.9728300">
<ele>311.769989</ele>
<time>2024-08-30T14:07:47.421Z</time>
</trkpt>
<trkpt lat="31.7858900" lon="34.9727600">
<ele>312.170013</ele>
<time>2024-08-30T14:07:47.421Z</time>
</trkpt>
<trkpt lat="31.7860700" lon="34.9727400">
<ele>311.080017</ele>
<time>2024-08-30T14:07:47.421Z</time>
</trkpt>
<trkpt lat="31.7865800" lon="34.9727800">
<ele>302.250000</ele>
<time>2024-08-30T14:07:47.421Z</time>
</trkpt>
<trkpt lat="31.7866500" lon="34.9728000">
<ele>301.239990</ele>
<time>2024-08-30T14:07:47.421Z</time>
</trkpt>
<trkpt lat="31.7867800" lon="34.9728600">
<ele>301.329987</ele>
<time>2024-08-30T14:07:47.421Z</time>
</trkpt>
<trkpt lat="31.7869300" lon="34.9729000">
<ele>301.230011</ele>
<time>2024-08-30T14:07:47.422Z</time>
</trkpt>
<trkpt lat="31.7870400" lon="34.9729000">
<ele>302.350006</ele>
<time>2024-08-30T14:07:47.422Z</time>
</trkpt>
<trkpt lat="31.7871600" lon="34.9728500">
<ele>305.029999</ele>
<time>2024-08-30T14:07:47.422Z</time>
</trkpt>
<trkpt lat="31.7873600" lon="34.9727200">
<ele>312.279999</ele>
<time>2024-08-30T14:07:47.422Z</time>
</trkpt>
<trkpt lat="31.7874300" lon="34.9726900">
<ele>314.069977</ele>
<time>2024-08-30T14:07:47.422Z</time>
</trkpt>
<trkpt lat="31.7875400" lon="34.9727100">
<ele>315.609985</ele>
<time>2024-08-30T14:07:47.422Z</time>
</trkpt>
<trkpt lat="31.7878800" lon="34.9728800">
<ele>310.529999</ele>
<time>2024-08-30T14:07:47.422Z</time>
</trkpt>
<trkpt lat="31.7880200" lon="34.9729200">
<ele>308.820007</ele>
<time>2024-08-30T14:07:47.422Z</time>
</trkpt>
<trkpt lat="31.7881800" lon="34.9729300">
<ele>307.410004</ele>
<time>2024-08-30T14:07:47.422Z</time>
</trkpt>
<trkpt lat="31.7882700" lon="34.9729300">
<ele>306.580017</ele>
<time>2024-08-30T14:07:47.422Z</time>
</trkpt>
<trkpt lat="31.7884300" lon="34.9729700">
<ele>305.199982</ele>
<time>2024-08-30T14:07:47.422Z</time>
</trkpt>
<trkpt lat="31.7886200" lon="34.9730800">
<ele>303.910004</ele>
<time>2024-08-30T14:07:47.422Z</time>
</trkpt>
<trkpt lat="31.7886600" lon="34.9730900">
<ele>303.519989</ele>
<time>2024-08-30T14:07:47.422Z</time>
</trkpt>
<trkpt lat="31.7886600" lon="34.9730900">
<ele>303.519989</ele>
<time>2024-08-30T14:07:47.422Z</time>
</trkpt>
<trkpt lat="31.7886600" lon="34.9730900">
<ele>303.519989</ele>
<time>2024-08-30T14:07:47.422Z</time>
</trkpt>
<trkpt lat="31.7887500" lon="34.9731200">
<ele>302.730011</ele>
<time>2024-08-30T14:07:47.422Z</time>
</trkpt>
<trkpt lat="31.7888500" lon="34.9731200">
<ele>301.820007</ele>
<time>2024-08-30T14:07:47.422Z</time>
</trkpt>
<trkpt lat="31.7889300" lon="34.9730900">
<ele>301.339996</ele>
<time>2024-08-30T14:07:47.422Z</time>
</trkpt>
<trkpt lat="31.7890100" lon="34.9730500">
<ele>301.470001</ele>
<time>2024-08-30T14:07:47.422Z</time>
</trkpt>
<trkpt lat="31.7890400" lon="34.9730200">
<ele>301.809998</ele>
<time>2024-08-30T14:07:47.422Z</time>
</trkpt>
<trkpt lat="31.7891200" lon="34.9728900">
<ele>303.419983</ele>
<time>2024-08-30T14:07:47.422Z</time>
</trkpt>
<trkpt lat="31.7891900" lon="34.9727100">
<ele>305.029999</ele>
<time>2024-08-30T14:07:47.422Z</time>
</trkpt>
<trkpt lat="31.7892000" lon="34.9726600">
<ele>305.170013</ele>
<time>2024-08-30T14:07:47.422Z</time>
</trkpt>
<trkpt lat="31.7892100" lon="34.9726200">
<ele>305.279999</ele>
<time>2024-08-30T14:07:47.422Z</time>
</trkpt>
<trkpt lat="31.7892000" lon="34.9722400">
<ele>306.480011</ele>
<time>2024-08-30T14:07:47.422Z</time>
</trkpt>
<trkpt lat="31.7891700" lon="34.9719100">
<ele>306.079987</ele>
<time>2024-08-30T14:07:47.422Z</time>
</trkpt>
<trkpt lat="31.7891700" lon="34.9717900">
<ele>306.510010</ele>
<time>2024-08-30T14:07:47.423Z</time>
</trkpt>
<trkpt lat="31.7892000" lon="34.9714700">
<ele>306.520020</ele>
<time>2024-08-30T14:07:47.423Z</time>
</trkpt>
<trkpt lat="31.7892900" lon="34.9708800">
<ele>299.690002</ele>
<time>2024-08-30T14:07:47.423Z</time>
</trkpt>
<trkpt lat="31.7893300" lon="34.9706000">
<ele>297.319977</ele>
<time>2024-08-30T14:07:47.423Z</time>
</trkpt>
<trkpt lat="31.7894200" lon="34.9703000">
<ele>292.559998</ele>
<time>2024-08-30T14:07:47.423Z</time>
</trkpt>
<trkpt lat="31.7894900" lon="34.9701500">
<ele>290.389984</ele>
<time>2024-08-30T14:07:47.423Z</time>
</trkpt>
<trkpt lat="31.7895600" lon="34.9700600">
<ele>288.670013</ele>
<time>2024-08-30T14:07:47.423Z</time>
</trkpt>
<trkpt lat="31.7896800" lon="34.9699600">
<ele>285.970001</ele>
<time>2024-08-30T14:07:47.423Z</time>
</trkpt>
<trkpt lat="31.7899000" lon="34.9698400">
<ele>279.579987</ele>
<time>2024-08-30T14:07:47.423Z</time>
</trkpt>
<trkpt lat="31.7900100" lon="34.9697900">
<ele>276.589996</ele>
<time>2024-08-30T14:07:47.423Z</time>
</trkpt>
<trkpt lat="31.7902200" lon="34.9697400">
<ele>273.020020</ele>
<time>2024-08-30T14:07:47.423Z</time>
</trkpt>
<trkpt lat="31.7902700" lon="34.9697100">
<ele>272.029999</ele>
<time>2024-08-30T14:07:47.423Z</time>
</trkpt>
<trkpt lat="31.7902700" lon="34.9697100">
<ele>272.029999</ele>
<time>2024-08-30T14:07:47.423Z</time>
</trkpt>
<trkpt lat="31.7902700" lon="34.9697100">
<ele>272.029999</ele>
<time>2024-08-30T14:07:47.423Z</time>
</trkpt>
<trkpt lat="31.7903300" lon="34.9696800">
<ele>271.480011</ele>
<time>2024-08-30T14:07:47.423Z</time>
</trkpt>
<trkpt lat="31.7904300" lon="34.9695700">
<ele>270.059998</ele>
<time>2024-08-30T14:07:47.423Z</time>
</trkpt>
<trkpt lat="31.7905100" lon="34.9694400">
<ele>268.270020</ele>
<time>2024-08-30T14:07:47.423Z</time>
</trkpt>
<trkpt lat="31.7907100" lon="34.9692600">
<ele>265.339996</ele>
<time>2024-08-30T14:07:47.423Z</time>
</trkpt>
<trkpt lat="31.7908700" lon="34.9691600">
<ele>263.940002</ele>
<time>2024-08-30T14:07:47.423Z</time>
</trkpt>
<trkpt lat="31.7909400" lon="34.9691400">
<ele>263.619995</ele>
<time>2024-08-30T14:07:47.423Z</time>
</trkpt>
<trkpt lat="31.7910500" lon="34.9691500">
<ele>263.649994</ele>
<time>2024-08-30T14:07:47.423Z</time>
</trkpt>
<trkpt lat="31.7914400" lon="34.9693700">
<ele>258.700012</ele>
<time>2024-08-30T14:07:47.423Z</time>
</trkpt>
<trkpt lat="31.7915800" lon="34.9693700">
<ele>256.089996</ele>
<time>2024-08-30T14:07:47.423Z</time>
</trkpt>
<trkpt lat="31.7916900" lon="34.9693400">
<ele>254.110001</ele>
<time>2024-08-30T14:07:47.423Z</time>
</trkpt>
<trkpt lat="31.7917500" lon="34.9693100">
<ele>253.580002</ele>
<time>2024-08-30T14:07:47.423Z</time>
</trkpt>
<trkpt lat="31.7919600" lon="34.9691400">
<ele>251.980011</ele>
<time>2024-08-30T14:07:47.423Z</time>
</trkpt>
<trkpt lat="31.7922100" lon="34.9688900">
<ele>253.830002</ele>
<time>2024-08-30T14:07:47.424Z</time>
</trkpt>
<trkpt lat="31.7923200" lon="34.9687300">
<ele>252.909988</ele>
<time>2024-08-30T14:07:47.424Z</time>
</trkpt>
<trkpt lat="31.7923600" lon="34.9685800">
<ele>252.159988</ele>
<time>2024-08-30T14:07:47.424Z</time>
</trkpt>
<trkpt lat="31.7922200" lon="34.9685100">
<ele>250.509995</ele>
<time>2024-08-30T14:07:47.424Z</time>
</trkpt>
<trkpt lat="31.7920500" lon="34.9685600">
<ele>248.900009</ele>
<time>2024-08-30T14:07:47.424Z</time>
</trkpt>
<trkpt lat="31.7918700" lon="34.9685800">
<ele>247.069992</ele>
<time>2024-08-30T14:07:47.424Z</time>
</trkpt>
<trkpt lat="31.7915700" lon="34.9685300">
<ele>244.479996</ele>
<time>2024-08-30T14:07:47.424Z</time>
</trkpt>
<trkpt lat="31.7915700" lon="34.9685300">
<ele>244.479996</ele>
<time>2024-08-30T14:07:47.424Z</time>
</trkpt>
<trkpt lat="31.7915700" lon="34.9685300">
<ele>244.479996</ele>
<time>2024-08-30T14:07:47.424Z</time>
</trkpt>
<trkpt lat="31.7913300" lon="34.9684900">
<ele>244.409988</ele>
<time>2024-08-30T14:07:47.424Z</time>
</trkpt>
<trkpt lat="31.7910100" lon="34.9684800">
<ele>249.509995</ele>
<time>2024-08-30T14:07:47.424Z</time>
</trkpt>
<trkpt lat="31.7908600" lon="34.9684500">
<ele>249.569992</ele>
<time>2024-08-30T14:07:47.424Z</time>
</trkpt>
<trkpt lat="31.7907300" lon="34.9683900">
<ele>250.970001</ele>
<time>2024-08-30T14:07:47.424Z</time>
</trkpt>
<trkpt lat="31.7904800" lon="34.9683100">
<ele>253.520004</ele>
<time>2024-08-30T14:07:47.424Z</time>
</trkpt>
<trkpt lat="31.7903400" lon="34.9683100">
<ele>253.099991</ele>
<time>2024-08-30T14:07:47.424Z</time>
</trkpt>
<trkpt lat="31.7902600" lon="34.9682900">
<ele>252.940002</ele>
<time>2024-08-30T14:07:47.424Z</time>
</trkpt>
<trkpt lat="31.7900200" lon="34.9682500">
<ele>253.719986</ele>
<time>2024-08-30T14:07:47.424Z</time>
</trkpt>
<trkpt lat="31.7898300" lon="34.9681200">
<ele>259.410004</ele>
<time>2024-08-30T14:07:47.424Z</time>
</trkpt>
<trkpt lat="31.7894900" lon="34.9679600">
<ele>269.130005</ele>
<time>2024-08-30T14:07:47.424Z</time>
</trkpt>
<trkpt lat="31.7893000" lon="34.9678400">
<ele>269.619995</ele>
<time>2024-08-30T14:07:47.424Z</time>
</trkpt>
<trkpt lat="31.7892400" lon="34.9677400">
<ele>266.079987</ele>
<time>2024-08-30T14:07:47.424Z</time>
</trkpt>
<trkpt lat="31.7892200" lon="34.9676200">
<ele>257.509979</ele>
<time>2024-08-30T14:07:47.424Z</time>
</trkpt>
<trkpt lat="31.7891900" lon="34.9675400">
<ele>251.860001</ele>
<time>2024-08-30T14:07:47.424Z</time>
</trkpt>
<trkpt lat="31.7890400" lon="34.9673500">
<ele>250.539993</ele>
<time>2024-08-30T14:07:47.424Z</time>
</trkpt>
<trkpt lat="31.7889700" lon="34.9672200">
<ele>248.770004</ele>
<time>2024-08-30T14:07:47.424Z</time>
</trkpt>
<trkpt lat="31.7889100" lon="34.9671600">
<ele>250.729996</ele>
<time>2024-08-30T14:07:47.425Z</time>
</trkpt>
<trkpt lat="31.7889200" lon="34.9671200">
<ele>250.070007</ele>
<time>2024-08-30T14:07:47.425Z</time>
</trkpt>
<trkpt lat="31.7889200" lon="34.9671200">
<ele>250.070007</ele>
<time>2024-08-30T14:07:47.425Z</time>
</trkpt>
<trkpt lat="31.7889200" lon="34.9671200">
<ele>250.070007</ele>
<time>2024-08-30T14:07:47.425Z</time>
</trkpt>
<trkpt lat="31.7889600" lon="34.9669700">
<ele>247.599991</ele>
<time>2024-08-30T14:07:47.425Z</time>
</trkpt>
<trkpt lat="31.7890600" lon="34.9667900">
<ele>245.210007</ele>
<time>2024-08-30T14:07:47.425Z</time>
</trkpt>
<trkpt lat="31.7891200" lon="34.9666500">
<ele>245.250000</ele>
<time>2024-08-30T14:07:47.425Z</time>
</trkpt>
<trkpt lat="31.7891400" lon="34.9665600">
<ele>246.110001</ele>
<time>2024-08-30T14:07:47.425Z</time>
</trkpt>
<trkpt lat="31.7891300" lon="34.9664500">
<ele>247.910004</ele>
<time>2024-08-30T14:07:47.425Z</time>
</trkpt>
<trkpt lat="31.7891000" lon="34.9663800">
<ele>249.339996</ele>
<time>2024-08-30T14:07:47.425Z</time>
</trkpt>
<trkpt lat="31.7890000" lon="34.9662300">
<ele>250.339996</ele>
<time>2024-08-30T14:07:47.425Z</time>
</trkpt>
<trkpt lat="31.7889300" lon="34.9661600">
<ele>251.920013</ele>
<time>2024-08-30T14:07:47.425Z</time>
</trkpt>
<trkpt lat="31.7886700" lon="34.9660100">
<ele>257.839996</ele>
<time>2024-08-30T14:07:47.425Z</time>
</trkpt>
<trkpt lat="31.7882900" lon="34.9657300">
<ele>258.839996</ele>
<time>2024-08-30T14:07:47.425Z</time>
</trkpt>
<trkpt lat="31.7879000" lon="34.9652600">
<ele>249.099991</ele>
<time>2024-08-30T14:07:47.425Z</time>
</trkpt>
<trkpt lat="31.7877200" lon="34.9650400">
<ele>239.970001</ele>
<time>2024-08-30T14:07:47.425Z</time>
</trkpt>
<trkpt lat="31.7876100" lon="34.9649300">
<ele>239.050003</ele>
<time>2024-08-30T14:07:47.425Z</time>
</trkpt>
<trkpt lat="31.7880800" lon="34.9647300">
<ele>236.389999</ele>
<time>2024-08-30T14:07:47.425Z</time>
</trkpt>
<trkpt lat="31.7884000" lon="34.9647600">
<ele>237.559998</ele>
<time>2024-08-30T14:07:47.425Z</time>
</trkpt>
<trkpt lat="31.7887400" lon="34.9648000">
<ele>232.729996</ele>
<time>2024-08-30T14:07:47.425Z</time>
</trkpt>
<trkpt lat="31.7889400" lon="34.9647800">
<ele>229.520004</ele>
<time>2024-08-30T14:07:47.425Z</time>
</trkpt>
<trkpt lat="31.7889400" lon="34.9647800">
<ele>229.520004</ele>
<time>2024-08-30T14:07:47.425Z</time>
</trkpt>
<trkpt lat="31.7889400" lon="34.9647800">
<ele>229.520004</ele>
<time>2024-08-30T14:07:47.425Z</time>
</trkpt>
<trkpt lat="31.7893500" lon="34.9647300">
<ele>221.089996</ele>
<time>2024-08-30T14:07:47.425Z</time>
</trkpt>
<trkpt lat="31.7896400" lon="34.9646400">
<ele>220.320007</ele>
<time>2024-08-30T14:07:47.425Z</time>
</trkpt>
<trkpt lat="31.7898500" lon="34.9645400">
<ele>219.080002</ele>
<time>2024-08-30T14:07:47.425Z</time>
</trkpt>
<trkpt lat="31.7899800" lon="34.9644800">
<ele>218.139999</ele>
<time>2024-08-30T14:07:47.426Z</time>
</trkpt>
<trkpt lat="31.7901900" lon="34.9643600">
<ele>213.589996</ele>
<time>2024-08-30T14:07:47.426Z</time>
</trkpt>
<trkpt lat="31.7907800" lon="34.9641000">
<ele>203.780014</ele>
<time>2024-08-30T14:07:47.426Z</time>
</trkpt>
<trkpt lat="31.7910100" lon="34.9640300">
<ele>205.139999</ele>
<time>2024-08-30T14:07:47.426Z</time>
</trkpt>
<trkpt lat="31.7912200" lon="34.9639700">
<ele>205.440002</ele>
<time>2024-08-30T14:07:47.426Z</time>
</trkpt>
<trkpt lat="31.7914500" lon="34.9639500">
<ele>205.239990</ele>
<time>2024-08-30T14:07:47.426Z</time>
</trkpt>
<trkpt lat="31.7915400" lon="34.9639100">
<ele>206.159988</ele>
<time>2024-08-30T14:07:47.426Z</time>
</trkpt>
<trkpt lat="31.7916600" lon="34.9638500">
<ele>207.120010</ele>
<time>2024-08-30T14:07:47.426Z</time>
</trkpt>
<trkpt lat="31.7918000" lon="34.9637500">
<ele>205.819992</ele>
<time>2024-08-30T14:07:47.426Z</time>
</trkpt>
<trkpt lat="31.7918900" lon="34.9636600">
<ele>205.790009</ele>
<time>2024-08-30T14:07:47.426Z</time>
</trkpt>
<trkpt lat="31.7918900" lon="34.9636600">
<ele>205.790009</ele>
<time>2024-08-30T14:07:47.426Z</time>
</trkpt>
<trkpt lat="31.7918900" lon="34.9636600">
<ele>205.790009</ele>
<time>2024-08-30T14:07:47.426Z</time>
</trkpt>
<trkpt lat="31.7920200" lon="34.9635300">
<ele>205.380005</ele>
<time>2024-08-30T14:07:47.426Z</time>
</trkpt>
<trkpt lat="31.7921300" lon="34.9633900">
<ele>204.129990</ele>
<time>2024-08-30T14:07:47.426Z</time>
</trkpt>
<trkpt lat="31.7922400" lon="34.9632500">
<ele>203.110001</ele>
<time>2024-08-30T14:07:47.426Z</time>
</trkpt>
<trkpt lat="31.7924900" lon="34.9630200">
<ele>201.250000</ele>
<time>2024-08-30T14:07:47.426Z</time>
</trkpt>
<trkpt lat="31.7928800" lon="34.9626900">
<ele>196.639999</ele>
<time>2024-08-30T14:07:47.426Z</time>
</trkpt>
<trkpt lat="31.7930300" lon="34.9625400">
<ele>196.770004</ele>
<time>2024-08-30T14:07:47.426Z</time>
</trkpt>
<trkpt lat="31.7931700" lon="34.9623700">
<ele>194.559998</ele>
<time>2024-08-30T14:07:47.426Z</time>
</trkpt>
<trkpt lat="31.7933600" lon="34.9621500">
<ele>193.930008</ele>
<time>2024-08-30T14:07:47.426Z</time>
</trkpt>
<trkpt lat="31.7934900" lon="34.9620200">
<ele>193.849991</ele>
<time>2024-08-30T14:07:47.426Z</time>
</trkpt>
<trkpt lat="31.7938400" lon="34.9617300">
<ele>193.899994</ele>
<time>2024-08-30T14:07:47.426Z</time>
</trkpt>
<trkpt lat="31.7939500" lon="34.9616100">
<ele>193.820007</ele>
<time>2024-08-30T14:07:47.426Z</time>
</trkpt>
<trkpt lat="31.7940500" lon="34.9614800">
<ele>194.479996</ele>
<time>2024-08-30T14:07:47.426Z</time>
</trkpt>
<trkpt lat="31.7942300" lon="34.9612200">
<ele>195.260010</ele>
<time>2024-08-30T14:07:47.426Z</time>
</trkpt>
<trkpt lat="31.7941900" lon="34.9611300">
<ele>196.589996</ele>
<time>2024-08-30T14:07:47.426Z</time>
</trkpt>
<trkpt lat="31.7941300" lon="34.9610400">
<ele>196.710007</ele>
<time>2024-08-30T14:07:47.426Z</time>
</trkpt>
<trkpt lat="31.7941200" lon="34.9609900">
<ele>196.489990</ele>
<time>2024-08-30T14:07:47.427Z</time>
</trkpt>
<trkpt lat="31.7941100" lon="34.9609300">
<ele>196.209991</ele>
<time>2024-08-30T14:07:47.427Z</time>
</trkpt>
<trkpt lat="31.7942000" lon="34.9607000">
<ele>194.980011</ele>
<time>2024-08-30T14:07:47.427Z</time>
</trkpt>
<trkpt lat="31.7942200" lon="34.9605900">
<ele>194.080002</ele>
<time>2024-08-30T14:07:47.427Z</time>
</trkpt>
<trkpt lat="31.7941800" lon="34.9603500">
<ele>193.990005</ele>
<time>2024-08-30T14:07:47.427Z</time>
</trkpt>
<trkpt lat="31.7941900" lon="34.9602200">
<ele>194.210007</ele>
<time>2024-08-30T14:07:47.427Z</time>
</trkpt>
<trkpt lat="31.7941600" lon="34.9601200">
<ele>194.660004</ele>
<time>2024-08-30T14:07:47.427Z</time>
</trkpt>
<trkpt lat="31.7941000" lon="34.9600300">
<ele>195.660004</ele>
<time>2024-08-30T14:07:47.427Z</time>
</trkpt>
<trkpt lat="31.7941000" lon="34.9598600">
<ele>195.720001</ele>
<time>2024-08-30T14:07:47.427Z</time>
</trkpt>
<trkpt lat="31.7942700" lon="34.9596000">
<ele>196.559998</ele>
<time>2024-08-30T14:07:47.427Z</time>
</trkpt>
<trkpt lat="31.7943000" lon="34.9594800">
<ele>197.309998</ele>
<time>2024-08-30T14:07:47.427Z</time>
</trkpt>
<trkpt lat="31.7942900" lon="34.9593700">
<ele>197.360016</ele>
<time>2024-08-30T14:07:47.427Z</time>
</trkpt>
<trkpt lat="31.7942800" lon="34.9590800">
<ele>196.339996</ele>
<time>2024-08-30T14:07:47.427Z</time>
</trkpt>
<trkpt lat="31.7942900" lon="34.9589500">
<ele>194.759995</ele>
<time>2024-08-30T14:07:47.427Z</time>
</trkpt>
<trkpt lat="31.7943500" lon="34.9588100">
<ele>192.860001</ele>
<time>2024-08-30T14:07:47.427Z</time>
</trkpt>
<trkpt lat="31.7944600" lon="34.9587200">
<ele>191.660004</ele>
<time>2024-08-30T14:07:47.427Z</time>
</trkpt>
<trkpt lat="31.7945800" lon="34.9586400">
<ele>191.340012</ele>
<time>2024-08-30T14:07:47.427Z</time>
</trkpt>
<trkpt lat="31.7947100" lon="34.9585200">
<ele>190.939987</ele>
<time>2024-08-30T14:07:47.427Z</time>
</trkpt>
<trkpt lat="31.7948300" lon="34.9583500">
<ele>190.389999</ele>
<time>2024-08-30T14:07:47.427Z</time>
</trkpt>
<trkpt lat="31.7950700" lon="34.9579000">
<ele>187.860001</ele>
<time>2024-08-30T14:07:47.427Z</time>
</trkpt>
<trkpt lat="31.7951500" lon="34.9577600">
<ele>187.599991</ele>
<time>2024-08-30T14:07:47.427Z</time>
</trkpt>
<trkpt lat="31.7952400" lon="34.9576300">
<ele>188.909988</ele>
<time>2024-08-30T14:07:47.427Z</time>
</trkpt>
<trkpt lat="31.7954300" lon="34.9574000">
<ele>187.810013</ele>
<time>2024-08-30T14:07:47.427Z</time>
</trkpt>
<trkpt lat="31.7956100" lon="34.9570900">
<ele>184.199997</ele>
<time>2024-08-30T14:07:47.427Z</time>
</trkpt>
<trkpt lat="31.7959600" lon="34.9566200">
<ele>183.279999</ele>
<time>2024-08-30T14:07:47.427Z</time>
</trkpt>
<trkpt lat="31.7960700" lon="34.9564200">
<ele>182.130005</ele>
<time>2024-08-30T14:07:47.427Z</time>
</trkpt>
<trkpt lat="31.7961300" lon="34.9562600">
<ele>181.449997</ele>
<time>2024-08-30T14:07:47.427Z</time>
</trkpt>
<trkpt lat="31.7961500" lon="34.9561800">
<ele>181.229996</ele>
<time>2024-08-30T14:07:47.428Z</time>
</trkpt>
<trkpt lat="31.7961900" lon="34.9560700">
<ele>180.830002</ele>
<time>2024-08-30T14:07:47.428Z</time>
</trkpt>
<trkpt lat="31.7962600" lon="34.9558800">
<ele>179.350006</ele>
<time>2024-08-30T14:07:47.428Z</time>
</trkpt>
<trkpt lat="31.7964500" lon="34.9555300">
<ele>179.359985</ele>
<time>2024-08-30T14:07:47.428Z</time>
</trkpt>
<trkpt lat="31.7964900" lon="34.9554700">
<ele>179.930008</ele>
<time>2024-08-30T14:07:47.428Z</time>
</trkpt>
<trkpt lat="31.7967200" lon="34.9551300">
<ele>182.930008</ele>
<time>2024-08-30T14:07:47.428Z</time>
</trkpt>
<trkpt lat="31.7967200" lon="34.9551300">
<ele>182.930008</ele>
<time>2024-08-30T14:07:47.428Z</time>
</trkpt>
<trkpt lat="31.7967200" lon="34.9551300">
<ele>182.930008</ele>
<time>2024-08-30T14:07:47.428Z</time>
</trkpt>
<trkpt lat="31.7968200" lon="34.9549900">
<ele>182.480011</ele>
<time>2024-08-30T14:07:47.428Z</time>
</trkpt>
<trkpt lat="31.7969100" lon="34.9548400">
<ele>181.720001</ele>
<time>2024-08-30T14:07:47.428Z</time>
</trkpt>
<trkpt lat="31.7969200" lon="34.9549400">
<ele>182.480011</ele>
<time>2024-08-30T14:07:47.428Z</time>
</trkpt>
<trkpt lat="31.7969900" lon="34.9550000">
<ele>183.660004</ele>
<time>2024-08-30T14:07:47.428Z</time>
</trkpt>
<trkpt lat="31.7970700" lon="34.9550500">
<ele>185.279999</ele>
<time>2024-08-30T14:07:47.428Z</time>
</trkpt>
<trkpt lat="31.7971700" lon="34.9550600">
<ele>186.590012</ele>
<time>2024-08-30T14:07:47.428Z</time>
</trkpt>
<trkpt lat="31.7973800" lon="34.9550400">
<ele>185.360001</ele>
<time>2024-08-30T14:07:47.428Z</time>
</trkpt>
<trkpt lat="31.7974800" lon="34.9549800">
<ele>184.419998</ele>
<time>2024-08-30T14:07:47.428Z</time>
</trkpt>
<trkpt lat="31.7975800" lon="34.9549400">
<ele>182.959991</ele>
<time>2024-08-30T14:07:47.428Z</time>
</trkpt>
<trkpt lat="31.7977100" lon="34.9549500">
<ele>180.220001</ele>
<time>2024-08-30T14:07:47.428Z</time>
</trkpt>
<trkpt lat="31.7979700" lon="34.9548700">
<ele>170.550003</ele>
<time>2024-08-30T14:07:47.428Z</time>
</trkpt>
<trkpt lat="31.7980800" lon="34.9548300">
<ele>166.949997</ele>
<time>2024-08-30T14:07:47.428Z</time>
</trkpt>
<trkpt lat="31.7982000" lon="34.9547700">
<ele>166.570007</ele>
<time>2024-08-30T14:07:47.428Z</time>
</trkpt>
<trkpt lat="31.7983300" lon="34.9546800">
<ele>166.770004</ele>
<time>2024-08-30T14:07:47.428Z</time>
</trkpt>
<trkpt lat="31.7984500" lon="34.9545900">
<ele>167.399994</ele>
<time>2024-08-30T14:07:47.428Z</time>
</trkpt>
<trkpt lat="31.7985400" lon="34.9545300">
<ele>166.600006</ele>
<time>2024-08-30T14:07:47.428Z</time>
</trkpt>
<trkpt lat="31.7986500" lon="34.9544800">
<ele>165.680008</ele>
<time>2024-08-30T14:07:47.428Z</time>
</trkpt>
<trkpt lat="31.7987400" lon="34.9544600">
<ele>166.500000</ele>
<time>2024-08-30T14:07:47.429Z</time>
</trkpt>
<trkpt lat="31.7989200" lon="34.9544700">
<ele>167.289993</ele>
<time>2024-08-30T14:07:47.429Z</time>
</trkpt>
<trkpt lat="31.7988000" lon="34.9549400">
<ele>169.040009</ele>
<time>2024-08-30T14:07:47.429Z</time>
</trkpt>
<trkpt lat="31.7987600" lon="34.9550200">
<ele>168.740005</ele>
<time>2024-08-30T14:07:47.429Z</time>
</trkpt>
<trkpt lat="31.7987600" lon="34.9550200">
<ele>168.740005</ele>
<time>2024-08-30T14:07:47.429Z</time>
</trkpt>
<trkpt lat="31.7987600" lon="34.9550200">
<ele>168.740005</ele>
<time>2024-08-30T14:07:47.429Z</time>
</trkpt>
<trkpt lat="31.7987000" lon="34.9551500">
<ele>169.429993</ele>
<time>2024-08-30T14:07:47.429Z</time>
</trkpt>
<trkpt lat="31.7986600" lon="34.9552600">
<ele>170.610001</ele>
<time>2024-08-30T14:07:47.429Z</time>
</trkpt>
<trkpt lat="31.7986600" lon="34.9554000">
<ele>172.220001</ele>
<time>2024-08-30T14:07:47.429Z</time>
</trkpt>
<trkpt lat="31.7986800" lon="34.9556500">
<ele>174.679993</ele>
<time>2024-08-30T14:07:47.429Z</time>
</trkpt>
<trkpt lat="31.7987000" lon="34.9557700">
<ele>175.540009</ele>
<time>2024-08-30T14:07:47.429Z</time>
</trkpt>
<trkpt lat="31.7987500" lon="34.9558900">
<ele>175.590012</ele>
<time>2024-08-30T14:07:47.429Z</time>
</trkpt>
<trkpt lat="31.7987800" lon="34.9560200">
<ele>174.370010</ele>
<time>2024-08-30T14:07:47.429Z</time>
</trkpt>
<trkpt lat="31.7988000" lon="34.9561500">
<ele>173.049988</ele>
<time>2024-08-30T14:07:47.429Z</time>
</trkpt>
<trkpt lat="31.7988100" lon="34.9562800">
<ele>172.180008</ele>
<time>2024-08-30T14:07:47.429Z</time>
</trkpt>
<trkpt lat="31.7987900" lon="34.9565600">
<ele>169.250000</ele>
<time>2024-08-30T14:07:47.429Z</time>
</trkpt>
<trkpt lat="31.7987800" lon="34.9566900">
<ele>167.500015</ele>
<time>2024-08-30T14:07:47.429Z</time>
</trkpt>
<trkpt lat="31.7987600" lon="34.9568400">
<ele>165.769989</ele>
<time>2024-08-30T14:07:47.429Z</time>
</trkpt>
<trkpt lat="31.7987300" lon="34.9569700">
<ele>164.370010</ele>
<time>2024-08-30T14:07:47.429Z</time>
</trkpt>
<trkpt lat="31.7987300" lon="34.9573300">
<ele>162.089996</ele>
<time>2024-08-30T14:07:47.429Z</time>
</trkpt>
<trkpt lat="31.7987600" lon="34.9574100">
<ele>162.320007</ele>
<time>2024-08-30T14:07:47.429Z</time>
</trkpt>
<trkpt lat="31.7988200" lon="34.9575000">
<ele>163.509995</ele>
<time>2024-08-30T14:07:47.429Z</time>
</trkpt>
<trkpt lat="31.7988800" lon="34.9576800">
<ele>166.080002</ele>
<time>2024-08-30T14:07:47.429Z</time>
</trkpt>
<trkpt lat="31.7988000" lon="34.9576900">
<ele>164.229996</ele>
<time>2024-08-30T14:07:47.429Z</time>
</trkpt>
<trkpt lat="31.7988000" lon="34.9576900">
<ele>164.229996</ele>
<time>2024-08-30T14:07:47.429Z</time>
</trkpt>
<trkpt lat="31.7985000" lon="34.9578500">
<ele>159.809998</ele>
<time>2024-08-30T14:07:47.429Z</time>
</trkpt>
<trkpt lat="31.7981400" lon="34.9582000">
<ele>163.070007</ele>
<time>2024-08-30T14:07:47.429Z</time>
</trkpt>
<trkpt lat="31.7980100" lon="34.9583700">
<ele>164.959991</ele>
<time>2024-08-30T14:07:47.430Z</time>
</trkpt>
<trkpt lat="31.7978000" lon="34.9588100">
<ele>171.039993</ele>
<time>2024-08-30T14:07:47.430Z</time>
</trkpt>
<trkpt lat="31.7975900" lon="34.9591700">
<ele>172.299988</ele>
<time>2024-08-30T14:07:47.430Z</time>
</trkpt>
<trkpt lat="31.7973900" lon="34.9593600">
<ele>170.660004</ele>
<time>2024-08-30T14:07:47.430Z</time>
</trkpt>
<trkpt lat="31.7972800" lon="34.9594400">
<ele>170.229996</ele>
<time>2024-08-30T14:07:47.430Z</time>
</trkpt>
<trkpt lat="31.7971800" lon="34.9595300">
<ele>172.539993</ele>
<time>2024-08-30T14:07:47.430Z</time>
</trkpt>
<trkpt lat="31.7970800" lon="34.9596500">
<ele>174.990005</ele>
<time>2024-08-30T14:07:47.430Z</time>
</trkpt>
<trkpt lat="31.7970200" lon="34.9597400">
<ele>175.339996</ele>
<time>2024-08-30T14:07:47.430Z</time>
</trkpt>
<trkpt lat="31.7969700" lon="34.9597900">
<ele>175.339996</ele>
<time>2024-08-30T14:07:47.430Z</time>
</trkpt>
<trkpt lat="31.7968800" lon="34.9598600">
<ele>176.429993</ele>
<time>2024-08-30T14:07:47.430Z</time>
</trkpt>
<trkpt lat="31.7968400" lon="34.9599000">
<ele>177.040009</ele>
<time>2024-08-30T14:07:47.430Z</time>
</trkpt>
<trkpt lat="31.7968000" lon="34.9599400">
<ele>177.569992</ele>
<time>2024-08-30T14:07:47.430Z</time>
</trkpt>
<trkpt lat="31.7968000" lon="34.9599400">
<ele>177.569992</ele>
<time>2024-08-30T14:07:47.430Z</time>
</trkpt>
<trkpt lat="31.7968000" lon="34.9599400">
<ele>177.569992</ele>
<time>2024-08-30T14:07:47.430Z</time>
</trkpt>
<trkpt lat="31.7965500" lon="34.9602100">
<ele>181.440002</ele>
<time>2024-08-30T14:07:47.430Z</time>
</trkpt>
<trkpt lat="31.7962400" lon="34.9605200">
<ele>180.109985</ele>
<time>2024-08-30T14:07:47.430Z</time>
</trkpt>
<trkpt lat="31.7961200" lon="34.9606500">
<ele>178.490005</ele>
<time>2024-08-30T14:07:47.430Z</time>
</trkpt>
<trkpt lat="31.7960500" lon="34.9607700">
<ele>178.399994</ele>
<time>2024-08-30T14:07:47.430Z</time>
</trkpt>
<trkpt lat="31.7960300" lon="34.9609100">
<ele>180.320007</ele>
<time>2024-08-30T14:07:47.430Z</time>
</trkpt>
<trkpt lat="31.7961000" lon="34.9610500">
<ele>184.300003</ele>
<time>2024-08-30T14:07:47.430Z</time>
</trkpt>
<trkpt lat="31.7961100" lon="34.9611300">
<ele>186.250015</ele>
<time>2024-08-30T14:07:47.430Z</time>
</trkpt>
<trkpt lat="31.7960900" lon="34.9612200">
<ele>187.160004</ele>
<time>2024-08-30T14:07:47.430Z</time>
</trkpt>
<trkpt lat="31.7960500" lon="34.9612800">
<ele>187.199997</ele>
<time>2024-08-30T14:07:47.430Z</time>
</trkpt>
<trkpt lat="31.7958700" lon="34.9614300">
<ele>185.710007</ele>
<time>2024-08-30T14:07:47.430Z</time>
</trkpt>
<trkpt lat="31.7957400" lon="34.9615800">
<ele>187.680008</ele>
<time>2024-08-30T14:07:47.430Z</time>
</trkpt>
<trkpt lat="31.7955700" lon="34.9618600">
<ele>192.119995</ele>
<time>2024-08-30T14:07:47.430Z</time>
</trkpt>
<trkpt lat="31.7955600" lon="34.9619400">
<ele>193.970001</ele>
<time>2024-08-30T14:07:47.431Z</time>
</trkpt>
<trkpt lat="31.7955800" lon="34.9621000">
<ele>196.070007</ele>
<time>2024-08-30T14:07:47.431Z</time>
</trkpt>
<trkpt lat="31.7956600" lon="34.9624200">
<ele>199.660004</ele>
<time>2024-08-30T14:07:47.431Z</time>
</trkpt>
<trkpt lat="31.7957000" lon="34.9625400">
<ele>200.699997</ele>
<time>2024-08-30T14:07:47.431Z</time>
</trkpt>
<trkpt lat="31.7957300" lon="34.9627100">
<ele>201.449997</ele>
<time>2024-08-30T14:07:47.431Z</time>
</trkpt>
<trkpt lat="31.7957400" lon="34.9627900">
<ele>201.649994</ele>
<time>2024-08-30T14:07:47.431Z</time>
</trkpt>
<trkpt lat="31.7957500" lon="34.9628800">
<ele>201.589996</ele>
<time>2024-08-30T14:07:47.431Z</time>
</trkpt>
<trkpt lat="31.7957600" lon="34.9629900">
<ele>201.529999</ele>
<time>2024-08-30T14:07:47.431Z</time>
</trkpt>
<trkpt lat="31.7957700" lon="34.9630800">
<ele>201.520004</ele>
<time>2024-08-30T14:07:47.431Z</time>
</trkpt>
<trkpt lat="31.7957800" lon="34.9634100">
<ele>201.419998</ele>
<time>2024-08-30T14:07:47.431Z</time>
</trkpt>
<trkpt lat="31.7957800" lon="34.9635300">
<ele>201.419998</ele>
<time>2024-08-30T14:07:47.431Z</time>
</trkpt>
<trkpt lat="31.7958000" lon="34.9638600">
<ele>202.639999</ele>
<time>2024-08-30T14:07:47.431Z</time>
</trkpt>
<trkpt lat="31.7958100" lon="34.9640700">
<ele>202.940002</ele>
<time>2024-08-30T14:07:47.431Z</time>
</trkpt>
<trkpt lat="31.7957900" lon="34.9641900">
<ele>202.919998</ele>
<time>2024-08-30T14:07:47.431Z</time>
</trkpt>
<trkpt lat="31.7957600" lon="34.9642600">
<ele>202.660004</ele>
<time>2024-08-30T14:07:47.431Z</time>
</trkpt>
<trkpt lat="31.7957200" lon="34.9644100">
<ele>202.119995</ele>
<time>2024-08-30T14:07:47.431Z</time>
</trkpt>
<trkpt lat="31.7956900" lon="34.9645200">
<ele>201.879990</ele>
<time>2024-08-30T14:07:47.431Z</time>
</trkpt>
<trkpt lat="31.7956400" lon="34.9646300">
<ele>202.059998</ele>
<time>2024-08-30T14:07:47.431Z</time>
</trkpt>
<trkpt lat="31.7956200" lon="34.9646500">
<ele>202.219986</ele>
<time>2024-08-30T14:07:47.431Z</time>
</trkpt>
<trkpt lat="31.7955700" lon="34.9647000">
<ele>202.779999</ele>
<time>2024-08-30T14:07:47.431Z</time>
</trkpt>
<trkpt lat="31.7955300" lon="34.9647200">
<ele>203.269989</ele>
<time>2024-08-30T14:07:47.431Z</time>
</trkpt>
<trkpt lat="31.7952600" lon="34.9650000">
<ele>207.999985</ele>
<time>2024-08-30T14:07:47.431Z</time>
</trkpt>
<trkpt lat="31.7950900" lon="34.9652600">
<ele>208.939987</ele>
<time>2024-08-30T14:07:47.431Z</time>
</trkpt>
<trkpt lat="31.7950800" lon="34.9652800">
<ele>208.989990</ele>
<time>2024-08-30T14:07:47.431Z</time>
</trkpt>
<trkpt lat="31.7950300" lon="34.9653400">
<ele>208.750000</ele>
<time>2024-08-30T14:07:47.431Z</time>
</trkpt>
<trkpt lat="31.7949400" lon="34.9654500">
<ele>208.429993</ele>
<time>2024-08-30T14:07:47.431Z</time>
</trkpt>
<trkpt lat="31.7949000" lon="34.9655300">
<ele>208.389999</ele>
<time>2024-08-30T14:07:47.431Z</time>
</trkpt>
<trkpt lat="31.7949000" lon="34.9655300">
<ele>208.389999</ele>
<time>2024-08-30T14:07:47.432Z</time>
</trkpt>
<trkpt lat="31.7949000" lon="34.9655300">
<ele>208.389999</ele>
<time>2024-08-30T14:07:47.432Z</time>
</trkpt>
<trkpt lat="31.7947400" lon="34.9658800">
<ele>210.190002</ele>
<time>2024-08-30T14:07:47.432Z</time>
</trkpt>
<trkpt lat="31.7944800" lon="34.9664500">
<ele>217.789993</ele>
<time>2024-08-30T14:07:47.432Z</time>
</trkpt>
<trkpt lat="31.7943900" lon="34.9666200">
<ele>220.929993</ele>
<time>2024-08-30T14:07:47.432Z</time>
</trkpt>
<trkpt lat="31.7943100" lon="34.9667700">
<ele>221.580002</ele>
<time>2024-08-30T14:07:47.432Z</time>
</trkpt>
<trkpt lat="31.7942600" lon="34.9669500">
<ele>222.319992</ele>
<time>2024-08-30T14:07:47.432Z</time>
</trkpt>
<trkpt lat="31.7942500" lon="34.9670900">
<ele>221.990005</ele>
<time>2024-08-30T14:07:47.432Z</time>
</trkpt>
<trkpt lat="31.7943200" lon="34.9675700">
<ele>220.119995</ele>
<time>2024-08-30T14:07:47.432Z</time>
</trkpt>
<trkpt lat="31.7942900" lon="34.9678700">
<ele>220.889999</ele>
<time>2024-08-30T14:07:47.432Z</time>
</trkpt>
<trkpt lat="31.7942800" lon="34.9683000">
<ele>220.730011</ele>
<time>2024-08-30T14:07:47.432Z</time>
</trkpt>
<trkpt lat="31.7942600" lon="34.9686700">
<ele>221.119995</ele>
<time>2024-08-30T14:07:47.432Z</time>
</trkpt>
<trkpt lat="31.7941800" lon="34.9690800">
<ele>220.250000</ele>
<time>2024-08-30T14:07:47.432Z</time>
</trkpt>
<trkpt lat="31.7941800" lon="34.9692100">
<ele>220.399994</ele>
<time>2024-08-30T14:07:47.432Z</time>
</trkpt>
<trkpt lat="31.7942200" lon="34.9693400">
<ele>221.319992</ele>
<time>2024-08-30T14:07:47.432Z</time>
</trkpt>
<trkpt lat="31.7942600" lon="34.9694500">
<ele>221.729996</ele>
<time>2024-08-30T14:07:47.432Z</time>
</trkpt>
<trkpt lat="31.7943400" lon="34.9695700">
<ele>221.639999</ele>
<time>2024-08-30T14:07:47.432Z</time>
</trkpt>
<trkpt lat="31.7944500" lon="34.9696600">
<ele>219.579987</ele>
<time>2024-08-30T14:07:47.432Z</time>
</trkpt>
<trkpt lat="31.7945400" lon="34.9697000">
<ele>216.539993</ele>
<time>2024-08-30T14:07:47.432Z</time>
</trkpt>
<trkpt lat="31.7947900" lon="34.9697300">
<ele>208.360001</ele>
<time>2024-08-30T14:07:47.432Z</time>
</trkpt>
<trkpt lat="31.7948900" lon="34.9697500">
<ele>206.090012</ele>
<time>2024-08-30T14:07:47.432Z</time>
</trkpt>
<trkpt lat="31.7948900" lon="34.9697500">
<ele>206.090012</ele>
<time>2024-08-30T14:07:47.432Z</time>
</trkpt>
<trkpt lat="31.7948900" lon="34.9697500">
<ele>206.090012</ele>
<time>2024-08-30T14:07:47.432Z</time>
</trkpt>
<trkpt lat="31.7950100" lon="34.9697900">
<ele>203.950012</ele>
<time>2024-08-30T14:07:47.432Z</time>
</trkpt>
<trkpt lat="31.7951100" lon="34.9699700">
<ele>205.510010</ele>
<time>2024-08-30T14:07:47.432Z</time>
</trkpt>
<trkpt lat="31.7953100" lon="34.9701400">
<ele>204.599991</ele>
<time>2024-08-30T14:07:47.432Z</time>
</trkpt>
<trkpt lat="31.7954400" lon="34.9703900">
<ele>204.470001</ele>
<time>2024-08-30T14:07:47.433Z</time>
</trkpt>
<trkpt lat="31.7956200" lon="34.9706200">
<ele>203.540009</ele>
<time>2024-08-30T14:07:47.433Z</time>
</trkpt>
<trkpt lat="31.7956700" lon="34.9706800">
<ele>203.279999</ele>
<time>2024-08-30T14:07:47.433Z</time>
</trkpt>
<trkpt lat="31.7954700" lon="34.9708400">
<ele>209.289993</ele>
<time>2024-08-30T14:07:47.433Z</time>
</trkpt>
<trkpt lat="31.7954100" lon="34.9709300">
<ele>212.770004</ele>
<time>2024-08-30T14:07:47.433Z</time>
</trkpt>
<trkpt lat="31.7951800" lon="34.9716700">
<ele>227.720001</ele>
<time>2024-08-30T14:07:47.433Z</time>
</trkpt>
<trkpt lat="31.7951300" lon="34.9719600">
<ele>225.420013</ele>
<time>2024-08-30T14:07:47.433Z</time>
</trkpt>
<trkpt lat="31.7950800" lon="34.9721200">
<ele>223.910004</ele>
<time>2024-08-30T14:07:47.433Z</time>
</trkpt>
<trkpt lat="31.7948300" lon="34.9725600">
<ele>217.370010</ele>
<time>2024-08-30T14:07:47.433Z</time>
</trkpt>
<trkpt lat="31.7945900" lon="34.9730200">
<ele>216.020004</ele>
<time>2024-08-30T14:07:47.433Z</time>
</trkpt>
<trkpt lat="31.7944300" lon="34.9731700">
<ele>220.210007</ele>
<time>2024-08-30T14:07:47.433Z</time>
</trkpt>
<trkpt lat="31.7944100" lon="34.9731300">
<ele>219.680008</ele>
<time>2024-08-30T14:07:47.433Z</time>
</trkpt>
<trkpt lat="31.7944100" lon="34.9731300">
<ele>219.680008</ele>
<time>2024-08-30T14:07:47.433Z</time>
</trkpt>
<trkpt lat="31.7944300" lon="34.9731700">
<ele>220.210007</ele>
<time>2024-08-30T14:07:47.433Z</time>
</trkpt>
<trkpt lat="31.7943200" lon="34.9729900">
<ele>220.139999</ele>
<time>2024-08-30T14:07:47.433Z</time>
</trkpt>
<trkpt lat="31.7941900" lon="34.9728800">
<ele>223.409988</ele>
<time>2024-08-30T14:07:47.433Z</time>
</trkpt>
<trkpt lat="31.7939000" lon="34.9727100">
<ele>232.930008</ele>
<time>2024-08-30T14:07:47.433Z</time>
</trkpt>
<trkpt lat="31.7936400" lon="34.9725900">
<ele>234.519989</ele>
<time>2024-08-30T14:07:47.433Z</time>
</trkpt>
<trkpt lat="31.7935700" lon="34.9725700">
<ele>234.179993</ele>
<time>2024-08-30T14:07:47.433Z</time>
</trkpt>
<trkpt lat="31.7935700" lon="34.9725700">
<ele>234.179993</ele>
<time>2024-08-30T14:07:47.433Z</time>
</trkpt>
<trkpt lat="31.7935700" lon="34.9725700">
<ele>234.179993</ele>
<time>2024-08-30T14:07:47.433Z</time>
</trkpt>
<trkpt lat="31.7936400" lon="34.9725900">
<ele>234.519989</ele>
<time>2024-08-30T14:07:47.433Z</time>
</trkpt>
<trkpt lat="31.7936000" lon="34.9726800">
<ele>236.120010</ele>
<time>2024-08-30T14:07:47.433Z</time>
</trkpt>
<trkpt lat="31.7936400" lon="34.9727400">
<ele>236.879990</ele>
<time>2024-08-30T14:07:47.433Z</time>
</trkpt>
<trkpt lat="31.7937900" lon="34.9730500">
<ele>235.130005</ele>
<time>2024-08-30T14:07:47.433Z</time>
</trkpt>
<trkpt lat="31.7938300" lon="34.9731200">
<ele>233.839996</ele>
<time>2024-08-30T14:07:47.433Z</time>
</trkpt>
<trkpt lat="31.7939300" lon="34.9733900">
<ele>231.240005</ele>
<time>2024-08-30T14:07:47.433Z</time>
</trkpt>
<trkpt lat="31.7939200" lon="34.9734600">
<ele>230.910004</ele>
<time>2024-08-30T14:07:47.434Z</time>
</trkpt>
<trkpt lat="31.7938800" lon="34.9736200">
<ele>229.970001</ele>
<time>2024-08-30T14:07:47.434Z</time>
</trkpt>
<trkpt lat="31.7938000" lon="34.9738100">
<ele>229.680008</ele>
<time>2024-08-30T14:07:47.434Z</time>
</trkpt>
<trkpt lat="31.7937400" lon="34.9738600">
<ele>229.460007</ele>
<time>2024-08-30T14:07:47.434Z</time>
</trkpt>
<trkpt lat="31.7935500" lon="34.9740800">
<ele>227.620010</ele>
<time>2024-08-30T14:07:47.434Z</time>
</trkpt>
<trkpt lat="31.7934800" lon="34.9741500">
<ele>227.119995</ele>
<time>2024-08-30T14:07:47.434Z</time>
</trkpt>
<trkpt lat="31.7934000" lon="34.9742200">
<ele>226.660004</ele>
<time>2024-08-30T14:07:47.434Z</time>
</trkpt>
<trkpt lat="31.7933000" lon="34.9742100">
<ele>227.669998</ele>
<time>2024-08-30T14:07:47.434Z</time>
</trkpt>
<trkpt lat="31.7932100" lon="34.9742100">
<ele>230.309998</ele>
<time>2024-08-30T14:07:47.434Z</time>
</trkpt>
<trkpt lat="31.7931000" lon="34.9743000">
<ele>233.160004</ele>
<time>2024-08-30T14:07:47.434Z</time>
</trkpt>
<trkpt lat="31.7930600" lon="34.9743300">
<ele>234.270004</ele>
<time>2024-08-30T14:07:47.434Z</time>
</trkpt>
<trkpt lat="31.7929800" lon="34.9744200">
<ele>236.039993</ele>
<time>2024-08-30T14:07:47.434Z</time>
</trkpt>
<trkpt lat="31.7928300" lon="34.9745700">
<ele>238.240005</ele>
<time>2024-08-30T14:07:47.434Z</time>
</trkpt>
<trkpt lat="31.7927100" lon="34.9747100">
<ele>237.900009</ele>
<time>2024-08-30T14:07:47.434Z</time>
</trkpt>
<trkpt lat="31.7924300" lon="34.9749600">
<ele>236.690002</ele>
<time>2024-08-30T14:07:47.434Z</time>
</trkpt>
<trkpt lat="31.7923500" lon="34.9750500">
<ele>238.670013</ele>
<time>2024-08-30T14:07:47.434Z</time>
</trkpt>
<trkpt lat="31.7922800" lon="34.9752000">
<ele>240.919998</ele>
<time>2024-08-30T14:07:47.434Z</time>
</trkpt>
<trkpt lat="31.7922000" lon="34.9753700">
<ele>243.709991</ele>
<time>2024-08-30T14:07:47.434Z</time>
</trkpt>
<trkpt lat="31.7921100" lon="34.9754900">
<ele>245.919998</ele>
<time>2024-08-30T14:07:47.434Z</time>
</trkpt>
<trkpt lat="31.7920400" lon="34.9756200">
<ele>247.309998</ele>
<time>2024-08-30T14:07:47.434Z</time>
</trkpt>
<trkpt lat="31.7919800" lon="34.9757700">
<ele>247.870010</ele>
<time>2024-08-30T14:07:47.434Z</time>
</trkpt>
<trkpt lat="31.7919200" lon="34.9759000">
<ele>247.939987</ele>
<time>2024-08-30T14:07:47.434Z</time>
</trkpt>
<trkpt lat="31.7919200" lon="34.9759000">
<ele>247.939987</ele>
<time>2024-08-30T14:07:47.434Z</time>
</trkpt>
<trkpt lat="31.7919200" lon="34.9759000">
<ele>247.939987</ele>
<time>2024-08-30T14:07:47.434Z</time>
</trkpt>
<trkpt lat="31.7919100" lon="34.9759300">
<ele>247.870010</ele>
<time>2024-08-30T14:07:47.434Z</time>
</trkpt>
<trkpt lat="31.7918600" lon="34.9760200">
<ele>247.389999</ele>
<time>2024-08-30T14:07:47.434Z</time>
</trkpt>
<trkpt lat="31.7918100" lon="34.9761300">
<ele>246.520004</ele>
<time>2024-08-30T14:07:47.435Z</time>
</trkpt>
<trkpt lat="31.7917500" lon="34.9762200">
<ele>245.629990</ele>
<time>2024-08-30T14:07:47.435Z</time>
</trkpt>
<trkpt lat="31.7915900" lon="34.9763900">
<ele>244.550003</ele>
<time>2024-08-30T14:07:47.435Z</time>
</trkpt>
<trkpt lat="31.7914000" lon="34.9766000">
<ele>243.760010</ele>
<time>2024-08-30T14:07:47.435Z</time>
</trkpt>
<trkpt lat="31.7912500" lon="34.9767100">
<ele>242.770004</ele>
<time>2024-08-30T14:07:47.435Z</time>
</trkpt>
<trkpt lat="31.7910300" lon="34.9768000">
<ele>242.500000</ele>
<time>2024-08-30T14:07:47.435Z</time>
</trkpt>
<trkpt lat="31.7909200" lon="34.9768300">
<ele>242.670013</ele>
<time>2024-08-30T14:07:47.435Z</time>
</trkpt>
<trkpt lat="31.7907400" lon="34.9768100">
<ele>244.080002</ele>
<time>2024-08-30T14:07:47.435Z</time>
</trkpt>
<trkpt lat="31.7906100" lon="34.9768300">
<ele>244.529999</ele>
<time>2024-08-30T14:07:47.435Z</time>
</trkpt>
<trkpt lat="31.7903000" lon="34.9768700">
<ele>244.369995</ele>
<time>2024-08-30T14:07:47.435Z</time>
</trkpt>
<trkpt lat="31.7901000" lon="34.9768200">
<ele>248.239990</ele>
<time>2024-08-30T14:07:47.435Z</time>
</trkpt>
<trkpt lat="31.7899500" lon="34.9767500">
<ele>252.519989</ele>
<time>2024-08-30T14:07:47.435Z</time>
</trkpt>
<trkpt lat="31.7895300" lon="34.9765300">
<ele>256.750000</ele>
<time>2024-08-30T14:07:47.435Z</time>
</trkpt>
<trkpt lat="31.7893500" lon="34.9764700">
<ele>255.500000</ele>
<time>2024-08-30T14:07:47.435Z</time>
</trkpt>
<trkpt lat="31.7892400" lon="34.9764600">
<ele>254.469986</ele>
<time>2024-08-30T14:07:47.435Z</time>
</trkpt>
<trkpt lat="31.7890300" lon="34.9764700">
<ele>252.029999</ele>
<time>2024-08-30T14:07:47.435Z</time>
</trkpt>
<trkpt lat="31.7888500" lon="34.9765400">
<ele>249.739990</ele>
<time>2024-08-30T14:07:47.435Z</time>
</trkpt>
<trkpt lat="31.7887500" lon="34.9765800">
<ele>247.469986</ele>
<time>2024-08-30T14:07:47.435Z</time>
</trkpt>
<trkpt lat="31.7885700" lon="34.9766500">
<ele>242.979996</ele>
<time>2024-08-30T14:07:47.435Z</time>
</trkpt>
<trkpt lat="31.7883700" lon="34.9767100">
<ele>240.919998</ele>
<time>2024-08-30T14:07:47.435Z</time>
</trkpt>
<trkpt lat="31.7882500" lon="34.9767100">
<ele>242.330002</ele>
<time>2024-08-30T14:07:47.435Z</time>
</trkpt>
<trkpt lat="31.7881600" lon="34.9767200">
<ele>244.170013</ele>
<time>2024-08-30T14:07:47.435Z</time>
</trkpt>
<trkpt lat="31.7880600" lon="34.9767400">
<ele>246.110001</ele>
<time>2024-08-30T14:07:47.435Z</time>
</trkpt>
<trkpt lat="31.7879300" lon="34.9767100">
<ele>247.129990</ele>
<time>2024-08-30T14:07:47.435Z</time>
</trkpt>
<trkpt lat="31.7878700" lon="34.9767000">
<ele>247.469986</ele>
<time>2024-08-30T14:07:47.435Z</time>
</trkpt>
<trkpt lat="31.7877900" lon="34.9767700">
<ele>247.550003</ele>
<time>2024-08-30T14:07:47.435Z</time>
</trkpt>
<trkpt lat="31.7878100" lon="34.9769000">
<ele>246.849991</ele>
<time>2024-08-30T14:07:47.436Z</time>
</trkpt>
<trkpt lat="31.7878400" lon="34.9770500">
<ele>245.909988</ele>
<time>2024-08-30T14:07:47.436Z</time>
</trkpt>
<trkpt lat="31.7879000" lon="34.9774200">
<ele>242.589996</ele>
<time>2024-08-30T14:07:47.436Z</time>
</trkpt>
<trkpt lat="31.7878900" lon="34.9775600">
<ele>240.970001</ele>
<time>2024-08-30T14:07:47.436Z</time>
</trkpt>
<trkpt lat="31.7878100" lon="34.9777600">
<ele>239.240005</ele>
<time>2024-08-30T14:07:47.436Z</time>
</trkpt>
<trkpt lat="31.7877800" lon="34.9778200">
<ele>238.860001</ele>
<time>2024-08-30T14:07:47.436Z</time>
</trkpt>
<trkpt lat="31.7877500" lon="34.9778900">
<ele>238.419998</ele>
<time>2024-08-30T14:07:47.436Z</time>
</trkpt>
<trkpt lat="31.7876000" lon="34.9780600">
<ele>236.120010</ele>
<time>2024-08-30T14:07:47.436Z</time>
</trkpt>
<trkpt lat="31.7875500" lon="34.9781500">
<ele>236.440002</ele>
<time>2024-08-30T14:07:47.436Z</time>
</trkpt>
<trkpt lat="31.7875000" lon="34.9781500">
<ele>236.019989</ele>
<time>2024-08-30T14:07:47.436Z</time>
</trkpt>
<trkpt lat="31.7872100" lon="34.9781400">
<ele>233.149994</ele>
<time>2024-08-30T14:07:47.436Z</time>
</trkpt>
<trkpt lat="31.7863400" lon="34.9782900">
<ele>226.129990</ele>
<time>2024-08-30T14:07:47.436Z</time>
</trkpt>
<trkpt lat="31.7859200" lon="34.9782900">
<ele>234.029999</ele>
<time>2024-08-30T14:07:47.436Z</time>
</trkpt>
<trkpt lat="31.7857700" lon="34.9782400">
<ele>238.220001</ele>
<time>2024-08-30T14:07:47.436Z</time>
</trkpt>
<trkpt lat="31.7857700" lon="34.9782400">
<ele>238.220001</ele>
<time>2024-08-30T14:07:47.436Z</time>
</trkpt>
<trkpt lat="31.7857700" lon="34.9782400">
<ele>238.220001</ele>
<time>2024-08-30T14:07:47.436Z</time>
</trkpt>
<trkpt lat="31.7856200" lon="34.9781800">
<ele>241.260010</ele>
<time>2024-08-30T14:07:47.436Z</time>
</trkpt>
<trkpt lat="31.7852000" lon="34.9778000">
<ele>253.979996</ele>
<time>2024-08-30T14:07:47.436Z</time>
</trkpt>
<trkpt lat="31.7849100" lon="34.9776200">
<ele>256.359985</ele>
<time>2024-08-30T14:07:47.436Z</time>
</trkpt>
<trkpt lat="31.7846100" lon="34.9775400">
<ele>258.869995</ele>
<time>2024-08-30T14:07:47.436Z</time>
</trkpt>
<trkpt lat="31.7845600" lon="34.9774500">
<ele>259.269989</ele>
<time>2024-08-30T14:07:47.436Z</time>
</trkpt>
<trkpt lat="31.7846000" lon="34.9773500">
<ele>259.119995</ele>
<time>2024-08-30T14:07:47.436Z</time>
</trkpt>
<trkpt lat="31.7846700" lon="34.9772900">
<ele>258.519989</ele>
<time>2024-08-30T14:07:47.436Z</time>
</trkpt>
<trkpt lat="31.7849200" lon="34.9772600">
<ele>257.190002</ele>
<time>2024-08-30T14:07:47.436Z</time>
</trkpt>
<trkpt lat="31.7852100" lon="34.9771600">
<ele>257.730011</ele>
<time>2024-08-30T14:07:47.436Z</time>
</trkpt>
<trkpt lat="31.7855000" lon="34.9769300">
<ele>258.000000</ele>
<time>2024-08-30T14:07:47.436Z</time>
</trkpt>
<trkpt lat="31.7855400" lon="34.9769300">
<ele>257.579987</ele>
<time>2024-08-30T14:07:47.436Z</time>
</trkpt>
<trkpt lat="31.7856000" lon="34.9769200">
<ele>257.880005</ele>
<time>2024-08-30T14:07:47.437Z</time>
</trkpt>
<trkpt lat="31.7858900" lon="34.9770500">
<ele>257.699982</ele>
<time>2024-08-30T14:07:47.437Z</time>
</trkpt>
<trkpt lat="31.7860000" lon="34.9770500">
<ele>260.079987</ele>
<time>2024-08-30T14:07:47.437Z</time>
</trkpt>
<trkpt lat="31.7860200" lon="34.9769400">
<ele>262.119995</ele>
<time>2024-08-30T14:07:47.437Z</time>
</trkpt>
<trkpt lat="31.7860000" lon="34.9768800">
<ele>262.989990</ele>
<time>2024-08-30T14:07:47.437Z</time>
</trkpt>
<trkpt lat="31.7859600" lon="34.9768200">
<ele>263.750000</ele>
<time>2024-08-30T14:07:47.437Z</time>
</trkpt>
<trkpt lat="31.7854400" lon="34.9765500">
<ele>268.149994</ele>
<time>2024-08-30T14:07:47.437Z</time>
</trkpt>
<trkpt lat="31.7854500" lon="34.9764700">
<ele>270.139984</ele>
<time>2024-08-30T14:07:47.437Z</time>
</trkpt>
<trkpt lat="31.7854900" lon="34.9764500">
<ele>271.149994</ele>
<time>2024-08-30T14:07:47.437Z</time>
</trkpt>
<trkpt lat="31.7857100" lon="34.9764700">
<ele>273.269989</ele>
<time>2024-08-30T14:07:47.437Z</time>
</trkpt>
<trkpt lat="31.7864400" lon="34.9766200">
<ele>264.950012</ele>
<time>2024-08-30T14:07:47.437Z</time>
</trkpt>
<trkpt lat="31.7865400" lon="34.9765800">
<ele>263.240021</ele>
<time>2024-08-30T14:07:47.437Z</time>
</trkpt>
<trkpt lat="31.7866700" lon="34.9764000">
<ele>261.869995</ele>
<time>2024-08-30T14:07:47.437Z</time>
</trkpt>
<trkpt lat="31.7867300" lon="34.9761000">
<ele>264.850006</ele>
<time>2024-08-30T14:07:47.437Z</time>
</trkpt>
<trkpt lat="31.7866800" lon="34.9757600">
<ele>266.949982</ele>
<time>2024-08-30T14:07:47.437Z</time>
</trkpt>
<trkpt lat="31.7863300" lon="34.9752500">
<ele>280.160004</ele>
<time>2024-08-30T14:07:47.437Z</time>
</trkpt>
<trkpt lat="31.7863300" lon="34.9752500">
<ele>280.160004</ele>
<time>2024-08-30T14:07:47.437Z</time>
</trkpt>
<trkpt lat="31.7863300" lon="34.9752500">
<ele>280.160004</ele>
<time>2024-08-30T14:07:47.437Z</time>
</trkpt>
<trkpt lat="31.7863100" lon="34.9752100">
<ele>280.880005</ele>
<time>2024-08-30T14:07:47.437Z</time>
</trkpt>
<trkpt lat="31.7860800" lon="34.9748100">
<ele>286.670013</ele>
<time>2024-08-30T14:07:47.437Z</time>
</trkpt>
<trkpt lat="31.7858800" lon="34.9745900">
<ele>293.220001</ele>
<time>2024-08-30T14:07:47.437Z</time>
</trkpt>
<trkpt lat="31.7858400" lon="34.9743800">
<ele>296.399994</ele>
<time>2024-08-30T14:07:47.437Z</time>
</trkpt>
<trkpt lat="31.7858500" lon="34.9742200">
<ele>297.399994</ele>
<time>2024-08-30T14:07:47.437Z</time>
</trkpt>
<trkpt lat="31.7856700" lon="34.9743700">
<ele>298.570007</ele>
<time>2024-08-30T14:07:47.437Z</time>
</trkpt>
<trkpt lat="31.7855300" lon="34.9746600">
<ele>295.019989</ele>
<time>2024-08-30T14:07:47.437Z</time>
</trkpt>
<trkpt lat="31.7853300" lon="34.9748100">
<ele>297.830017</ele>
<time>2024-08-30T14:07:47.437Z</time>
</trkpt>
<trkpt lat="31.7852700" lon="34.9749200">
<ele>299.730011</ele>
<time>2024-08-30T14:07:47.438Z</time>
</trkpt>
<trkpt lat="31.7852000" lon="34.9750900">
<ele>299.070007</ele>
<time>2024-08-30T14:07:47.438Z</time>
</trkpt>
<trkpt lat="31.7851200" lon="34.9751700">
<ele>298.940002</ele>
<time>2024-08-30T14:07:47.438Z</time>
</trkpt>
<trkpt lat="31.7849300" lon="34.9752300">
<ele>299.079987</ele>
<time>2024-08-30T14:07:47.438Z</time>
</trkpt>
<trkpt lat="31.7847700" lon="34.9752900">
<ele>296.649994</ele>
<time>2024-08-30T14:07:47.438Z</time>
</trkpt>
<trkpt lat="31.7846400" lon="34.9754300">
<ele>295.700012</ele>
<time>2024-08-30T14:07:47.438Z</time>
</trkpt>
<trkpt lat="31.7844800" lon="34.9755700">
<ele>295.119995</ele>
<time>2024-08-30T14:07:47.438Z</time>
</trkpt>
<trkpt lat="31.7840900" lon="34.9755000">
<ele>293.570007</ele>
<time>2024-08-30T14:07:47.438Z</time>
</trkpt>
<trkpt lat="31.7834900" lon="34.9753600">
<ele>299.190002</ele>
<time>2024-08-30T14:07:47.438Z</time>
</trkpt>
<trkpt lat="31.7834900" lon="34.9753600">
<ele>299.190002</ele>
<time>2024-08-30T14:07:47.438Z</time>
</trkpt>
<trkpt lat="31.7834900" lon="34.9753600">
<ele>299.190002</ele>
<time>2024-08-30T14:07:47.438Z</time>
</trkpt>
<trkpt lat="31.7825200" lon="34.9751400">
<ele>298.889984</ele>
<time>2024-08-30T14:07:47.438Z</time>
</trkpt>
<trkpt lat="31.7824300" lon="34.9751200">
<ele>297.190002</ele>
<time>2024-08-30T14:07:47.438Z</time>
</trkpt>
<trkpt lat="31.7822300" lon="34.9750500">
<ele>293.630005</ele>
<time>2024-08-30T14:07:47.438Z</time>
</trkpt>
<trkpt lat="31.7821000" lon="34.9750200">
<ele>293.779999</ele>
<time>2024-08-30T14:07:47.438Z</time>
</trkpt>
<trkpt lat="31.7819300" lon="34.9749600">
<ele>294.970001</ele>
<time>2024-08-30T14:07:47.438Z</time>
</trkpt>
<trkpt lat="31.7818600" lon="34.9749900">
<ele>295.690002</ele>
<time>2024-08-30T14:07:47.438Z</time>
</trkpt>
<trkpt lat="31.7816700" lon="34.9749800">
<ele>299.230011</ele>
<time>2024-08-30T14:07:47.438Z</time>
</trkpt>
<trkpt lat="31.7814800" lon="34.9748600">
<ele>302.700012</ele>
<time>2024-08-30T14:07:47.438Z</time>
</trkpt>
<trkpt lat="31.7811700" lon="34.9748200">
<ele>306.709991</ele>
<time>2024-08-30T14:07:47.438Z</time>
</trkpt>
<trkpt lat="31.7810600" lon="34.9748700">
<ele>307.570007</ele>
<time>2024-08-30T14:07:47.438Z</time>
</trkpt>
<trkpt lat="31.7810000" lon="34.9749500">
<ele>307.630005</ele>
<time>2024-08-30T14:07:47.438Z</time>
</trkpt>
<trkpt lat="31.7810300" lon="34.9750600">
<ele>306.380005</ele>
<time>2024-08-30T14:07:47.438Z</time>
</trkpt>
<trkpt lat="31.7810800" lon="34.9751600">
<ele>305.119995</ele>
<time>2024-08-30T14:07:47.438Z</time>
</trkpt>
<trkpt lat="31.7812000" lon="34.9752400">
<ele>303.179993</ele>
<time>2024-08-30T14:07:47.438Z</time>
</trkpt>
<trkpt lat="31.7812600" lon="34.9753300">
<ele>302.100006</ele>
<time>2024-08-30T14:07:47.438Z</time>
</trkpt>
<trkpt lat="31.7813000" lon="34.9754500">
<ele>300.919983</ele>
<time>2024-08-30T14:07:47.439Z</time>
</trkpt>
<trkpt lat="31.7813100" lon="34.9755900">
<ele>300.140015</ele>
<time>2024-08-30T14:07:47.439Z</time>
</trkpt>
<trkpt lat="31.7813100" lon="34.9756900">
<ele>300.140015</ele>
<time>2024-08-30T14:07:47.439Z</time>
</trkpt>
<trkpt lat="31.7813000" lon="34.9758100">
<ele>300.279999</ele>
<time>2024-08-30T14:07:47.439Z</time>
</trkpt>
<trkpt lat="31.7813300" lon="34.9758600">
<ele>299.880005</ele>
<time>2024-08-30T14:07:47.439Z</time>
</trkpt>
<trkpt lat="31.7813500" lon="34.9759400">
<ele>299.779999</ele>
<time>2024-08-30T14:07:47.439Z</time>
</trkpt>
<trkpt lat="31.7814500" lon="34.9760200">
<ele>299.010010</ele>
<time>2024-08-30T14:07:47.439Z</time>
</trkpt>
<trkpt lat="31.7815300" lon="34.9761000">
<ele>298.440002</ele>
<time>2024-08-30T14:07:47.439Z</time>
</trkpt>
<trkpt lat="31.7815700" lon="34.9761700">
<ele>297.910004</ele>
<time>2024-08-30T14:07:47.439Z</time>
</trkpt>
<trkpt lat="31.7816300" lon="34.9764400">
<ele>296.660004</ele>
<time>2024-08-30T14:07:47.439Z</time>
</trkpt>
<trkpt lat="31.7816300" lon="34.9764400">
<ele>296.660004</ele>
<time>2024-08-30T14:07:47.439Z</time>
</trkpt>
<trkpt lat="31.7816300" lon="34.9764400">
<ele>296.660004</ele>
<time>2024-08-30T14:07:47.439Z</time>
</trkpt>
<trkpt lat="31.7816400" lon="34.9764700">
<ele>296.619995</ele>
<time>2024-08-30T14:07:47.439Z</time>
</trkpt>
<trkpt lat="31.7816600" lon="34.9765600">
<ele>296.679993</ele>
<time>2024-08-30T14:07:47.439Z</time>
</trkpt>
<trkpt lat="31.7816600" lon="34.9767800">
<ele>297.029999</ele>
<time>2024-08-30T14:07:47.439Z</time>
</trkpt>
<trkpt lat="31.7816600" lon="34.9768900">
<ele>297.010010</ele>
<time>2024-08-30T14:07:47.439Z</time>
</trkpt>
<trkpt lat="31.7816300" lon="34.9770500">
<ele>297.049988</ele>
<time>2024-08-30T14:07:47.439Z</time>
</trkpt>
<trkpt lat="31.7816400" lon="34.9771700">
<ele>297.080017</ele>
<time>2024-08-30T14:07:47.439Z</time>
</trkpt>
<trkpt lat="31.7816400" lon="34.9772600">
<ele>297.480011</ele>
<time>2024-08-30T14:07:47.439Z</time>
</trkpt>
<trkpt lat="31.7816300" lon="34.9773400">
<ele>298.290009</ele>
<time>2024-08-30T14:07:47.439Z</time>
</trkpt>
<trkpt lat="31.7816000" lon="34.9774400">
<ele>299.220001</ele>
<time>2024-08-30T14:07:47.439Z</time>
</trkpt>
<trkpt lat="31.7815600" lon="34.9775000">
<ele>299.619995</ele>
<time>2024-08-30T14:07:47.439Z</time>
</trkpt>
<trkpt lat="31.7815100" lon="34.9775700">
<ele>298.679993</ele>
<time>2024-08-30T14:07:47.439Z</time>
</trkpt>
<trkpt lat="31.7814800" lon="34.9775900">
<ele>298.360016</ele>
<time>2024-08-30T14:07:47.439Z</time>
</trkpt>
<trkpt lat="31.7814300" lon="34.9776500">
<ele>297.529999</ele>
<time>2024-08-30T14:07:47.439Z</time>
</trkpt>
<trkpt lat="31.7813200" lon="34.9776900">
<ele>297.690002</ele>
<time>2024-08-30T14:07:47.439Z</time>
</trkpt>
<trkpt lat="31.7812800" lon="34.9777400">
<ele>297.579987</ele>
<time>2024-08-30T14:07:47.440Z</time>
</trkpt>
<trkpt lat="31.7812400" lon="34.9778100">
<ele>297.540009</ele>
<time>2024-08-30T14:07:47.440Z</time>
</trkpt>
<trkpt lat="31.7812200" lon="34.9779000">
<ele>297.459991</ele>
<time>2024-08-30T14:07:47.440Z</time>
</trkpt>
<trkpt lat="31.7811900" lon="34.9780000">
<ele>297.230011</ele>
<time>2024-08-30T14:07:47.440Z</time>
</trkpt>
<trkpt lat="31.7812200" lon="34.9780800">
<ele>296.820007</ele>
<time>2024-08-30T14:07:47.440Z</time>
</trkpt>
<trkpt lat="31.7812500" lon="34.9781500">
<ele>296.320007</ele>
<time>2024-08-30T14:07:47.440Z</time>
</trkpt>
<trkpt lat="31.7812800" lon="34.9782200">
<ele>295.820007</ele>
<time>2024-08-30T14:07:47.440Z</time>
</trkpt>
<trkpt lat="31.7812900" lon="34.9783100">
<ele>295.170013</ele>
<time>2024-08-30T14:07:47.440Z</time>
</trkpt>
<trkpt lat="31.7812200" lon="34.9783300">
<ele>295.019989</ele>
<time>2024-08-30T14:07:47.440Z</time>
</trkpt>
<trkpt lat="31.7811500" lon="34.9783500">
<ele>295.110016</ele>
<time>2024-08-30T14:07:47.440Z</time>
</trkpt>
<trkpt lat="31.7811300" lon="34.9784000">
<ele>295.459991</ele>
<time>2024-08-30T14:07:47.440Z</time>
</trkpt>
<trkpt lat="31.7811400" lon="34.9784400">
<ele>295.730011</ele>
<time>2024-08-30T14:07:47.440Z</time>
</trkpt>
<trkpt lat="31.7812200" lon="34.9785700">
<ele>296.369995</ele>
<time>2024-08-30T14:07:47.440Z</time>
</trkpt>
<trkpt lat="31.7812600" lon="34.9786900">
<ele>297.559998</ele>
<time>2024-08-30T14:07:47.440Z</time>
</trkpt>
<trkpt lat="31.7812700" lon="34.9787500">
<ele>298.279999</ele>
<time>2024-08-30T14:07:47.440Z</time>
</trkpt>
<trkpt lat="31.7812200" lon="34.9789500">
<ele>301.529999</ele>
<time>2024-08-30T14:07:47.440Z</time>
</trkpt>
<trkpt lat="31.7812600" lon="34.9793600">
<ele>303.959991</ele>
<time>2024-08-30T14:07:47.440Z</time>
</trkpt>
<trkpt lat="31.7812800" lon="34.9796100">
<ele>304.989990</ele>
<time>2024-08-30T14:07:47.440Z</time>
</trkpt>
<trkpt lat="31.7812400" lon="34.9798700">
<ele>305.119995</ele>
<time>2024-08-30T14:07:47.440Z</time>
</trkpt>
<trkpt lat="31.7812000" lon="34.9800300">
<ele>304.429993</ele>
<time>2024-08-30T14:07:47.440Z</time>
</trkpt>
<trkpt lat="31.7811300" lon="34.9801800">
<ele>302.700012</ele>
<time>2024-08-30T14:07:47.440Z</time>
</trkpt>
<trkpt lat="31.7809400" lon="34.9804300">
<ele>303.119995</ele>
<time>2024-08-30T14:07:47.440Z</time>
</trkpt>
<trkpt lat="31.7808500" lon="34.9805400">
<ele>303.800018</ele>
<time>2024-08-30T14:07:47.440Z</time>
</trkpt>
<trkpt lat="31.7807800" lon="34.9807000">
<ele>303.460022</ele>
<time>2024-08-30T14:07:47.440Z</time>
</trkpt>
<trkpt lat="31.7807600" lon="34.9807500">
<ele>303.309998</ele>
<time>2024-08-30T14:07:47.440Z</time>
</trkpt>
<trkpt lat="31.7807600" lon="34.9807500">
<ele>303.309998</ele>
<time>2024-08-30T14:07:47.440Z</time>
</trkpt>
<trkpt lat="31.7807600" lon="34.9807500">
<ele>303.309998</ele>
<time>2024-08-30T14:07:47.441Z</time>
</trkpt>
<trkpt lat="31.7807400" lon="34.9808400">
<ele>302.609985</ele>
<time>2024-08-30T14:07:47.441Z</time>
</trkpt>
<trkpt lat="31.7807000" lon="34.9809500">
<ele>302.380005</ele>
<time>2024-08-30T14:07:47.441Z</time>
</trkpt>
<trkpt lat="31.7803800" lon="34.9814100">
<ele>307.489990</ele>
<time>2024-08-30T14:07:47.441Z</time>
</trkpt>
<trkpt lat="31.7802600" lon="34.9818400">
<ele>308.089996</ele>
<time>2024-08-30T14:07:47.441Z</time>
</trkpt>
<trkpt lat="31.7802400" lon="34.9821400">
<ele>307.019989</ele>
<time>2024-08-30T14:07:47.441Z</time>
</trkpt>
<trkpt lat="31.7801800" lon="34.9823300">
<ele>306.630005</ele>
<time>2024-08-30T14:07:47.441Z</time>
</trkpt>
<trkpt lat="31.7800200" lon="34.9826600">
<ele>307.670013</ele>
<time>2024-08-30T14:07:47.441Z</time>
</trkpt>
<trkpt lat="31.7799600" lon="34.9830800">
<ele>310.800018</ele>
<time>2024-08-30T14:07:47.441Z</time>
</trkpt>
<trkpt lat="31.7798500" lon="34.9835300">
<ele>315.560028</ele>
<time>2024-08-30T14:07:47.441Z</time>
</trkpt>
<trkpt lat="31.7797800" lon="34.9837300">
<ele>316.729980</ele>
<time>2024-08-30T14:07:47.441Z</time>
</trkpt>
<trkpt lat="31.7796400" lon="34.9839200">
<ele>318.510010</ele>
<time>2024-08-30T14:07:47.441Z</time>
</trkpt>
<trkpt lat="31.7794900" lon="34.9841000">
<ele>319.049988</ele>
<time>2024-08-30T14:07:47.441Z</time>
</trkpt>
<trkpt lat="31.7794400" lon="34.9842200">
<ele>318.009979</ele>
<time>2024-08-30T14:07:47.441Z</time>
</trkpt>
<trkpt lat="31.7793300" lon="34.9845800">
<ele>314.519989</ele>
<time>2024-08-30T14:07:47.441Z</time>
</trkpt>
<trkpt lat="31.7792700" lon="34.9846400">
<ele>314.850006</ele>
<time>2024-08-30T14:07:47.441Z</time>
</trkpt>
<trkpt lat="31.7791800" lon="34.9847000">
<ele>315.269989</ele>
<time>2024-08-30T14:07:47.441Z</time>
</trkpt>
<trkpt lat="31.7790300" lon="34.9847100">
<ele>317.279968</ele>
<time>2024-08-30T14:07:47.441Z</time>
</trkpt>
<trkpt lat="31.7786100" lon="34.9847800">
<ele>317.339996</ele>
<time>2024-08-30T14:07:47.441Z</time>
</trkpt>
<trkpt lat="31.7783600" lon="34.9847800">
<ele>317.559998</ele>
<time>2024-08-30T14:07:47.441Z</time>
</trkpt>
<trkpt lat="31.7781500" lon="34.9848200">
<ele>319.739990</ele>
<time>2024-08-30T14:07:47.441Z</time>
</trkpt>
<trkpt lat="31.7780100" lon="34.9848000">
<ele>321.640015</ele>
<time>2024-08-30T14:07:47.441Z</time>
</trkpt>
<trkpt lat="31.7778900" lon="34.9848400">
<ele>322.970032</ele>
<time>2024-08-30T14:07:47.441Z</time>
</trkpt>
<trkpt lat="31.7778600" lon="34.9848800">
<ele>322.920013</ele>
<time>2024-08-30T14:07:47.441Z</time>
</trkpt>
<trkpt lat="31.7778100" lon="34.9849800">
<ele>322.140015</ele>
<time>2024-08-30T14:07:47.441Z</time>
</trkpt>
<trkpt lat="31.7776600" lon="34.9853300">
<ele>319.480011</ele>
<time>2024-08-30T14:07:47.441Z</time>
</trkpt>
<trkpt lat="31.7774700" lon="34.9855300">
<ele>316.660004</ele>
<time>2024-08-30T14:07:47.441Z</time>
</trkpt>
<trkpt lat="31.7774700" lon="34.9855300">
<ele>316.660004</ele>
<time>2024-08-30T14:07:47.442Z</time>
</trkpt>
<trkpt lat="31.7774700" lon="34.9855300">
<ele>316.660004</ele>
<time>2024-08-30T14:07:47.442Z</time>
</trkpt>
<trkpt lat="31.7773600" lon="34.9857100">
<ele>316.729980</ele>
<time>2024-08-30T14:07:47.442Z</time>
</trkpt>
<trkpt lat="31.7773600" lon="34.9857900">
<ele>316.580017</ele>
<time>2024-08-30T14:07:47.442Z</time>
</trkpt>
<trkpt lat="31.7773700" lon="34.9858600">
<ele>316.509979</ele>
<time>2024-08-30T14:07:47.442Z</time>
</trkpt>
<trkpt lat="31.7774600" lon="34.9860100">
<ele>315.780029</ele>
<time>2024-08-30T14:07:47.442Z</time>
</trkpt>
<trkpt lat="31.7774700" lon="34.9861400">
<ele>315.239990</ele>
<time>2024-08-30T14:07:47.442Z</time>
</trkpt>
<trkpt lat="31.7774300" lon="34.9862400">
<ele>315.200012</ele>
<time>2024-08-30T14:07:47.442Z</time>
</trkpt>
<trkpt lat="31.7773600" lon="34.9862700">
<ele>316.160004</ele>
<time>2024-08-30T14:07:47.442Z</time>
</trkpt>
<trkpt lat="31.7773200" lon="34.9862800">
<ele>316.769989</ele>
<time>2024-08-30T14:07:47.442Z</time>
</trkpt>
<trkpt lat="31.7772600" lon="34.9862600">
<ele>317.850006</ele>
<time>2024-08-30T14:07:47.442Z</time>
</trkpt>
<trkpt lat="31.7771900" lon="34.9862100">
<ele>318.789978</ele>
<time>2024-08-30T14:07:47.442Z</time>
</trkpt>
<trkpt lat="31.7771300" lon="34.9862200">
<ele>319.010010</ele>
<time>2024-08-30T14:07:47.442Z</time>
</trkpt>
<trkpt lat="31.7770500" lon="34.9862600">
<ele>319.039978</ele>
<time>2024-08-30T14:07:47.442Z</time>
</trkpt>
<trkpt lat="31.7770300" lon="34.9863000">
<ele>318.760010</ele>
<time>2024-08-30T14:07:47.442Z</time>
</trkpt>
<trkpt lat="31.7769900" lon="34.9863800">
<ele>318.090027</ele>
<time>2024-08-30T14:07:47.442Z</time>
</trkpt>
<trkpt lat="31.7769100" lon="34.9866300">
<ele>321.260010</ele>
<time>2024-08-30T14:07:47.442Z</time>
</trkpt>
<trkpt lat="31.7768700" lon="34.9867200">
<ele>322.779999</ele>
<time>2024-08-30T14:07:47.442Z</time>
</trkpt>
<trkpt lat="31.7768400" lon="34.9867900">
<ele>323.929993</ele>
<time>2024-08-30T14:07:47.442Z</time>
</trkpt>
<trkpt lat="31.7769200" lon="34.9869400">
<ele>323.489990</ele>
<time>2024-08-30T14:07:47.442Z</time>
</trkpt>
<trkpt lat="31.7771400" lon="34.9872600">
<ele>323.459991</ele>
<time>2024-08-30T14:07:47.442Z</time>
</trkpt>
<trkpt lat="31.7773700" lon="34.9874500">
<ele>322.100006</ele>
<time>2024-08-30T14:07:47.442Z</time>
</trkpt>
<trkpt lat="31.7775900" lon="34.9876700">
<ele>324.949982</ele>
<time>2024-08-30T14:07:47.442Z</time>
</trkpt>
<trkpt lat="31.7777200" lon="34.9877700">
<ele>328.790009</ele>
<time>2024-08-30T14:07:47.442Z</time>
</trkpt>
<trkpt lat="31.7780300" lon="34.9879800">
<ele>327.019989</ele>
<time>2024-08-30T14:07:47.442Z</time>
</trkpt>
<trkpt lat="31.7780300" lon="34.9879800">
<ele>327.019989</ele>
<time>2024-08-30T14:07:47.442Z</time>
</trkpt>
<trkpt lat="31.7780300" lon="34.9879800">
<ele>327.019989</ele>
<time>2024-08-30T14:07:47.442Z</time>
</trkpt>
<trkpt lat="31.7780500" lon="34.9880000">
<ele>326.369995</ele>
<time>2024-08-30T14:07:47.443Z</time>
</trkpt>
<trkpt lat="31.7784400" lon="34.9881100">
<ele>328.289978</ele>
<time>2024-08-30T14:07:47.443Z</time>
</trkpt>
<trkpt lat="31.7785500" lon="34.9881800">
<ele>329.029999</ele>
<time>2024-08-30T14:07:47.443Z</time>
</trkpt>
<trkpt lat="31.7787200" lon="34.9883600">
<ele>329.029999</ele>
<time>2024-08-30T14:07:47.443Z</time>
</trkpt>
<trkpt lat="31.7787900" lon="34.9884500">
<ele>328.320007</ele>
<time>2024-08-30T14:07:47.443Z</time>
</trkpt>
<trkpt lat="31.7788500" lon="34.9885700">
<ele>329.399994</ele>
<time>2024-08-30T14:07:47.443Z</time>
</trkpt>
<trkpt lat="31.7788300" lon="34.9886800">
<ele>330.710022</ele>
<time>2024-08-30T14:07:47.443Z</time>
</trkpt>
<trkpt lat="31.7785400" lon="34.9892700">
<ele>327.890015</ele>
<time>2024-08-30T14:07:47.443Z</time>
</trkpt>
<trkpt lat="31.7785200" lon="34.9894000">
<ele>326.739990</ele>
<time>2024-08-30T14:07:47.443Z</time>
</trkpt>
<trkpt lat="31.7785600" lon="34.9897400">
<ele>320.520020</ele>
<time>2024-08-30T14:07:47.443Z</time>
</trkpt>
<trkpt lat="31.7785200" lon="34.9901200">
<ele>317.299988</ele>
<time>2024-08-30T14:07:47.443Z</time>
</trkpt>
<trkpt lat="31.7785400" lon="34.9903000">
<ele>315.619995</ele>
<time>2024-08-30T14:07:47.443Z</time>
</trkpt>
<trkpt lat="31.7786000" lon="34.9903900">
<ele>313.660004</ele>
<time>2024-08-30T14:07:47.443Z</time>
</trkpt>
<trkpt lat="31.7786700" lon="34.9905000">
<ele>310.610016</ele>
<time>2024-08-30T14:07:47.443Z</time>
</trkpt>
<trkpt lat="31.7788000" lon="34.9905900">
<ele>308.669983</ele>
<time>2024-08-30T14:07:47.443Z</time>
</trkpt>
<trkpt lat="31.7791000" lon="34.9907400">
<ele>306.570007</ele>
<time>2024-08-30T14:07:47.443Z</time>
</trkpt>
<trkpt lat="31.7802800" lon="34.9916700">
<ele>331.060028</ele>
<time>2024-08-30T14:07:47.443Z</time>
</trkpt>
<trkpt lat="31.7804400" lon="34.9917200">
<ele>330.760010</ele>
<time>2024-08-30T14:07:47.443Z</time>
</trkpt>
<trkpt lat="31.7810100" lon="34.9917900">
<ele>328.230011</ele>
<time>2024-08-30T14:07:47.443Z</time>
</trkpt>
<trkpt lat="31.7811400" lon="34.9918400">
<ele>327.049988</ele>
<time>2024-08-30T14:07:47.443Z</time>
</trkpt>
<trkpt lat="31.7811400" lon="34.9918400">
<ele>327.049988</ele>
<time>2024-08-30T14:07:47.443Z</time>
</trkpt>
<trkpt lat="31.7811400" lon="34.9918400">
<ele>327.049988</ele>
<time>2024-08-30T14:07:47.443Z</time>
</trkpt>
<trkpt lat="31.7814800" lon="34.9919600">
<ele>323.820007</ele>
<time>2024-08-30T14:07:47.443Z</time>
</trkpt>
<trkpt lat="31.7816500" lon="34.9920400">
<ele>323.770020</ele>
<time>2024-08-30T14:07:47.443Z</time>
</trkpt>
<trkpt lat="31.7817800" lon="34.9920500">
<ele>326.559998</ele>
<time>2024-08-30T14:07:47.443Z</time>
</trkpt>
<trkpt lat="31.7818500" lon="34.9920200">
<ele>328.289978</ele>
<time>2024-08-30T14:07:47.443Z</time>
</trkpt>
<trkpt lat="31.7819200" lon="34.9919000">
<ele>330.299988</ele>
<time>2024-08-30T14:07:47.444Z</time>
</trkpt>
<trkpt lat="31.7819500" lon="34.9917300">
<ele>331.040009</ele>
<time>2024-08-30T14:07:47.444Z</time>
</trkpt>
<trkpt lat="31.7819900" lon="34.9913700">
<ele>331.299988</ele>
<time>2024-08-30T14:07:47.444Z</time>
</trkpt>
<trkpt lat="31.7820000" lon="34.9911300">
<ele>328.989990</ele>
<time>2024-08-30T14:07:47.444Z</time>
</trkpt>
<trkpt lat="31.7819800" lon="34.9907100">
<ele>325.369995</ele>
<time>2024-08-30T14:07:47.444Z</time>
</trkpt>
<trkpt lat="31.7819800" lon="34.9904400">
<ele>323.839996</ele>
<time>2024-08-30T14:07:47.444Z</time>
</trkpt>
<trkpt lat="31.7819500" lon="34.9903100">
<ele>323.160004</ele>
<time>2024-08-30T14:07:47.444Z</time>
</trkpt>
<trkpt lat="31.7819300" lon="34.9902200">
<ele>322.429993</ele>
<time>2024-08-30T14:07:47.444Z</time>
</trkpt>
<trkpt lat="31.7819300" lon="34.9900600">
<ele>321.279999</ele>
<time>2024-08-30T14:07:47.444Z</time>
</trkpt>
<trkpt lat="31.7819600" lon="34.9899600">
<ele>320.879974</ele>
<time>2024-08-30T14:07:47.444Z</time>
</trkpt>
<trkpt lat="31.7820400" lon="34.9899000">
<ele>321.309998</ele>
<time>2024-08-30T14:07:47.444Z</time>
</trkpt>
<trkpt lat="31.7821300" lon="34.9899200">
<ele>322.429993</ele>
<time>2024-08-30T14:07:47.444Z</time>
</trkpt>
<trkpt lat="31.7822700" lon="34.9900200">
<ele>324.080017</ele>
<time>2024-08-30T14:07:47.444Z</time>
</trkpt>
<trkpt lat="31.7823700" lon="34.9900300">
<ele>324.170013</ele>
<time>2024-08-30T14:07:47.444Z</time>
</trkpt>
<trkpt lat="31.7825600" lon="34.9899400">
<ele>323.149994</ele>
<time>2024-08-30T14:07:47.444Z</time>
</trkpt>
<trkpt lat="31.7825600" lon="34.9899400">
<ele>323.149994</ele>
<time>2024-08-30T14:07:47.444Z</time>
</trkpt>
<trkpt lat="31.7825600" lon="34.9899400">
<ele>323.149994</ele>
<time>2024-08-30T14:07:47.444Z</time>
</trkpt>
<trkpt lat="31.7827800" lon="34.9898700">
<ele>322.920013</ele>
<time>2024-08-30T14:07:47.444Z</time>
</trkpt>
<trkpt lat="31.7829100" lon="34.9898600">
<ele>322.289978</ele>
<time>2024-08-30T14:07:47.444Z</time>
</trkpt>
<trkpt lat="31.7830000" lon="34.9899200">
<ele>321.550018</ele>
<time>2024-08-30T14:07:47.444Z</time>
</trkpt>
<trkpt lat="31.7830800" lon="34.9900500">
<ele>320.579987</ele>
<time>2024-08-30T14:07:47.444Z</time>
</trkpt>
<trkpt lat="31.7831400" lon="34.9902600">
<ele>319.760010</ele>
<time>2024-08-30T14:07:47.444Z</time>
</trkpt>
<trkpt lat="31.7832000" lon="34.9905600">
<ele>320.960022</ele>
<time>2024-08-30T14:07:47.444Z</time>
</trkpt>
<trkpt lat="31.7832800" lon="34.9908200">
<ele>323.029999</ele>
<time>2024-08-30T14:07:47.444Z</time>
</trkpt>
<trkpt lat="31.7833700" lon="34.9910600">
<ele>325.840027</ele>
<time>2024-08-30T14:07:47.444Z</time>
</trkpt>
<trkpt lat="31.7834800" lon="34.9913000">
<ele>326.489990</ele>
<time>2024-08-30T14:07:47.444Z</time>
</trkpt>
<trkpt lat="31.7836200" lon="34.9915000">
<ele>328.169983</ele>
<time>2024-08-30T14:07:47.444Z</time>
</trkpt>
<trkpt lat="31.7838800" lon="34.9917200">
<ele>329.809998</ele>
<time>2024-08-30T14:07:47.445Z</time>
</trkpt>
<trkpt lat="31.7840900" lon="34.9918500">
<ele>331.870026</ele>
<time>2024-08-30T14:07:47.445Z</time>
</trkpt>
<trkpt lat="31.7843100" lon="34.9919100">
<ele>332.219971</ele>
<time>2024-08-30T14:07:47.445Z</time>
</trkpt>
<trkpt lat="31.7846100" lon="34.9919400">
<ele>328.960022</ele>
<time>2024-08-30T14:07:47.445Z</time>
</trkpt>
<trkpt lat="31.7848800" lon="34.9919000">
<ele>327.339996</ele>
<time>2024-08-30T14:07:47.445Z</time>
</trkpt>
<trkpt lat="31.7850000" lon="34.9918200">
<ele>327.550018</ele>
<time>2024-08-30T14:07:47.445Z</time>
</trkpt>
<trkpt lat="31.7850500" lon="34.9917300">
<ele>327.989990</ele>
<time>2024-08-30T14:07:47.445Z</time>
</trkpt>
<trkpt lat="31.7850500" lon="34.9916000">
<ele>327.590027</ele>
<time>2024-08-30T14:07:47.445Z</time>
</trkpt>
<trkpt lat="31.7850500" lon="34.9914500">
<ele>327.299988</ele>
<time>2024-08-30T14:07:47.445Z</time>
</trkpt>
<trkpt lat="31.7849600" lon="34.9911600">
<ele>327.089996</ele>
<time>2024-08-30T14:07:47.445Z</time>
</trkpt>
<trkpt lat="31.7849000" lon="34.9908800">
<ele>329.019989</ele>
<time>2024-08-30T14:07:47.445Z</time>
</trkpt>
<trkpt lat="31.7849000" lon="34.9906700">
<ele>327.760010</ele>
<time>2024-08-30T14:07:47.445Z</time>
</trkpt>
<trkpt lat="31.7849400" lon="34.9905200">
<ele>326.369995</ele>
<time>2024-08-30T14:07:47.445Z</time>
</trkpt>
<trkpt lat="31.7849400" lon="34.9905200">
<ele>326.369995</ele>
<time>2024-08-30T14:07:47.445Z</time>
</trkpt>
<trkpt lat="31.7849400" lon="34.9905200">
<ele>326.369995</ele>
<time>2024-08-30T14:07:47.445Z</time>
</trkpt>
<trkpt lat="31.7850000" lon="34.9903600">
<ele>324.890015</ele>
<time>2024-08-30T14:07:47.445Z</time>
</trkpt>
<trkpt lat="31.7850800" lon="34.9902200">
<ele>323.149994</ele>
<time>2024-08-30T14:07:47.445Z</time>
</trkpt>
<trkpt lat="31.7851600" lon="34.9901400">
<ele>322.220001</ele>
<time>2024-08-30T14:07:47.445Z</time>
</trkpt>
<trkpt lat="31.7853300" lon="34.9900300">
<ele>321.200012</ele>
<time>2024-08-30T14:07:47.445Z</time>
</trkpt>
<trkpt lat="31.7854700" lon="34.9899500">
<ele>320.319977</ele>
<time>2024-08-30T14:07:47.445Z</time>
</trkpt>
<trkpt lat="31.7855600" lon="34.9899300">
<ele>319.649994</ele>
<time>2024-08-30T14:07:47.445Z</time>
</trkpt>
<trkpt lat="31.7856200" lon="34.9899600">
<ele>318.819977</ele>
<time>2024-08-30T14:07:47.445Z</time>
</trkpt>
<trkpt lat="31.7858000" lon="34.9901400">
<ele>316.670013</ele>
<time>2024-08-30T14:07:47.445Z</time>
</trkpt>
<trkpt lat="31.7858600" lon="34.9901800">
<ele>316.850006</ele>
<time>2024-08-30T14:07:47.445Z</time>
</trkpt>
<trkpt lat="31.7859200" lon="34.9901800">
<ele>317.440002</ele>
<time>2024-08-30T14:07:47.445Z</time>
</trkpt>
<trkpt lat="31.7860200" lon="34.9901500">
<ele>318.119995</ele>
<time>2024-08-30T14:07:47.445Z</time>
</trkpt>
<trkpt lat="31.7861400" lon="34.9900500">
<ele>318.970001</ele>
<time>2024-08-30T14:07:47.446Z</time>
</trkpt>
<trkpt lat="31.7862600" lon="34.9899100">
<ele>321.369995</ele>
<time>2024-08-30T14:07:47.446Z</time>
</trkpt>
<trkpt lat="31.7863400" lon="34.9896800">
<ele>323.119995</ele>
<time>2024-08-30T14:07:47.446Z</time>
</trkpt>
<trkpt lat="31.7863800" lon="34.9894500">
<ele>323.839996</ele>
<time>2024-08-30T14:07:47.446Z</time>
</trkpt>
<trkpt lat="31.7864000" lon="34.9890000">
<ele>319.859985</ele>
<time>2024-08-30T14:07:47.446Z</time>
</trkpt>
<trkpt lat="31.7864800" lon="34.9885100">
<ele>318.660004</ele>
<time>2024-08-30T14:07:47.446Z</time>
</trkpt>
<trkpt lat="31.7864900" lon="34.9882400">
<ele>318.760010</ele>
<time>2024-08-30T14:07:47.446Z</time>
</trkpt>
<trkpt lat="31.7864700" lon="34.9880900">
<ele>318.479980</ele>
<time>2024-08-30T14:07:47.446Z</time>
</trkpt>
<trkpt lat="31.7864100" lon="34.9876300">
<ele>320.510010</ele>
<time>2024-08-30T14:07:47.446Z</time>
</trkpt>
<trkpt lat="31.7864200" lon="34.9871300">
<ele>327.330017</ele>
<time>2024-08-30T14:07:47.446Z</time>
</trkpt>
<trkpt lat="31.7864500" lon="34.9866700">
<ele>329.779968</ele>
<time>2024-08-30T14:07:47.446Z</time>
</trkpt>
<trkpt lat="31.7864500" lon="34.9866700">
<ele>329.779968</ele>
<time>2024-08-30T14:07:47.446Z</time>
</trkpt>
<trkpt lat="31.7864500" lon="34.9866700">
<ele>329.779968</ele>
<time>2024-08-30T14:07:47.446Z</time>
</trkpt>
<trkpt lat="31.7864800" lon="34.9865900">
<ele>329.119995</ele>
<time>2024-08-30T14:07:47.446Z</time>
</trkpt>
<trkpt lat="31.7865200" lon="34.9865600">
<ele>328.759979</ele>
<time>2024-08-30T14:07:47.446Z</time>
</trkpt>
<trkpt lat="31.7865800" lon="34.9865500">
<ele>328.470001</ele>
<time>2024-08-30T14:07:47.446Z</time>
</trkpt>
<trkpt lat="31.7867200" lon="34.9865800">
<ele>328.769989</ele>
<time>2024-08-30T14:07:47.446Z</time>
</trkpt>
<trkpt lat="31.7868900" lon="34.9866600">
<ele>331.309998</ele>
<time>2024-08-30T14:07:47.446Z</time>
</trkpt>
<trkpt lat="31.7871900" lon="34.9868000">
<ele>332.560028</ele>
<time>2024-08-30T14:07:47.446Z</time>
</trkpt>
<trkpt lat="31.7872700" lon="34.9868600">
<ele>331.830017</ele>
<time>2024-08-30T14:07:47.446Z</time>
</trkpt>
<trkpt lat="31.7873400" lon="34.9869500">
<ele>331.029999</ele>
<time>2024-08-30T14:07:47.446Z</time>
</trkpt>
<trkpt lat="31.7874600" lon="34.9872600">
<ele>327.739990</ele>
<time>2024-08-30T14:07:47.446Z</time>
</trkpt>
<trkpt lat="31.7874900" lon="34.9874200">
<ele>325.830017</ele>
<time>2024-08-30T14:07:47.446Z</time>
</trkpt>
<trkpt lat="31.7874800" lon="34.9875900">
<ele>324.859985</ele>
<time>2024-08-30T14:07:47.446Z</time>
</trkpt>
<trkpt lat="31.7873400" lon="34.9880000">
<ele>324.630005</ele>
<time>2024-08-30T14:07:47.446Z</time>
</trkpt>
<trkpt lat="31.7873000" lon="34.9881800">
<ele>325.169983</ele>
<time>2024-08-30T14:07:47.446Z</time>
</trkpt>
<trkpt lat="31.7873000" lon="34.9882900">
<ele>325.280029</ele>
<time>2024-08-30T14:07:47.446Z</time>
</trkpt>
<trkpt lat="31.7873200" lon="34.9883900">
<ele>325.380005</ele>
<time>2024-08-30T14:07:47.447Z</time>
</trkpt>
<trkpt lat="31.7874000" lon="34.9886200">
<ele>326.730011</ele>
<time>2024-08-30T14:07:47.447Z</time>
</trkpt>
<trkpt lat="31.7874000" lon="34.9886200">
<ele>326.730011</ele>
<time>2024-08-30T14:07:47.447Z</time>
</trkpt>
<trkpt lat="31.7874000" lon="34.9886200">
<ele>326.730011</ele>
<time>2024-08-30T14:07:47.447Z</time>
</trkpt>
<trkpt lat="31.7874700" lon="34.9887800">
<ele>326.690002</ele>
<time>2024-08-30T14:07:47.447Z</time>
</trkpt>
<trkpt lat="31.7875000" lon="34.9889400">
<ele>327.179993</ele>
<time>2024-08-30T14:07:47.447Z</time>
</trkpt>
<trkpt lat="31.7875200" lon="34.9892800">
<ele>326.459991</ele>
<time>2024-08-30T14:07:47.447Z</time>
</trkpt>
<trkpt lat="31.7875900" lon="34.9896200">
<ele>324.760010</ele>
<time>2024-08-30T14:07:47.447Z</time>
</trkpt>
<trkpt lat="31.7876100" lon="34.9897600">
<ele>325.270020</ele>
<time>2024-08-30T14:07:47.447Z</time>
</trkpt>
<trkpt lat="31.7876000" lon="34.9898800">
<ele>326.140015</ele>
<time>2024-08-30T14:07:47.447Z</time>
</trkpt>
<trkpt lat="31.7875600" lon="34.9900100">
<ele>326.999969</ele>
<time>2024-08-30T14:07:47.447Z</time>
</trkpt>
<trkpt lat="31.7873700" lon="34.9902500">
<ele>326.919983</ele>
<time>2024-08-30T14:07:47.447Z</time>
</trkpt>
<trkpt lat="31.7873500" lon="34.9903100">
<ele>326.809998</ele>
<time>2024-08-30T14:07:47.447Z</time>
</trkpt>
<trkpt lat="31.7873600" lon="34.9903100">
<ele>326.880005</ele>
<time>2024-08-30T14:07:47.447Z</time>
</trkpt>
</trkseg>
</trk>
</gpx>
